[[{"header":{"parameterUnit":"m.s-1","parameterCategory":1,"la1":30.6,"la2":29.2853,"lo1":-89.7004,"lo2":-87.6739,"dy":0.0162,"dx":0.0183,"nx":112,"ny":82,"refTime":"2025-07-04T00:00:00:Z","depth":0,"parameterNumber":2,"parameterNumberName":"U-component_of_WINDS"},"data":[0.0,0.0,0.0,0.0,0.0,0.0,0.0,0.0,0.0,0.0,0.0,0.0,0.0,0.0,0.0,0.0,0.0,0.0,0.0,0.0,0.0,0.0,0.0,0.0,0.0,0.0,0.0,0.0,0.0,0.0,0.0,0.0,0.0,0.0,0.0,0.0,0.0,0.0,0.0,0.0,0.0,0.0,0.0,0.0,0.0,0.0,0.0,0.0,0.0,0.0,0.0,0.0,0.0,0.0,0.0,0.0,0.0,0.0,0.0,0.0,0.0,0.0,0.0,0.0,0.0,0.0,0.0,0.0,0.0,0.0,0.0,0.0,0.0,0.0,0.0,0.0,0.0,0.0,0.0,0.0,0.0,0.0,0.0,0.0,0.0,0.0,0.0,0.0,0.0,0.0,-0.1717,-0.195,-0.1998,-0.2147,-0.2517,-0.2358,-0.2141,-0.1877,0.0,0.0,0.0,0.0,0.0,0.0,0.0,0.0,0.0,0.0,0.0,0.0,0.0,0.0,0.0,0.0,0.0,0.0,0.0,0.0,0.0,0.0,0.0,0.0,0.0,0.0,0.0,0.0,0.0,0.0,0.0,0.0,0.0,0.0,0.0,0.0,0.0,0.0,0.0,0.0,0.0,0.0,0.0,0.0,0.0,0.0,0.0,0.0,0.0,0.0,0.0,0.0,0.0,0.0,0.0,0.0,0.0,0.0,0.0,0.0,0.0,0.0,0.0,0.0,0.0,0.0,0.0,0.0,0.0,0.0,0.0,0.0,0.0,0.0,0.0,0.0,0.0,0.0,0.0,0.0,0.0,0.0,0.0,0.0,0.0,0.0,0.0,0.0,0.0,0.0,0.0,0.0,0.0,0.0,0.0,0.0,0.0,0.0,0.0,0.0,0.0,0.0,0.0,0.0,-0.1448,-0.186,-0.2496,-0.2871,-0.2747,-0.2828,-0.2629,-0.2079,0.0,0.0,0.0,0.0,0.0,0.0,0.0,0.0,0.0,0.0,0.0,0.0,0.0,0.0,0.0,0.0,0.0,0.0,0.0,0.0,0.0,0.0,0.0,0.0,0.0,0.0,0.0,0.0,0.0,0.0,0.0,0.0,0.0,0.0,0.0,0.0,0.0,0.0,0.0,0.0,0.0,0.0,0.0,0.0,0.0,0.0,0.0,0.0,0.0,0.0,0.0,0.0,0.0,0.0,0.0,0.0,0.0,0.0,0.0,0.0,0.0,0.0,0.0,0.0,0.0,0.0,0.0,0.0,0.0,0.0,0.0,0.0,0.0,0.0,0.0,0.0,0.0,0.0,0.0,0.0,0.0,0.0,0.0,0.0,0.0,0.0,0.0,0.0,0.0,0.0,0.0,0.0,0.0,0.0,0.0,0.0,0.0,0.0,0.0,0.0,0.0,0.0,0.0,-0.1519,-0.1781,-0.1992,-0.2434,-0.2775,-0.2944,-0.2735,-0.2452,-0.2166,-0.1861,0.0,0.0,0.0,0.0,0.0,0.0,0.0,0.0,0.0,0.0,0.0,0.0,0.0,0.0,0.0,0.0,0.0,0.0,0.0,0.0,0.0,0.0,0.0,0.0,0.0,0.0,0.0,0.0,0.0,0.0,0.0,0.0,0.0,0.0,0.0,0.0,0.0,0.0,0.0,0.0,0.0,0.0,0.0,0.0,0.0,0.0,0.0,0.0,0.0,0.0,0.0,0.0,0.0,0.0,0.0,0.0,0.0,0.0,0.0,0.0,0.0,0.0,0.0,0.0,0.0,0.0,0.0,0.0,0.0,0.0,0.0,0.0,0.0,0.0,0.0,0.0,0.0,0.0,0.0,0.0,0.0,0.0,0.0,0.0,0.0,0.0,0.0,0.0,0.0,0.0,0.0,0.0,0.0,0.0,0.0,0.0,0.0,0.0,0.0,0.0,0.0,0.0,-0.1769,-0.2069,-0.2097,-0.2342,-0.2673,-0.3072,-0.2642,-0.2314,-0.2249,-0.1751,0.0,0.0,0.0,0.0,0.0,0.0,0.0,0.0,0.0,0.0,0.0,0.0,0.0,0.0,0.0,0.0,0.0,0.0,0.0,0.0,0.0,0.0,0.0,0.0,0.0,0.0,0.0,0.0,0.0,0.0,0.0,0.0,0.0,0.0,0.0,0.0,0.0,0.0,0.0,0.0,0.0,0.0,0.0,0.0,0.0,0.0,0.0,0.0,0.0,0.0,0.0,0.0,0.0,0.0,0.0,0.0,0.0,0.0,0.0,0.0,0.0,0.0,0.0,0.0,0.0,0.0,0.0,0.0,0.0,0.0,0.0,0.0,0.0,0.0,0.0,0.0,0.0,0.0,0.0,0.0,0.0,0.0,0.0,0.0,0.0,0.0,0.0,0.0,0.0,0.0,0.0,0.0,0.0,0.0,0.0,0.0,0.0,0.0,0.0,0.0,0.0,0.0,-0.1639,-0.2041,-0.2097,-0.2558,-0.2937,-0.3072,-0.29,-0.2637,-0.2393,-0.1772,0.0,0.0,0.0,0.0,0.0,0.0,0.0,0.0,0.0,0.0,0.0,0.0,0.0,0.0,0.0,0.0,0.0,0.0,0.0,0.0,0.0,0.0,0.0,0.0,0.0,0.0,0.0,0.0,0.0,0.0,0.0,0.0,0.0,0.0,0.0,0.0,0.0,0.0,0.0,0.0,0.0,0.0,0.0,0.0,0.0,0.0,0.0,0.0,0.0,0.0,0.0,0.0,0.0,0.0,0.0,0.0,0.0,0.0,0.0,0.0,0.0,0.0,0.0,0.0,0.0,0.0,0.0,0.0,0.0,0.0,0.0,0.0,0.0,0.0,0.0,0.0,0.0,0.0,0.0,0.0,0.0,0.0,0.0,0.0,0.0,0.0,0.0,0.0,0.0,0.0,0.0,0.0,0.0,0.0,0.0,0.0,0.0,0.0,0.0,0.0,0.0,0.0,-0.1845,-0.2294,-0.2228,-0.2496,-0.2709,-0.2911,-0.2727,-0.2476,-0.2176,0.0,0.0,0.0,0.0,0.0,0.0,0.0,0.0,0.0,0.0,0.0,0.0,0.0,0.0,0.0,0.0,0.0,0.0,0.0,0.0,0.0,0.0,0.0,0.0,0.0,0.0,0.0,0.0,0.0,0.0,0.0,0.0,0.0,0.0,0.0,0.0,0.0,0.0,0.0,0.0,0.0,0.0,0.0,0.0,0.0,0.0,0.0,0.0,0.0,0.0,0.0,0.0,0.0,0.0,0.0,0.0,0.0,0.0,0.0,0.0,0.0,0.0,0.0,0.0,0.0,0.0,0.0,0.0,0.0,0.0,0.0,0.0,0.0,0.0,0.0,0.0,0.0,0.0,0.0,0.0,0.0,0.0,0.0,0.0,0.0,0.0,0.0,0.0,0.0,0.0,0.0,0.0,0.0,0.0,0.0,0.0,0.0,0.0,0.0,0.0,0.0,0.0,-0.1246,-0.1976,-0.2478,-0.2406,-0.2523,-0.2712,-0.301,-0.2761,-0.2503,-0.2256,0.0,0.0,0.0,0.0,0.0,0.0,0.0,0.0,0.0,0.0,0.0,0.0,0.0,0.0,0.0,0.0,0.0,0.0,0.0,0.0,0.0,0.0,0.0,0.0,0.0,0.0,0.0,0.0,0.0,0.0,0.0,0.0,0.0,0.0,0.0,0.0,0.0,0.0,0.0,0.0,0.0,0.0,0.0,0.0,0.0,0.0,0.0,0.0,0.0,0.0,0.0,0.0,0.0,0.0,0.0,0.0,0.0,0.0,0.0,0.0,0.0,0.0,0.0,0.0,0.0,0.0,0.0,0.0,0.0,0.0,0.0,0.0,0.0,0.0,0.0,0.0,0.0,0.0,0.0,0.0,0.0,0.0,0.0,0.0,0.0,0.0,0.0,0.0,0.0,0.0,0.0,0.0,0.0,0.0,0.0,0.0,0.0,0.0,0.0,0.0,0.0,0.0,-0.1383,-0.2051,-0.2516,-0.2589,-0.2719,-0.2981,-0.3467,-0.3077,-0.28,0.0,0.0,0.0,0.0,0.0,0.0,0.0,0.0,0.0,0.0,0.0,0.0,0.0,0.0,0.0,0.0,0.0,0.0,0.0,0.0,0.0,0.0,0.0,0.0,0.0,0.0,0.0,0.0,0.0,0.0,0.0,0.0,0.0,0.0,0.0,0.0,0.0,0.0,0.0,0.0,0.0,0.0,0.0,0.0,0.0,0.0,0.0,0.0,0.0,0.0,0.0,0.0,0.0,0.0,0.0,0.0,0.0,0.0,0.0,0.0,0.0,0.0,0.0,0.0,0.0,0.0,0.0,0.0,0.0,0.0,0.0,0.0,0.0,0.0,0.0,0.0,0.0,0.0,0.0,0.0,0.0,0.0,0.0,0.0,0.0,0.0,0.0,0.0,0.0,0.0,0.0,0.0,0.0,0.0,0.0,0.0,0.0,0.0,0.0,0.0,0.0,0.0,0.0,-0.1458,-0.208,-0.2544,-0.2653,-0.2755,-0.2812,-0.2805,-0.2812,-0.2609,-0.2201,0.0,0.0,0.0,0.0,0.0,0.0,0.0,0.0,0.0,0.0,0.0,0.0,0.0,0.0,0.0,0.0,0.0,0.0,0.0,0.0,0.0,0.0,0.0,0.0,0.0,0.0,0.0,0.0,0.0,0.0,0.0,0.0,0.0,0.0,0.0,0.0,0.0,0.0,0.0,0.0,0.0,0.0,0.0,0.0,0.0,0.0,0.0,0.0,0.0,0.0,0.0,0.0,0.0,0.0,0.0,0.0,0.0,0.0,0.0,0.0,0.0,0.0,0.0,0.0,0.0,0.0,0.0,0.0,0.0,0.0,0.0,0.0,0.0,0.0,0.0,0.0,0.0,0.0,0.0,0.0,0.0,0.0,0.0,0.0,0.0,0.0,0.0,0.0,0.0,0.0,0.0,0.0,0.0,0.0,0.0,0.0,0.0,0.0,0.0,0.0,0.0,0.0,-0.1572,-0.2174,-0.2627,-0.2769,-0.2949,-0.3039,-0.2999,-0.3172,-0.3073,-0.2582,0.0,0.0,0.0,0.0,0.0,0.0,0.0,0.0,0.0,0.0,0.0,0.0,0.0,0.0,0.0,0.0,0.0,0.0,0.0,0.0,0.0,0.0,0.0,0.0,0.0,0.0,0.0,0.0,0.0,0.0,0.0,0.0,0.0,0.0,0.0,0.0,0.0,0.0,0.0,0.0,0.0,0.0,0.0,0.0,0.0,0.0,0.0,0.0,0.0,0.0,0.0,0.0,0.0,0.0,0.0,0.0,0.0,0.0,0.0,0.0,0.0,0.0,0.0,0.0,0.0,0.0,0.0,0.0,0.0,0.0,0.0,0.0,0.0,0.0,0.0,0.0,0.0,0.0,0.0,0.0,0.0,0.0,0.0,0.0,0.0,0.0,0.0,0.0,0.0,0.0,0.0,0.0,0.0,0.0,0.0,0.0,0.0,0.0,0.0,0.0,0.0,0.0,-0.1753,-0.2329,-0.2772,-0.2903,-0.3233,-0.3495,-0.3649,-0.3832,-0.3808,-0.3483,0.0,0.0,0.0,0.0,0.0,0.0,0.0,0.0,0.0,0.0,0.0,0.0,0.0,0.0,0.0,0.0,0.0,0.0,0.0,0.0,0.0,0.0,0.0,0.0,0.0,0.0,0.0,0.0,0.0,0.0,0.0,0.0,0.0,0.0,0.0,0.0,0.0,0.0,0.0,0.0,0.0,0.0,0.0,0.0,0.0,0.0,0.0,0.0,0.0,0.0,0.0,0.0,0.0,0.0,0.0,0.0,0.0,0.0,0.0,0.0,0.3179,0.3501,0.0,0.0,0.0,0.0,0.0,0.0,0.0,0.0,0.0,0.0,0.0,0.0,0.0,0.0,0.0,0.0,0.0,0.0,0.0,0.0,0.0,0.0,0.0,0.0,0.0,0.0,0.0,0.0,0.0,0.0,0.0,0.0,0.0,0.0,0.0,0.0,0.0,0.0,0.0,0.0,-0.1829,-0.2445,-0.29,-0.3049,-0.3035,-0.3101,-0.3303,-0.3477,-0.3496,-0.3213,-0.3137,0.0,0.0,0.0,0.0,0.0,0.0,0.0,0.0,0.0,0.0,0.0,0.0,0.0,0.0,0.0,0.0,0.0,0.0,0.0,0.0,0.0,0.0,0.0,0.0,0.0,0.0,0.0,0.0,0.0,0.0,0.0,0.0,0.0,0.0,0.0,0.0,0.0,0.0,0.0,0.0,0.0,0.0,0.0,0.0,0.0,0.0,0.0,0.0,0.0,0.0,0.0,0.0,0.0,0.0,0.0,0.0,0.0,0.0,0.0,0.2917,0.3045,0.0,0.0,0.0,0.0,0.0,0.0,0.0,0.0,0.0,0.0,0.0,0.0,0.0,0.0,0.0,0.0,0.0,0.0,0.0,0.0,0.0,0.0,0.0,0.0,0.0,0.0,0.0,0.0,0.0,0.0,0.0,0.0,0.0,0.0,0.0,0.0,0.0,0.0,0.0,0.0,-0.21,-0.2954,-0.3574,-0.3727,-0.3811,-0.3881,-0.3858,-0.4192,-0.4281,-0.394,-0.3747,0.0,0.0,0.0,0.0,0.0,0.0,0.0,0.0,0.0,0.0,0.0,0.0,0.0,0.0,0.0,0.0,0.0,0.0,0.0,0.0,0.0,0.0,0.0,0.0,0.0,0.0,0.0,0.0,0.0,0.0,0.0,0.0,0.0,0.0,0.0,0.0,0.0,0.0,0.0,0.0,0.0,0.0,0.0,0.0,0.0,0.0,0.0,0.0,0.0,0.0,0.0,0.0,0.0,0.216,0.2171,0.2123,0.224,0.2165,0.1978,0.2522,0.2432,0.1931,0.2233,0.0,0.0,0.0,0.0,0.0,0.0,0.0,0.0,0.0,0.0,0.0,0.0,0.0,0.0,0.0,0.0,0.0,0.0,0.0,0.0,0.0,0.0,-0.2372,-0.2946,-0.349,-0.3547,-0.2327,0.0,0.0,0.0,0.0,0.0,0.0,0.0,0.0,0.0,0.0,0.0,-0.2692,-0.3632,-0.4302,-0.4496,-0.4678,-0.4756,-0.4628,-0.5042,-0.5174,-0.485,-0.4479,-0.4107,0.0,0.0,0.0,0.0,0.0,0.0,0.0,0.0,0.0,0.0,0.0,0.0,0.0,0.0,0.0,0.0,0.0,0.0,0.0,0.0,0.0,0.0,0.0,0.0,0.0,0.0,0.0,0.0,0.0,0.0,0.0,0.0,0.3077,0.3113,0.0,0.0,0.0,0.0,0.0,0.0,0.0,0.0,0.0,0.0,0.0,0.0,0.0,0.3348,0.3412,0.341,0.2385,0.0354,0.1585,0.2055,0.1853,0.1852,0.2005,0.2164,0.1841,0.0,0.1929,0.2057,0.0,0.0,0.0,0.0,0.0,0.0,0.0,0.0,0.0,0.0,0.0,0.0,0.0,0.0,0.0,0.0,0.0,0.0,0.0,0.0,0.0,0.0,-0.4294,-0.4197,-0.4557,-0.4872,-0.4817,-0.3639,-0.2624,-0.2641,-0.2453,-0.2094,0.0,0.0,0.0,0.0,0.0,0.0,-0.4013,-0.4325,-0.4572,-0.4893,-0.4653,-0.4552,-0.475,-0.4884,-0.4952,-0.4966,-0.5012,-0.4809,-0.4211,-0.3894,0.0,0.0,0.0,0.0,0.0,0.0,0.0,0.0,0.0,0.0,0.0,0.0,0.0,0.0,0.0,0.0,0.0,0.0,0.0,0.0,0.0,0.0,0.0,0.0,0.0,0.0,0.0,0.0,0.0,0.2814,0.3239,0.3651,0.3643,0.3736,0.0,0.0,0.0,0.0,0.0,0.0,0.0,0.0,0.0,0.2534,0.2636,0.2473,0.1958,0.1621,0.1178,0.058,0.0835,0.0997,0.1017,0.0642,0.0535,0.0589,0.0267,0.0102,0.014,0.125,0.1585,0.1414,0.0,0.0,0.0,0.0,-0.0292,-0.0514,-0.113,-0.1553,-0.1896,-0.2471,0.0,0.0,0.0,0.0,0.0,0.0,0.0,-0.2575,-0.3572,-0.4248,-0.4902,-0.5675,-0.6014,-0.6222,-0.6439,-0.5583,-0.4605,-0.4011,-0.3658,-0.3194,-0.2263,-0.2651,0.0,0.0,0.0,-0.4286,-0.4796,-0.5438,-0.5902,-0.6038,-0.5719,-0.5478,-0.5518,-0.5499,-0.5473,-0.5455,-0.5385,-0.528,-0.5037,-0.4531,-0.3975,0.0,0.0,0.0,0.0,0.0,0.0,0.0,0.0,0.0,0.0,0.0,0.0,0.0,0.0,0.0,0.0,0.0,0.0,0.0,0.0,0.0,0.0,0.0,0.0,0.0,0.0,0.0,0.0,0.3016,0.3412,0.4166,0.3886,0.3883,0.0,0.0,0.0,0.0,0.0,0.0,0.2807,0.2463,0.2105,0.1687,0.1734,0.142,0.0746,0.0104,0.0054,0.0648,0.022,0.0112,0.0288,-0.0234,-0.0708,-0.112,-0.1294,-0.1449,-0.1463,0.0205,0.0761,0.0496,0.0127,-0.004,-0.0195,-0.1095,-0.1368,-0.1475,-0.2384,-0.2672,-0.2728,-0.3532,-0.3484,-0.3061,-0.2995,0.0,0.0,0.0,0.0,-0.3469,-0.4828,-0.5168,-0.5555,-0.6842,-0.7171,-0.7296,-0.7657,-0.7237,-0.6418,-0.5377,-0.493,-0.4439,-0.3481,-0.3925,0.0,-0.3374,-0.4472,-0.5469,-0.5764,-0.6482,-0.6986,-0.707,-0.6719,-0.6434,-0.6244,-0.6149,-0.6002,-0.585,-0.5785,-0.5763,-0.58,-0.5237,-0.4745,-0.4328,0.0,0.0,0.0,0.0,0.0,0.0,0.0,0.0,0.0,0.0,0.0,0.0,0.0,0.0,0.0,0.0,0.0,0.0,0.0,0.0,0.0,0.0,0.0,0.0,0.0,0.0,0.0,0.0,0.0,0.4575,0.3993,0.0,0.0,0.0,0.0,0.3127,0.3398,0.3076,0.2014,0.2372,0.2128,0.1099,0.0676,0.053,0.0612,-0.0391,-0.0671,-0.0336,-0.0119,-0.0,-0.0,-0.0,-0.0935,-0.2471,-0.2538,-0.2332,-0.197,-0.0907,-0.0608,-0.085,-0.1365,-0.1077,-0.0466,-0.1357,-0.1776,-0.2082,-0.3197,-0.3605,-0.3773,-0.4158,-0.4055,-0.3833,-0.3704,-0.3626,0.0,0.0,-0.4849,-0.5578,-0.6259,-0.6521,-0.6763,-0.7396,-0.768,-0.791,-0.8511,-0.8164,-0.7471,-0.6579,-0.6206,-0.5851,-0.5364,0.0,-0.5813,-0.5913,-0.5982,-0.6404,-0.7364,-0.7256,-0.7203,-0.7548,-0.7256,-0.6934,-0.6604,-0.6566,-0.6413,-0.6013,-0.6213,-0.6358,-0.6358,-0.619,-0.5753,-0.4978,-0.4608,0.0,0.0,0.0,0.0,0.0,0.0,0.0,0.0,0.0,0.0,0.0,0.0,0.0,0.0,0.0,0.0,0.0,0.0,0.0,0.0,0.0,0.0,0.0,0.0,0.0,0.0,0.0,0.0,0.4147,0.3752,0.0,0.4227,0.3595,0.3011,0.2665,0.2371,0.1888,0.1247,0.0962,0.0693,0.0292,-0.0234,-0.0479,-0.0506,-0.0823,-0.0888,-0.0824,-0.181,-0.2217,-0.2022,-0.2797,-0.3629,-0.437,-0.3696,-0.3558,-0.3875,-0.3175,-0.2577,-0.2104,-0.3308,-0.346,-0.3044,-0.3383,-0.3427,-0.3337,-0.3827,-0.4094,-0.4347,-0.4871,-0.5081,-0.5196,-0.5467,-0.5515,-0.5609,-0.6083,-0.634,-0.6666,-0.7499,-0.7733,-0.7917,-0.8476,-0.8672,-0.876,-0.8894,-0.8803,-0.856,-0.8216,-0.7531,-0.6841,-0.6274,-0.6615,-0.6833,-0.63,-0.6742,-0.7258,-0.7686,-0.778,-0.7897,-0.8159,-0.7826,-0.761,-0.7622,-0.7235,-0.6917,-0.6787,-0.6684,-0.6651,-0.6651,-0.6367,-0.593,-0.5398,-0.4941,-0.4237,0.0,0.0,0.0,0.0,0.0,0.0,0.0,0.0,0.0,0.0,0.0,0.0,0.0,0.0,0.0,0.0,0.0,0.0,0.0,0.0,0.0,0.0,0.0,0.0,0.0,0.2995,0.3246,0.4068,0.3608,0.3413,0.4029,0.3204,0.2456,0.2137,0.152,0.0928,0.0462,0.0058,-0.0238,-0.0443,-0.0826,-0.1166,-0.1478,-0.148,-0.1615,-0.1884,-0.2876,-0.3384,-0.3595,-0.4795,-0.5403,-0.5463,-0.4751,-0.4748,-0.5102,-0.5099,-0.4672,-0.4089,-0.4704,-0.4832,-0.4711,-0.4646,-0.4511,-0.4374,-0.4664,-0.5113,-0.5521,-0.5976,-0.6253,-0.6442,-0.6795,-0.7028,-0.7261,-0.7607,-0.7778,-0.8035,-0.8691,-0.8844,-0.8954,-0.9358,-0.9457,-0.9455,-0.9489,-0.9491,-0.95,-0.9376,-0.8645,-0.7866,-0.7378,-0.7668,-0.7748,-0.7105,-0.76,-0.8055,-0.8086,-0.8303,-0.8537,-0.8643,-0.8477,-0.8356,-0.8329,-0.7798,-0.7424,-0.7329,-0.7071,-0.6924,-0.6924,-0.651,-0.6073,-0.5668,-0.5107,-0.4643,-0.4244,0.0,0.0,0.0,0.0,0.0,0.0,0.0,0.0,0.0,0.0,0.0,0.0,0.0,0.0,0.0,0.0,0.0,0.0,0.0,0.0,0.0,0.0,0.0,0.3655,0.3367,0.3425,0.4351,0.3477,0.2908,0.322,0.2223,0.154,0.1531,0.0936,0.0326,-0.0201,-0.0202,-0.0538,-0.1146,-0.1146,-0.155,-0.2362,-0.2362,-0.2764,-0.3576,-0.3126,-0.3425,-0.4535,-0.5768,-0.6126,-0.5799,-0.5796,-0.5796,-0.5715,-0.6633,-0.6938,-0.6878,-0.5544,-0.5229,-0.5424,-0.5106,-0.499,-0.5115,-0.5802,-0.6632,-0.7315,-0.7315,-0.7427,-0.7545,-0.7545,-0.8084,-0.8626,-0.8626,-0.9093,-0.9621,-0.9792,-0.9799,-0.9851,-0.9999,-0.9999,-1.0051,-1.0265,-1.0316,-1.0265,-0.996,-0.9533,-0.9059,-0.8777,-0.8715,-0.8649,-0.8494,-0.8635,0.0,-0.8732,-0.8895,-0.9016,-0.9016,-0.9136,-0.9059,-0.8665,-0.8289,-0.7938,-0.7664,-0.7319,-0.7164,-0.7225,-0.67,-0.6225,-0.5842,-0.524,-0.5128,-0.5508,0.0,0.0,0.0,0.0,0.0,0.0,0.0,0.0,0.0,0.0,0.0,0.0,0.0,0.0,0.0,0.0,0.0,0.0,0.0,0.0,0.0,0.2709,0.2564,0.2898,0.3095,0.3321,0.3542,0.2846,0.2428,0.2467,0.1578,0.0772,0.0324,0.0132,-0.0267,-0.0806,-0.0874,-0.1232,-0.1992,-0.2066,-0.2465,-0.3379,-0.3381,-0.3531,-0.3757,-0.4187,-0.4523,-0.4912,-0.5681,-0.6028,-0.6183,-0.6486,-0.6788,-0.7246,-0.7923,-0.8528,-0.8964,-0.806,-0.7555,-0.7434,-0.7637,-0.7307,-0.6868,-0.7433,-0.7394,-0.7272,-0.7871,-0.8243,-0.8508,-0.8928,-0.9302,-0.9629,-0.9629,-0.9732,-0.9888,-0.9947,-0.9947,-0.9999,-1.0162,-1.0213,-1.0265,-1.0419,-1.0624,-1.0685,-1.0638,-1.064,-1.0416,-0.9649,-0.9497,-0.9555,-0.9686,-0.9598,-0.9494,-0.9494,-0.9334,-0.9248,-0.9368,-0.9408,-0.9482,-0.9616,-0.9236,-0.8898,-0.8646,-0.8249,-0.7936,-0.7656,-0.723,-0.6794,-0.6392,-0.6016,-0.5832,0.0,0.0,0.0,0.0,0.0,0.0,0.0,0.0,0.0,0.0,0.0,0.0,0.0,0.0,0.0,0.0,0.0,0.0,0.0,0.0,0.0,0.0,0.2769,0.2602,0.265,0.2963,0.3065,0.2688,0.2309,0.1946,0.1611,0.0755,0.0139,-0.0209,-0.0498,-0.0935,-0.1655,-0.1796,-0.2184,-0.3074,-0.3226,-0.3648,-0.453,-0.4533,-0.4763,-0.5074,-0.5541,-0.5777,-0.5777,-0.6167,-0.6405,-0.6563,-0.6788,-0.7322,-0.8008,-0.8761,-0.9588,-1.019,0.0,0.0,0.0,0.0,-0.8963,-0.8805,-0.8741,-0.8675,-0.8599,-0.8918,-0.9106,-0.9309,-0.9673,-0.994,-1.011,-1.011,-1.0162,-1.0257,-1.036,-1.036,-1.0411,-1.0667,-1.0718,-1.0718,-1.082,-1.1023,-1.1175,-1.1175,-1.1326,0.0,-1.0837,-1.0488,-1.0279,-1.0344,-1.0303,-1.0283,-1.0326,-1.0109,-0.9975,-1.0096,-0.9977,-0.9952,-1.0166,-0.9855,0.0,0.0,0.0,-0.8559,-0.7831,-0.7385,0.0,0.0,0.0,0.0,0.0,-0.7262,0.0,0.0,-0.6133,-0.5822,0.0,0.0,0.0,0.0,0.0,0.0,0.0,0.0,0.0,0.0,0.0,0.0,0.0,0.0,0.0,0.0,0.2882,0.2724,0.2609,0.278,0.2632,0.1984,0.1833,0.1494,0.0684,-0.0,-0.0441,-0.0441,-0.1072,-0.1805,-0.251,-0.282,0.0,0.0,0.0,-0.4993,-0.5777,-0.5777,-0.6167,-0.6942,-0.6942,-0.6942,-0.6942,-0.6942,-0.7019,-0.7092,-0.7169,-0.7698,-0.8533,-0.9518,-1.034,-1.0938,-1.0045,-1.0045,-1.0519,-0.9999,-1.0275,-1.0763,-1.0091,0.0,0.0,-1.0089,-0.9911,-0.9903,-1.0051,-1.0205,-1.0368,-1.0419,-1.0522,-1.0675,-1.0871,-1.0972,-1.1023,-1.1276,-1.1318,-1.1326,-1.1326,-1.1477,-1.1569,-1.1578,-1.1719,-1.1877,-1.2175,-1.1571,-1.0966,-1.0849,-1.0948,-1.1109,-1.1242,-1.1046,-1.0945,-1.102,-1.0696,0.0,-1.0428,-1.0183,-1.0097,-1.0144,-0.9757,-0.9106,-0.8088,-0.7657,-0.7685,-0.8205,-0.8215,-0.8755,-0.9808,-0.9808,-0.9829,-0.985,-0.7557,-0.6899,0.0,0.0,0.0,0.0,0.0,0.0,0.0,0.0,0.0,0.0,0.0,0.0,0.0,0.0,0.0,0.3286,0.2948,0.2505,0.2041,0.2172,0.2181,0.2034,0.111,0.0365,0.0152,-0.0616,-0.1162,-0.1317,-0.2105,-0.2663,-0.2976,-0.3675,-0.4525,-0.5535,-0.5613,-0.6079,-0.7096,-0.7096,-0.7249,-0.7403,-0.7403,0.0,-0.7403,-0.718,-0.7553,-0.8376,-0.8836,-0.9739,-1.0858,-1.1694,-1.2218,-1.2445,-1.2077,-1.215,-1.2432,-1.2462,-1.2255,-1.2002,-1.2101,-1.1589,-1.0857,-1.0842,-1.0547,-1.0265,-1.0514,-1.0667,0.0,-1.1074,-1.1124,-1.1175,-1.1226,-1.1326,-1.1427,-1.1427,-1.1528,-1.1628,-1.1628,-1.1819,-1.2026,-1.2126,-1.2323,-1.2569,-1.2813,-1.2297,-1.1978,-1.2243,-1.2091,-1.1998,-1.2116,-1.1929,-1.1606,-1.1122,-1.1003,-1.0845,-1.0564,-1.0502,-1.0423,-1.0364,-1.0084,-0.9799,-0.9574,-0.9541,-0.9562,-0.9606,-0.9606,-0.9659,-0.9808,-0.9808,-1.0043,-1.051,-0.9462,-0.892,0.0,0.0,0.0,0.0,0.0,0.0,0.0,0.0,0.0,0.0,0.0,0.3784,0.3777,0.0,0.2929,0.3014,0.2558,0.2086,0.1842,0.1382,0.1023,0.0957,0.0474,-0.0072,-0.0677,-0.1136,-0.1683,-0.2271,-0.2818,-0.3517,-0.445,-0.5068,-0.5844,-0.685,-0.6934,-0.7246,-0.7791,-0.7791,-0.7791,-0.7791,-0.7791,-0.8016,-0.8389,-0.8318,-0.8765,-0.9658,-1.004,-1.0783,-1.1755,-1.2813,-1.3339,-1.3477,-1.3404,-1.3258,-1.3193,-1.3419,-1.3359,-1.3167,-1.2984,-1.2281,-1.1441,-1.1272,-1.0864,-1.0522,-1.0718,-1.0922,-1.1124,-1.1326,-1.1427,-1.1427,-1.1628,-1.1769,-1.1828,-1.1977,-1.2076,-1.2175,-1.2175,-1.2372,-1.2618,-1.2696,-1.2852,-1.2997,-1.319,-1.289,-1.2696,-1.29,-1.2809,-1.2755,-1.2886,-1.2615,-1.2338,-1.2103,-1.1921,-1.1737,-1.1592,-1.1444,-1.1236,-1.0977,-1.0703,-1.0542,-1.0542,-1.0419,-1.0473,-1.0699,-1.0609,-1.0686,-1.0942,-1.0838,-1.1005,-1.1391,-1.0994,-1.0605,0.0,0.0,0.0,0.0,0.0,0.0,0.0,0.0,0.4925,0.4945,0.4693,0.4325,0.3876,0.3547,0.3162,0.2566,0.209,0.1734,0.1455,0.0616,-0.0114,-0.0421,-0.0255,-0.0473,-0.1429,-0.1652,-0.2125,-0.3229,-0.3621,-0.4479,-0.5999,-0.6542,-0.7165,-0.7859,-0.8286,-0.8539,-0.8539,-0.8693,-0.8765,-0.8765,-0.8727,-0.9099,-0.9813,-0.9737,-1.029,-1.1163,-1.1409,-1.1874,-1.2565,-1.355,-1.4072,-1.4346,-1.4346,-1.4209,-1.3928,-1.3935,-1.4145,-1.4268,-1.373,-1.3063,-1.2273,-1.1884,-1.1355,-1.0871,-1.1074,-1.1276,-1.1469,-1.1678,-1.1819,-1.1959,-1.2304,-1.2412,-1.2461,-1.2706,-1.2764,-1.2813,-1.2822,-1.3055,-1.3238,-1.3266,-1.3447,-1.3579,-1.3589,-1.3542,-1.3447,-1.3256,-1.3266,-1.3314,-1.3467,-1.3207,-1.3041,-1.3128,-1.288,-1.2754,-1.2732,-1.25,-1.2239,-1.1905,-1.1729,-1.1567,-1.143,-1.1194,-1.1192,-1.1526,-1.1388,-1.1546,-1.2113,-1.2059,-1.2105,-1.2275,-1.227,-1.1983,0.5239,0.6169,0.7136,0.7896,0.7166,0.657,0.0,0.0,0.5934,0.5306,0.5098,0.4665,0.358,0.3135,0.2717,0.2003,0.1842,0.1399,0.0168,-0.0,-0.045,-0.164,-0.132,-0.1212,-0.1621,-0.2035,-0.2771,-0.3792,-0.489,-0.5802,-0.6765,-0.748,-0.8021,-0.8322,-0.9339,-0.9979,-1.0135,-1.0844,-1.1236,-1.123,-1.0918,-1.1075,-1.1591,-1.1437,-1.2112,-1.3514,-1.4018,-1.4258,-1.4346,-1.4425,-1.4705,-1.5062,-1.5284,-1.5284,-1.5213,-1.4713,-1.4856,-1.5346,-1.5263,-1.4388,-1.3312,-1.3288,-1.2423,-1.1477,-1.1719,-1.1877,-1.2076,-1.248,-1.2852,-1.3218,-1.3389,-1.3532,-1.3637,-1.3637,-1.3399,-1.317,-1.3324,-1.3695,-1.3873,-1.361,-1.4329,-1.4869,-1.4457,-1.4468,-1.4283,-1.3505,-1.3467,-1.3621,-1.3716,-1.3826,-1.3729,-1.3305,-1.3432,-1.3488,-1.332,-1.3313,-1.3327,-1.3281,-1.3357,-1.3207,-1.272,-1.264,-1.2459,-1.2033,-1.1997,-1.202,-1.2113,-1.2686,-1.2881,-1.2827,-1.3321,-1.2918,0.6855,0.7405,0.7859,0.0,0.8152,0.7939,0.7554,0.6999,0.6289,0.5336,0.4912,0.4491,0.3512,0.2773,0.2127,0.0,0.1119,0.0392,-0.0224,-0.0896,-0.1511,-0.2235,-0.2463,-0.2628,-0.2728,-0.2872,-0.3459,-0.4825,-0.5688,-0.6705,-0.8025,-0.8341,-0.8985,-1.0187,-1.0279,-1.0707,-1.1557,-1.1725,-1.18,-1.1954,-1.1596,-1.1909,-1.2788,-1.2934,-1.3762,-1.5197,-1.5362,-1.5389,-1.5267,-1.5267,-1.5488,-1.57,-1.585,-1.6061,-1.6202,-1.5559,-1.5488,-1.5735,-1.5965,-1.5472,-1.462,-1.4115,-1.3535,-1.2824,-1.2287,-1.2461,-1.2939,-1.3266,-1.3684,-1.405,-1.3967,-1.392,-1.3873,-1.3742,-1.3552,-1.3552,-1.3956,-1.4283,-1.4514,-1.4732,-1.505,-1.5287,-1.5276,-1.5073,-1.4801,-1.4514,-1.4118,-1.3868,-1.3926,-1.4104,-1.4168,-1.4065,-1.435,-1.4327,-1.3788,-1.3913,-1.3914,-1.3638,-1.379,-1.3778,-1.3567,-1.3702,-1.3661,-1.3424,-1.3385,-1.3385,-1.3462,-1.3599,-1.3678,-1.3741,-1.401,-1.39,0.7609,0.0,0.0,0.8119,0.8393,0.8383,0.7215,0.6681,0.6178,0.5202,0.468,0.4073,0.3188,0.235,0.1623,0.1174,0.0336,-0.0449,-0.0952,-0.1734,-0.2514,-0.3065,-0.3511,-0.3863,-0.4107,-0.3887,-0.429,-0.5656,-0.6515,-0.7687,-0.914,-0.9378,-1.0187,-1.1762,-1.1594,-1.1879,-1.2955,-1.2909,-1.303,-1.334,-1.2955,-1.3422,-1.4424,-1.4797,-1.5431,-1.6343,-1.6232,-1.6194,-1.6044,-1.6044,-1.6263,-1.65,-1.6598,-1.6854,-1.7223,-1.6821,-1.6572,-1.6475,-1.6872,-1.6643,-1.612,-1.5369,-1.492,-1.4521,-1.3449,-1.3535,-1.4031,-1.3952,-1.4422,-1.4824,-1.4617,-1.4571,-1.4514,-1.4329,-1.4201,-1.4247,-1.4732,-1.505,-1.5276,-1.562,-1.5852,-1.5952,-1.5908,-1.5611,-1.54,-1.5365,-1.4766,-1.4291,-1.4233,-1.4466,-1.4651,-1.4846,-1.5062,-1.5004,-1.4547,-1.4688,-1.4623,-1.4315,-1.4458,-1.4482,-1.4327,-1.4546,-1.4594,-1.4447,-1.4408,-1.4408,-1.4447,-1.4502,-1.4534,-1.4599,-1.4853,-1.5011,0.0,0.0,0.8172,0.7936,0.7511,0.7184,0.7264,0.6455,0.5483,0.4835,0.434,0.3622,0.2293,0.1902,0.1399,0.0056,-0.028,-0.0896,-0.24,-0.2567,-0.301,-0.445,-0.434,-0.457,0.0,-0.5195,-0.522,-0.6108,-0.7545,-0.8746,-0.9735,-1.0912,-1.1768,-1.2343,-1.342,-1.4075,-1.4332,-1.5065,-1.5705,-1.6087,-1.5817,-1.6142,-1.7103,-1.7259,-1.7149,-1.6884,-1.6655,-1.6562,-1.6603,-1.676,-1.7116,-1.7508,-1.7906,-1.8057,-1.8105,-1.8711,-1.8533,-1.8114,-1.8521,-1.8266,-1.7697,-1.7349,-1.6886,-1.6356,-1.5504,-1.5392,-1.5434,-1.4633,-1.5142,-1.5856,-1.5478,-1.5688,-1.6015,-1.6027,-1.5688,-1.5433,-1.57,-1.6126,-1.633,-1.5947,-1.6714,-1.7173,-1.6244,-1.617,-1.6139,-1.5832,-1.5355,-1.5017,-1.4903,-1.5006,-1.5198,-1.5424,-1.5468,-1.5558,-1.5724,-1.5768,-1.5756,-1.5744,-1.5864,-1.5709,-1.5198,-1.5311,-1.5118,-1.459,-1.459,-1.459,-1.459,-1.5215,-1.5476,-1.5377,-1.6021,-1.6269,0.6894,0.0,0.7822,0.7732,0.7593,0.7278,0.6396,0.5873,0.5273,0.407,0.368,0.3289,0.2575,0.1512,0.0616,0.028,-0.1006,-0.2124,-0.2738,-0.3569,-0.4284,-0.4889,-0.5222,0.0,0.0,0.0,-0.578,-0.6753,-0.8251,-0.9687,-1.0837,-1.1851,-1.2989,-1.4504,-1.437,-1.4925,-1.6215,-1.6229,-1.6515,-1.7075,-1.7096,-1.7493,-1.8098,-1.8503,-1.8425,-1.8091,-1.8027,-1.7657,-1.7185,-1.7373,-1.7751,-1.8317,-1.8594,-1.9304,-2.0153,-2.0741,-2.1142,-2.1289,-2.0534,-2.0266,-2.006,-1.9212,-1.8912,-1.8617,-1.6894,-1.6385,-1.6383,-1.6182,-1.6345,-1.6522,-1.6095,-1.6083,-1.6225,-1.6064,-1.5864,-1.5884,-1.6355,-1.657,-1.674,-1.6938,-1.7256,-1.7434,-1.7186,-1.7005,-1.6808,-1.6565,-1.5724,-1.5153,-1.5277,-1.5322,-1.5379,-1.5468,-1.5603,-1.5659,-1.5603,-1.5703,-1.5836,-1.5913,-1.6001,-1.5959,-1.5887,-1.6003,-1.6001,-1.5815,-1.5844,-1.5844,-1.5803,-1.6031,-1.6046,-1.593,-1.6232,-1.6318,0.656,0.6832,0.6883,0.6726,0.6627,0.6298,0.5437,0.4999,0.4546,0.3523,0.3182,0.2898,0.2327,0.1241,0.0271,-0.0219,-0.1591,-0.2811,-0.3229,-0.4125,-0.4952,-0.5445,-0.6115,-0.6608,0.0,0.0,0.0,-0.7139,-0.9094,-1.0738,-1.1713,-1.3042,-1.4504,-1.6067,-1.5655,-1.5998,-1.7383,-1.7136,-1.7338,-1.8066,-1.8293,-1.8605,-1.9012,-1.9201,-1.9116,-1.8839,-1.8676,-1.8299,-1.7813,-1.8408,-1.8912,-1.9363,-2.0139,-2.0994,-2.1881,-2.2568,-2.3165,-2.3427,-2.2495,-2.2299,-2.2336,-2.1521,-2.1121,-2.0664,-1.8931,-1.8142,-1.7688,-1.721,-1.7207,-1.7205,-1.659,-1.6582,-1.671,-1.6582,-1.6514,-1.6574,-1.7005,-1.7102,-1.7227,-1.7693,-1.7693,-1.7666,-1.7706,-1.7378,-1.7044,-1.6918,-1.625,-1.5812,-1.6001,-1.5856,-1.5812,-1.5812,-1.578,-1.5748,-1.5603,-1.5748,-1.5836,-1.5913,-1.6001,-1.6088,-1.62,-1.6362,-1.6436,-1.6436,-1.6479,-1.6479,-1.6436,-1.6436,-1.6392,-1.6318,-1.6392,-1.6392,0.5845,0.5591,0.5427,0.5175,0.4783,0.4519,0.446,0.3904,0.3372,0.3202,0.2913,0.2357,0.0,0.0,0.0203,-0.1268,-0.213,-0.2962,-0.3935,-0.4408,-0.5026,0.0,0.0,0.0,0.0,0.0,0.0,-0.7589,-1.018,-1.1933,-1.2316,-1.4456,-1.6147,-1.7131,-1.7139,-1.7465,-1.804,-1.804,-1.8442,-1.9082,-1.9478,-1.9715,-1.9932,-1.9544,-1.9287,-1.9087,-1.8877,-1.8666,-1.863,-1.998,-2.0511,-2.0755,-2.2453,-2.3176,-2.3326,-2.4176,-2.4506,-2.4506,-2.4362,-2.4362,-2.4413,-2.4068,-2.335,-2.2369,-2.1441,-2.0424,-1.9291,-1.7748,-1.7766,-1.7991,-1.6991,-1.7131,-1.7516,-1.7516,-1.7516,-1.757,-1.772,-1.772,-1.7801,-1.8123,-1.8043,-1.7868,-1.776,-1.7323,-1.696,-1.696,-1.696,-1.696,-1.6876,-1.6552,-1.6312,-1.6269,-1.6001,-1.5836,-1.5792,-1.5836,-1.5836,-1.5836,-1.6069,-1.62,-1.6244,-1.6392,-1.6522,-1.6522,-1.6522,-1.6522,-1.6522,-1.6522,-1.6522,-1.6522,-1.6522,-1.6522,0.4617,0.4843,0.5062,0.4995,0.4736,0.4405,0.4073,0.3615,0.3146,0.2882,0.2451,0.1941,0.0,0.0,0.0,-0.188,-0.3345,0.0,-0.5042,-0.5896,0.0,-0.7605,0.0,-0.8509,-0.8965,-0.959,0.0,-1.0856,-1.2101,-1.3192,-1.3958,-1.6177,-1.7535,-1.7789,-1.7789,-1.804,-1.8531,-1.9002,-1.932,-1.9706,-1.9951,-2.0264,-2.0401,-2.0469,-2.0697,-2.1042,-2.0917,-2.103,-2.1281,-2.1891,-2.2366,-2.2798,-2.3456,-2.434,-2.5187,-2.5554,-2.6045,-2.6539,-2.6595,-2.6089,-2.542,-2.5161,-2.4389,-2.3301,-2.2502,-2.1105,-1.9738,-1.8957,-1.8552,-1.8206,-1.7497,-1.7488,-1.7638,-1.7638,-1.772,-1.7828,-1.8043,-1.7963,-1.7922,-1.8163,-1.8163,-1.8109,-1.8069,-1.8069,-1.8109,-1.8109,-1.8109,-1.7733,-1.6735,-1.6509,-1.6337,-1.612,-1.61,-1.6057,-1.5957,-1.6057,-1.6144,-1.6219,-1.6318,-1.6362,-1.6436,-1.6479,-1.6522,-1.6522,-1.6522,-1.6522,-1.6522,-1.6522,-1.6522,-1.6522,-1.6522,-1.6522,0.3934,0.4066,0.4184,0.4073,0.3741,0.3434,0.3171,0.2897,0.2638,0.2366,0.2271,0.0,0.1747,-0.0529,0.0,0.0,0.0,0.0,-0.5475,-0.6332,-0.7265,0.0,-0.8777,0.0,-1.0251,-1.1219,-1.2149,-1.3178,-1.3679,-1.4372,-1.5396,-1.7184,-1.8193,-1.8434,-1.8514,-1.8754,-1.924,-1.9715,-2.0029,-2.0177,-2.0411,-2.0644,-2.0886,-2.0974,-2.1388,-2.1937,-2.1876,-2.2176,-2.2763,-2.3458,-2.3946,-2.43,-2.5159,-2.5853,-2.6471,-2.6688,-2.704,-2.7523,-2.759,-2.7297,-2.6777,-2.6544,-2.5772,-2.4741,-2.3768,-2.2419,-2.0934,-1.9674,-1.9092,-1.8682,-1.7797,-1.7747,-1.7922,-1.7922,-1.8043,-1.8202,-1.8321,-1.8242,-1.8202,-1.8321,-1.8386,-1.8425,-1.8361,-1.8439,-1.8517,-1.8517,-1.8517,-1.8095,-1.706,-1.6879,-1.6667,-1.625,-1.6231,-1.6156,-1.6088,-1.6144,-1.6244,-1.6318,-1.6362,-1.6436,-1.6436,-1.6479,-1.6522,-1.6522,-1.6522,-1.6522,-1.6522,-1.6522,-1.6522,-1.6522,-1.6522,-1.6522,0.3519,0.3411,0.3249,0.2916,0.2521,0.2201,0.2203,0.2153,0.2051,0.1937,0.0,0.2319,0.1921,-0.0852,-0.3691,-0.5632,0.0,-0.5362,-0.5675,-0.6495,-0.7378,-0.8415,-0.9519,-1.0657,-1.1659,-1.2913,-1.402,-1.4827,-1.5121,-1.5649,-1.659,-1.7821,-1.8665,-1.9082,-1.9311,-1.9539,-2.002,-2.0177,-2.0411,-2.0644,-2.0876,-2.1031,-2.1282,-2.1349,-2.1859,-2.2601,-2.2562,-2.3015,-2.3862,-2.4805,-2.5339,-2.5615,-2.686,-2.7335,-2.7403,-2.7523,-2.7656,-2.7855,-2.7855,-2.7987,-2.8131,-2.7921,-2.7125,-2.6081,-2.498,-2.3779,-2.235,-2.0047,-1.9481,-1.9287,-1.8112,-1.8003,-1.8242,-1.8242,-1.8361,-1.8517,-1.8542,-1.8556,-1.8517,-1.8517,-1.8644,-1.8745,-1.8581,-1.8542,-1.8595,-1.8595,-1.8595,-1.8333,-1.7598,-1.7407,-1.7118,-1.6637,-1.6362,-1.6275,-1.6318,-1.6275,-1.6231,-1.6231,-1.6362,-1.6392,-1.6392,-1.6479,-1.6522,-1.6522,-1.6522,-1.6522,-1.6522,-1.6522,-1.6522,-1.6522,-1.6522,-1.6522,0.2856,0.2856,0.2747,0.2408,0.224,0.2201,0.2106,0.2019,0.0,0.0,0.1845,0.0941,0.0126,-0.1633,-0.3303,-0.4457,0.0,0.0,0.0,0.0,-0.8745,0.0,0.0,0.0,-1.3014,-1.3975,0.0,-1.5998,-1.6929,-1.7394,-1.7397,-1.8679,-1.9478,-1.9706,-1.9784,-2.002,-2.0489,-2.0489,-2.0731,-2.1128,-2.1128,-2.1359,-2.1731,-2.236,-2.3187,-2.4352,-2.4908,-2.5571,-2.6367,-2.6726,-2.6912,-2.6992,-2.7364,-2.759,-2.7723,-2.7723,-2.7868,-2.8079,-2.8079,-2.8314,-2.8624,-2.8197,-2.728,-2.6081,-2.5083,-2.3944,-2.2544,-2.0448,-1.991,-1.9679,-1.8641,-1.84,-1.8439,-1.8439,-1.8478,-1.8556,-1.8721,-1.876,-1.8683,-1.8517,-1.8644,-1.8784,-1.8745,-1.8874,-1.8988,-1.8988,-1.8988,-1.8669,-1.7787,-1.7557,-1.7338,-1.6951,-1.6637,-1.6552,-1.6837,-1.6595,-1.6436,-1.6436,-1.6479,-1.6479,-1.6479,-1.662,-1.6675,-1.6675,-1.6675,-1.6675,-1.6675,-1.6565,-1.6522,-1.6522,-1.6522,-1.6522,0.2465,0.2465,0.2352,0.2071,0.2046,0.2081,0.1799,0.0,0.0,0.0,0.0798,0.0086,-0.0669,0.0,0.0,0.0,0.0,0.0,0.0,0.0,0.0,0.0,0.0,0.0,0.0,-1.5009,-1.607,-1.6941,-1.8175,-1.8877,-1.8656,-1.95,-2.0029,-2.0255,-2.0342,-2.0508,-2.0741,-2.1395,-2.1766,-2.2004,-2.2446,-2.2883,-2.318,-2.3526,-2.4325,-2.5417,-2.5685,-2.6333,-2.7268,-2.7268,-2.7335,-2.7403,-2.759,-2.7723,-2.7776,-2.7934,-2.8183,-2.843,-2.843,-2.8688,-2.8958,-2.8908,-2.8384,-2.7563,-2.6471,-2.5256,-2.3794,-2.1782,-2.0703,-1.9922,-1.8787,-1.8581,-1.8644,-1.8644,-1.8736,-1.8851,-1.895,-1.895,-1.895,-1.8851,-1.8874,-1.895,-1.895,-1.9026,-1.9101,-1.9101,-1.9101,-1.886,-1.8187,-1.8068,-1.7747,-1.7076,-1.7089,-1.7256,-1.7407,-1.7102,-1.6863,-1.6863,-1.665,-1.6522,-1.6522,-1.6565,-1.662,-1.662,-1.662,-1.662,-1.662,-1.6522,-1.6522,-1.6522,-1.6522,-1.6522,0.2127,0.2127,0.2127,0.1792,0.1913,0.1918,0.1383,0.0791,0.0,0.0,-0.0165,-0.0469,-0.0961,0.0,0.0,0.0,0.0,0.0,0.0,0.0,0.0,0.0,0.0,0.0,-1.4195,-1.5889,0.0,-1.747,-1.9004,-1.9951,-1.9803,-2.0333,-2.0644,-2.0654,-2.0896,-2.1051,-2.1272,-2.222,-2.2798,-2.3095,-2.3829,-2.4253,-2.4552,-2.4696,-2.5264,-2.6195,-2.6183,-2.6676,-2.7456,-2.7403,-2.7403,-2.759,-2.7723,-2.7842,-2.7908,-2.8197,-2.8509,-2.8867,-2.8931,-2.9135,-2.9352,-2.954,-2.9352,-2.8864,-2.7742,-2.6521,-2.5051,-2.2963,-2.1389,-2.0119,-1.8945,-1.876,-1.886,-1.886,-1.8988,-1.9101,-1.9101,-1.9101,-1.9101,-1.9101,-1.9101,-1.9101,-1.9101,-1.9101,-1.9101,-1.9101,-1.9101,-1.8936,-1.8553,-1.8592,-1.8305,-1.7394,-1.7625,-1.7828,-1.7948,-1.7475,-1.724,-1.7323,-1.6808,-1.6565,-1.665,-1.6565,-1.6522,-1.6522,-1.6565,-1.6607,-1.6607,-1.6607,-1.6607,-1.6607,-1.6565,-1.6522,0.1846,0.1959,0.2015,0.1626,0.1696,0.1659,0.1063,0.0,0.0,-0.0264,-0.0557,-0.079,-0.0887,-0.1308,0.0,0.0,0.0,-0.5137,0.0,0.0,0.0,0.0,0.0,0.0,-1.4573,-1.6346,-1.747,-1.747,-1.9238,-2.0264,-2.0264,-2.1165,-2.1395,-2.0906,-2.1061,-2.1645,-2.251,-2.266,-2.3243,-2.4264,-2.4337,-2.4541,-2.4969,-2.5615,-2.6126,-2.6414,-2.704,-2.739,-2.7523,-2.7456,-2.759,-2.7776,-2.7776,-2.7973,-2.8287,-2.861,-2.8881,-2.9099,-2.9415,-2.9741,-2.9988,-2.9665,-2.9352,-2.8927,-2.804,-2.6863,-2.5388,-2.3174,-2.1655,-2.0398,-1.932,-1.9064,-1.9064,-1.9064,-1.9101,-1.9101,-1.9101,-1.9101,-1.9101,-1.9101,-1.9101,-1.9101,-1.9101,-1.9101,-1.9101,-1.9101,-1.9101,-1.8936,-1.8553,-1.8822,-1.886,-1.8422,-1.8028,-1.7948,-1.8383,-1.7679,-1.7352,-1.772,-1.6976,-1.6693,-1.7115,-1.6833,-1.6675,-1.6675,-1.6791,-1.6876,-1.6876,-1.6876,-1.6876,-1.6876,-1.6761,-1.6675,0.1449,0.1625,0.1626,0.1234,0.1238,0.1058,0.0046,0.0,-0.0603,-0.1044,-0.1051,-0.1015,-0.1167,-0.1439,-0.1825,0.0,0.0,0.0,0.0,0.0,0.0,0.0,-1.1882,0.0,0.0,0.0,-1.8557,-2.0318,-2.1997,-2.2713,-2.2264,-2.1624,-2.1634,-2.2435,-2.222,-2.2585,-2.3526,-2.4108,-2.4684,-2.5252,-2.5709,-2.6126,-2.6402,-2.6701,-2.6905,-2.7121,-2.7523,-2.7656,-2.7723,-2.7802,-2.7934,-2.8,-2.83,-2.8481,-2.8675,-2.9135,-2.9477,-2.9741,-2.9865,-2.9988,-3.0111,-3.0158,-2.9974,-2.9642,-2.9256,-2.828,-2.6901,-2.5056,-2.3317,-2.1672,-2.0092,-1.9406,-1.9101,-1.9101,-1.9101,-1.9101,-1.9101,-1.9101,-1.9101,-1.9101,-1.9101,-1.9101,-1.9101,-1.9101,-1.9101,-1.9101,-1.9101,-1.9026,-1.886,-1.8988,-1.9026,-1.886,-1.8707,-1.8669,-1.886,-1.8305,-1.7908,-1.7787,-1.7284,-1.6964,-1.6876,-1.6846,-1.6803,-1.6803,-1.6876,-1.6846,-1.6761,-1.6761,-1.6748,-1.665,-1.6675,-1.6675,0.0985,0.1113,0.1122,0.0954,0.0532,-0.0099,0.0,-0.1365,-0.1335,-0.1556,-0.1375,-0.123,-0.1366,-0.1622,-0.1882,0.0,0.0,-0.3428,0.0,0.0,0.0,0.0,0.0,-1.3004,-1.4213,-1.6898,-1.973,-2.2509,-2.3745,-2.4337,-2.4264,-2.266,-2.222,-2.3231,-2.3169,-2.3463,-2.4192,-2.5122,-2.5836,-2.6252,-2.685,-2.7214,-2.7335,-2.7335,-2.7403,-2.7523,-2.7723,-2.7776,-2.7855,-2.8013,-2.821,-2.8327,-2.8675,-2.8867,-2.9071,-2.9602,-2.9927,-3.0111,-3.0233,-3.0233,-3.0294,-3.0507,-3.0462,-3.0233,-3.0233,-2.933,-2.7981,-2.6278,-2.4007,-2.17,-2.0204,-1.9449,-1.9101,-1.9101,-1.9139,-1.9139,-1.9139,-1.9139,-1.9139,-1.9139,-1.9139,-1.9101,-1.9101,-1.9101,-1.9101,-1.9101,-1.9101,-1.9101,-1.9101,-1.9101,-1.9101,-1.9101,-1.9101,-1.9101,-1.9101,-1.8745,-1.8344,-1.8028,-1.753,-1.7131,-1.6905,-1.6833,-1.6846,-1.6876,-1.6876,-1.6846,-1.6803,-1.6803,-1.6748,-1.6735,-1.6748,-1.6761,0.0422,0.0382,0.0393,0.0785,-0.0426,-0.193,0.0,-0.2265,-0.1821,-0.1642,-0.1502,-0.1388,-0.141,-0.172,-0.2037,-0.2187,0.0,0.0,-0.5134,0.0,0.0,0.0,0.0,-1.2547,-1.3725,-1.7368,-2.0725,-2.3296,-2.3514,-2.4264,-2.6062,-2.4636,-2.3452,-2.2734,-2.3599,-2.4192,-2.4409,-2.5205,-2.6195,-2.7268,-2.7268,-2.7403,-2.7523,-2.7523,-2.7523,-2.7523,-2.7723,-2.7776,-2.7855,-2.8013,-2.8379,-2.8803,-2.8803,-2.9135,-2.9602,-2.9988,-3.0111,-3.0172,-3.0462,-3.0568,-3.0582,-3.0568,-3.0568,-3.0568,-3.0568,-2.9697,-2.8274,-2.6329,-2.3049,-1.9972,-1.929,-1.9101,-1.9101,-1.9101,-1.9176,-1.9302,-1.9302,-1.9302,-1.9302,-1.9302,-1.9176,-1.9101,-1.9101,-1.9101,-1.9101,-1.9101,-1.9101,-1.9101,-1.9101,-1.9101,-1.9101,-1.9101,-1.9101,-1.9101,-1.9101,-1.8745,-1.85,-1.85,-1.7679,-1.7227,-1.7312,-1.6905,-1.6761,-1.6876,-1.6876,-1.6918,-1.7002,-1.7002,-1.7086,-1.7199,-1.7086,-1.696,0.0226,0.023,0.0185,-0.0045,-0.0785,-0.1587,-0.2168,-0.2023,-0.1772,-0.1851,-0.1756,-0.1673,-0.1673,-0.1776,-0.2029,-0.2591,-0.2913,0.0,0.0,0.0,0.0,-0.9864,-1.2563,-1.5256,-1.7812,-1.9679,-2.1818,-2.4554,-2.5346,-2.5931,-2.6521,-2.622,-2.5849,-2.5487,-2.5193,-2.5557,-2.6333,-2.662,-2.6985,-2.7469,-2.7469,-2.7469,-2.7523,-2.7656,-2.7723,-2.7723,-2.8039,-2.8157,-2.817,-2.8587,-2.8844,-2.9022,-2.9526,-2.9789,-2.9988,-3.0341,-3.0462,-3.0462,-3.0568,-3.0568,-3.0568,-3.0568,-3.0568,-3.0568,-3.0568,-3.0292,-2.945,-2.668,-2.3491,-2.0677,-2.0007,-1.9549,-1.9228,-1.9228,-1.9176,-1.9176,-1.9302,-1.9228,-1.9139,-1.9139,-1.9139,-1.9101,-1.9101,-1.9101,-1.9101,-1.9101,-1.9101,-1.9101,-1.9101,-1.9101,-1.9101,-1.9101,-1.9101,-1.9101,-1.9101,-1.8988,-1.8784,-1.85,-1.8028,-1.7625,-1.7462,-1.7073,-1.696,-1.7115,-1.7002,-1.7157,-1.7475,-1.7002,-1.7002,-1.7393,-1.7352,-1.7393,0.0,-0.0,-0.0041,-0.0435,-0.1005,-0.1528,-0.1848,-0.1892,-0.19,-0.1982,-0.1889,-0.1803,-0.1828,-0.1945,-0.2175,-0.2664,-0.3082,0.0,0.0,0.0,0.0,-1.1177,0.0,0.0,-1.9698,-2.1049,-2.2733,-2.5202,-2.6289,-2.6794,-2.6794,-2.6943,-2.7011,-2.693,-2.6427,-2.6346,-2.6837,-2.7121,-2.7403,-2.7523,-2.7523,-2.7523,-2.759,-2.7723,-2.7855,-2.7921,-2.8287,-2.8481,0.0,-2.9085,-2.9352,-2.954,-2.9927,-3.0172,-3.028,-3.0507,-3.0568,-3.0568,-3.0568,-3.0568,-3.0568,-3.0568,-3.0642,-3.0702,-3.0702,-3.0352,-2.9391,-2.6769,-2.4048,-2.1679,-2.0523,-1.9733,-1.9302,-1.9302,-1.9265,-1.9228,-1.9339,-1.9265,-1.9176,-1.9176,-1.9176,-1.9176,-1.9176,-1.9176,-1.9213,-1.9213,-1.9213,-1.9213,-1.9213,-1.9213,-1.9213,-1.9213,-1.9213,-1.9213,-1.9213,-1.9139,-1.895,-1.863,-1.8383,-1.8108,-1.7787,-1.7598,-1.7557,-1.7679,-1.7557,-1.7679,-1.7988,-1.7393,-1.7199,-1.7393,-1.7393,-1.7434,0.0,-0.0368,-0.0268,-0.0419,-0.1067,-0.1682,-0.1623,-0.19,0.0,-0.2,-0.1879,-0.1839,-0.1941,-0.2218,-0.2456,-0.2599,-0.3453,-0.459,0.0,-0.7605,0.0,0.0,-1.4775,-1.6708,-1.9806,-2.1556,-2.3374,-2.5538,-2.6508,-2.7024,-2.7024,-2.7024,-2.7146,-2.7335,-2.7146,-2.6782,-2.6195,-2.6918,-2.7403,-2.7523,-2.7523,-2.7656,-2.7855,-2.7842,-2.7921,-2.8197,-2.8624,-2.8867,-2.8931,-2.9401,-2.9803,-3.0111,-3.0111,-3.0355,-3.0568,-3.0568,-3.0568,-3.0568,-3.0568,-3.0628,-3.0642,-3.0642,-3.0702,-3.0821,-3.0821,-2.9914,-2.8536,-2.6645,-2.4696,-2.2746,-2.0812,-1.9815,-1.9302,-1.9339,-1.9376,-1.9376,-1.9413,-1.9339,-1.9302,-1.9302,-1.9302,-1.9302,-1.9302,-1.9376,-1.9413,-1.9413,-1.9413,-1.9413,-1.9413,-1.9413,-1.9413,-1.9376,-1.9413,-1.9413,-1.9413,-1.9228,-1.9026,-1.886,-1.8707,-1.8539,-1.8344,-1.8305,-1.8344,-1.85,-1.8383,-1.8344,-1.8422,-1.8028,-1.7639,-1.724,-1.7282,-1.7282,-0.043,0.0,-0.0508,-0.0854,-0.1218,-0.1531,0.0,-0.1903,-0.2021,0.0,0.0,0.0,-0.2432,-0.2564,-0.2887,-0.3663,-0.4478,-0.5603,-0.7286,0.0,0.0,-1.4438,-1.632,-1.8487,-2.0834,-2.2103,-2.3854,-2.6481,-2.6998,-2.7214,-2.7214,-2.7335,-2.7403,-2.7469,-2.7403,-2.7323,-2.7175,-2.739,-2.7523,-2.7723,-2.7723,-2.7855,-2.8,-2.8118,-2.8352,-2.8624,-2.8894,-2.9149,-2.9463,-2.9789,-3.005,-3.0111,-3.0401,-3.0522,-3.0568,-3.0568,-3.0568,-3.0568,-3.0568,-3.0702,-3.0762,-3.0955,-3.0895,-3.0821,-3.0955,-3.0087,-2.8788,-2.738,-2.521,-2.2951,-2.1547,-2.0283,-1.9413,-1.9501,-1.9413,-1.9339,-1.9376,-1.9265,-1.9176,-1.9302,-1.9302,-1.9339,-1.9376,-1.9376,-1.9413,-1.9413,-1.9413,-1.9413,-1.9413,-1.9413,-1.9376,-1.9339,-1.9376,-1.9413,-1.9413,-1.9376,-1.9302,-1.9265,-1.8936,-1.8769,-1.8741,-1.8447,-1.8344,-1.85,-1.8461,-1.8226,-1.776,-1.8028,-1.7988,-1.7598,-1.7908,-1.8108,-0.0405,-0.0612,-0.0868,-0.1083,-0.1387,-0.1674,-0.1859,0.0,0.0,0.0,0.0,0.0,0.0,0.0,0.0,0.0,-0.6167,0.0,0.0,0.0,-1.4568,-1.5566,-1.7145,-1.9324,-2.2153,-2.298,-2.4353,-2.6966,-2.7268,-2.7403,-2.7403,-2.7469,-2.7523,-2.7523,-2.7523,-2.7523,-2.7523,-2.7523,-2.759,-2.7776,-2.7776,-2.7921,-2.8183,-2.843,-2.8675,-2.8944,-2.9352,-2.9665,-2.9865,-3.0158,-3.0341,-3.0341,-3.0522,-3.0568,-3.0568,-3.0568,-3.0642,-3.0702,-3.0702,-3.0821,-3.0955,-3.0955,-3.0999,-3.1058,-3.119,-3.0745,-2.9766,-2.7906,-2.609,-2.4252,-2.2058,-2.0724,-1.9842,-1.9649,-1.9538,-1.9465,-1.9501,-1.9376,-1.9265,-1.9339,-1.9413,-1.9465,-1.9501,-1.9523,-1.956,-1.956,-1.9523,-1.9487,-1.9508,-1.9523,-1.9487,-1.9472,-1.9523,-1.956,-1.956,-1.956,-1.956,-1.956,-1.9288,-1.9199,-1.9244,-1.9072,-1.8959,-1.9035,-1.9035,-1.8769,-1.8226,-1.8539,-1.8461,-1.8068,-1.8305,-1.8422,-0.0509,-0.0962,-0.1374,-0.1276,-0.1622,-0.2007,-0.2072,0.0,0.0,0.0,0.0,0.0,0.0,0.0,0.0,0.0,0.0,0.0,-1.1958,-1.3319,-1.4809,-1.6608,-1.7781,-1.978,-2.3149,-2.3734,-2.4858,-2.7167,-2.7469,-2.7497,-2.7406,-2.7484,-2.7484,-2.7406,-2.7484,-2.7523,-2.7523,-2.7523,-2.7656,-2.7855,-2.7908,-2.8105,-2.8417,-2.8739,-2.9071,-2.9289,-2.9865,-3.0111,-3.0172,-3.0462,-3.0568,-3.0568,-3.0568,-3.0628,-3.0642,-3.0642,-3.0702,-3.0821,-3.0821,-3.0955,-3.1087,-3.0955,-3.1117,-3.1278,-3.1351,-3.1409,-3.0974,-2.8434,-2.714,-2.5741,-2.2542,-2.1164,-2.0525,-2.0042,-1.9834,-1.9723,-1.9723,-1.9561,-1.9413,-1.9413,-1.9538,-1.9611,-1.9611,-1.9669,-1.969,-1.969,-1.9632,-1.9647,-1.969,-1.9722,-1.976,-1.9803,-1.9803,-1.9839,-1.9824,-1.9839,-1.9839,-1.9839,-1.9692,-1.9632,-1.969,-1.969,-1.969,-1.969,-1.9654,-1.9435,-1.9101,-1.9026,-1.8822,-1.85,-1.8553,-1.8592,-0.1021,-0.1666,-0.2105,-0.1572,-0.1921,-0.2414,-0.2426,0.0,0.0,0.0,0.0,0.0,0.0,0.0,-0.6233,0.0,0.0,-1.1217,0.0,0.0,-1.6815,-1.7396,-1.9041,-2.0838,-2.2742,-2.3603,-2.5005,-2.73,-2.7456,-2.7314,-2.6831,-2.7262,-2.7301,-2.6817,-2.7275,-2.759,-2.7789,-2.7789,-2.7855,-2.8079,-2.843,-2.8753,-2.8972,-2.9338,-2.9665,-2.9927,-3.005,-3.0294,-3.0522,-3.0582,-3.0568,-3.0568,-3.0568,-3.0702,-3.0762,-3.0762,-3.0762,-3.0821,-3.1014,-3.1087,-3.1132,-3.1307,-3.1351,-3.1351,-3.1409,-3.1467,-3.1168,-2.9699,-2.7942,-2.5893,-2.3193,-2.1876,-2.1292,-2.1371,-2.0792,-2.0315,-2.0362,-1.9871,-1.9413,-1.9538,-1.9574,-1.9611,-1.9654,-1.969,-1.969,-1.969,-1.969,-1.9654,-1.9611,-2.005,-2.0353,-2.0315,-2.0353,-2.0376,-2.0385,-2.049,-2.0557,-2.0557,-2.0004,-1.969,-1.969,-1.969,-1.969,-1.969,-1.9362,-1.9176,-1.9101,-1.8745,-1.8553,-1.85,-1.886,-1.9026,-0.1001,-0.1627,-0.2223,-0.2545,-0.3114,-0.3711,-0.4269,0.0,0.0,0.0,0.0,0.0,0.0,0.0,-0.8988,-1.0901,0.0,-1.2359,-1.4541,-1.5471,-1.6491,-1.7897,-1.9129,-2.0825,-2.3242,-2.3567,-2.4583,-2.6896,-2.6778,-2.6491,-2.6229,-2.6529,-2.6606,-2.6343,-2.6656,-2.7075,-2.7457,-2.7702,-2.8042,-2.8495,-2.8675,-2.9008,-2.9352,-2.9741,-2.9927,-3.0111,-3.028,-3.0462,-3.0568,-3.0568,-3.0642,-3.0702,-3.0702,-3.0762,-3.0821,-3.0895,-3.0955,-3.1014,-3.1132,-3.1249,-3.1307,-3.1351,-3.1409,-3.1409,-3.1467,-3.1482,-3.1255,-2.9953,-2.8397,-2.6568,-2.4328,-2.2897,-2.2021,-2.1744,-2.1376,-2.1114,-2.1138,-2.0861,-2.0563,-2.0258,-2.0467,-2.0482,-1.9752,-2.0266,-2.0609,-2.0139,-2.0414,-2.0652,-2.0537,-2.0803,-2.1035,-2.0981,-2.1074,-2.1153,-2.1138,-2.1192,-2.1246,-2.1246,-2.0946,-2.0767,-2.0767,-2.0767,-2.0602,-2.0243,-2.0057,-1.9804,-1.942,-1.9602,-1.9511,-1.9161,-1.9729,-1.9775,-0.1076,-0.1619,-0.2307,-0.3473,0.0,-0.4686,-0.5987,0.0,0.0,0.0,0.0,0.0,0.0,-0.9813,0.0,-1.3351,-1.3185,-1.346,-1.5285,-1.5582,-1.6379,-1.8573,-1.9282,-2.0762,-2.3636,-2.3485,-2.4125,-2.6308,-2.6073,-2.5759,-2.569,-2.5932,-2.5994,-2.5862,-2.6166,-2.6583,-2.7113,-2.7523,-2.7995,-2.8598,-2.8787,-2.9031,-2.929,-2.9765,-3.0004,-3.0018,-3.0389,-3.0568,-3.0568,-3.0568,-3.0642,-3.0762,-3.0762,-3.0821,-3.0895,-3.1014,-3.1146,-3.119,-3.1292,-3.1409,-3.1467,-3.1409,-3.1409,-3.1482,-3.1482,-3.1482,-3.133,-3.0313,-2.8846,-2.7156,-2.533,-2.3879,-2.2772,-2.2263,-2.2024,-2.1879,-2.1919,-2.1799,-2.1545,-2.1036,-2.135,-2.138,-2.0288,-2.0983,-2.1476,-2.0813,-2.1208,-2.152,-2.1344,-2.1558,-2.1743,-2.1743,-2.1839,-2.1879,-2.1919,-2.1919,-2.1979,-2.2143,-2.1859,-2.1695,-2.1695,-2.1695,-2.1455,-2.0961,-2.0946,-2.0677,-2.0154,-2.0677,-2.0677,-2.0168,-2.0707,-2.0662,-0.1646,-0.2129,-0.2732,-0.3942,0.0,0.0,-0.6567,-0.6699,0.0,-0.8203,0.0,0.0,0.0,-1.0877,-1.1929,-1.2134,-1.31,-1.4439,-1.6337,-1.7039,-1.7897,-1.9529,-2.0247,-2.129,-2.3106,-2.325,-2.3955,-2.5746,-2.5962,-2.5761,-2.5295,-2.5879,-2.6054,-2.5449,-2.6014,-2.6553,-2.7018,-2.7078,-2.7393,-2.7947,-2.8717,-2.8838,-2.8354,-2.9247,-2.9638,-2.9667,-3.0321,-3.0568,-3.0568,-3.0568,-3.0628,-3.0628,-3.0628,-3.0821,-3.1087,-3.1087,-3.1249,-3.1467,-3.1351,-3.1409,-3.1482,-3.1482,-3.1482,-3.1482,-3.1482,-3.1482,-3.1452,-3.1362,-2.9549,-2.726,-2.5899,-2.4462,-2.3463,-2.3475,-2.2927,-2.2468,-2.2607,-2.2128,-2.168,-2.1635,-2.1665,-2.1665,-2.1575,-2.1635,-2.168,-2.1635,-2.1665,-2.1655,-2.152,-2.2055,-2.2426,-2.2426,-2.2426,-2.2509,-2.2607,-2.2649,-2.2847,-2.343,-2.2353,-2.1695,-2.1695,-2.1695,-2.168,-2.162,-2.162,-2.1605,-2.156,-2.1605,-2.1605,-2.156,-2.1605,-2.1605,-0.1469,-0.2733,-0.3997,-0.4285,0.0,0.0,0.0,0.0,0.0,-1.0191,-1.0801,0.0,0.0,0.0,-1.4249,-1.3856,-1.4699,-1.5754,-1.6855,-1.7193,-1.7747,-1.8952,-2.0038,-2.1249,-2.2583,-2.3139,-2.3927,-2.5306,-2.5249,-2.5063,-2.4851,-2.5154,-2.5343,-2.5287,-2.5632,-2.6164,-2.687,-2.7101,-2.7284,-2.7465,-2.8195,-2.8555,-2.8511,-2.8871,-2.9029,-2.9044,-2.929,-2.9624,-2.9987,-3.0105,-3.0411,-3.0762,-3.0895,-3.1073,-3.1234,-3.161,-3.1766,-3.1879,-3.1951,-3.2007,-3.2023,-3.164,-3.1482,-3.1482,-3.1482,-3.1482,-3.1482,-3.1482,-3.0223,-2.8517,-2.7171,-2.5226,-2.3566,-2.3595,-2.3372,-2.3208,-2.3251,-2.3056,-2.2772,-2.2383,-2.2622,-2.2581,-2.1749,-2.2312,-2.27,-2.2132,-2.2539,-2.2835,-2.2638,-2.2974,-2.3165,-2.3137,-2.3165,-2.3193,-2.3251,-2.3251,-2.3355,-2.3595,-2.3146,-2.2877,-2.2877,-2.2877,-2.2697,-2.2308,-2.2308,-2.2099,-2.1695,-2.2099,-2.2099,-2.171,-2.2113,-2.2084,-0.1906,-0.3345,-0.4808,0.0,0.0,0.0,0.0,0.0,0.0,-1.202,-1.2276,0.0,-1.3178,0.0,0.0,-1.4869,-1.5688,-1.6504,-1.6903,-1.7147,-1.7579,-1.8429,-1.9791,-2.1092,-2.2088,-2.2971,-2.394,-2.4905,-2.4789,-2.4677,-2.4778,-2.4962,-2.5131,-2.5397,-2.5522,-2.5939,-2.6623,-2.6844,-2.7023,-2.7092,-2.7523,-2.7905,-2.8086,-2.8289,-2.8376,-2.839,-2.865,-2.8984,-2.9319,-2.9506,-2.9944,-3.0543,-3.094,-3.1292,-3.161,-3.1977,-3.2145,-3.2256,-3.2532,-3.2437,-3.2079,-3.1853,-3.164,-3.1482,-3.1482,-3.1482,-3.1482,-3.1482,-3.0597,-2.9265,-2.797,-2.5914,-2.4118,-2.3699,-2.3595,-2.3595,-2.3595,-2.3595,-2.3475,-2.3041,-2.331,-2.3283,-2.2304,-2.2969,-2.3402,-2.2799,-2.3225,-2.3566,-2.3392,-2.3508,-2.3566,-2.3538,-2.3566,-2.3595,-2.3595,-2.3595,-2.3595,-2.3595,-2.3595,-2.3595,-2.3595,-2.3595,-2.34,-2.2981,-2.2966,-2.2742,-2.2293,-2.2742,-2.2742,-2.2308,-2.2757,-2.2727,-0.3205,-0.3955,0.0,0.0,0.0,0.0,0.0,0.0,0.0,-1.3575,0.0,-1.3044,-1.3763,-1.4207,-1.4471,-1.4574,-1.5664,-1.6522,-1.6522,-1.7043,-1.7575,-1.8057,-1.9677,-2.0985,-2.1666,-2.2788,-2.3838,-2.458,-2.4734,-2.4892,-2.5174,-2.5369,-2.5592,-2.5893,-2.5893,-2.6042,-2.6283,-2.6283,-2.6472,-2.6779,-2.6779,-2.6779,-2.6808,-2.7432,-2.7668,-2.7752,-2.8502,-2.8779,-2.8722,-2.8864,-2.93,-2.9987,-3.0822,-3.1495,-3.213,-3.213,-3.2256,-3.2492,-3.2986,-3.2461,-3.1582,-3.2176,-3.1966,-3.1482,-3.1482,-3.1482,-3.1482,-3.1482,-3.0597,-2.9295,-2.797,-2.6602,-2.5285,-2.3924,-2.3595,-2.3595,-2.3595,-2.3595,-2.3595,-2.3595,-2.3595,-2.3595,-2.3595,-2.3595,-2.3595,-2.3595,-2.3595,-2.3595,-2.3595,-2.3595,-2.3595,-2.3595,-2.3595,-2.3595,-2.3595,-2.3595,-2.3595,-2.3595,-2.3595,-2.3595,-2.3595,-2.3595,-2.3595,-2.3595,-2.3595,-2.3595,-2.3595,-2.3595,-2.3595,-2.3595,-2.3595,-2.3595,-0.2659,0.0,0.0,0.0,0.0,0.0,0.0,0.0,0.0,0.0,-1.4351,-1.4641,-1.4595,-1.532,-1.5852,-1.5796,-1.6398,-1.6863,-1.6989,-1.7873,-1.8585,-1.8824,-2.0855,-2.2286,-2.2445,-2.3659,-2.459,-2.4991,-2.4948,-2.5075,-2.5369,-2.5494,-2.5592,-2.5893,-2.6096,-2.6312,-2.6659,-2.6659,-2.6712,-2.6779,-2.6779,-2.6779,-2.6794,-2.6982,-2.707,-2.707,-2.7326,-2.7661,-2.8126,-2.9599,-3.0478,-3.1065,-3.205,-3.261,-3.2864,-3.2864,-3.2933,-3.2933,-3.2695,-3.2437,-3.2064,-3.1853,-3.164,-3.1482,-3.1482,-3.1482,-3.1482,-3.1482,-3.1255,-3.0432,-2.8158,-2.7275,-2.6422,-2.4133,-2.3595,-2.3595,-2.3595,-2.3595,-2.3595,-2.3595,-2.3595,-2.3595,-2.3595,-2.3595,-2.3595,-2.3595,-2.3595,-2.3595,-2.3595,-2.3595,-2.3595,-2.3595,-2.3595,-2.3595,-2.3595,-2.3595,-2.3595,-2.3595,-2.3595,-2.3595,-2.3595,-2.3595,-2.3595,-2.3595,-2.3595,-2.3595,-2.3595,-2.3595,-2.3595,-2.3595,-2.3595,-2.3595,-0.393,0.0,0.0,0.0,0.0,0.0,-1.2853,0.0,0.0,0.0,-1.5119,-1.5466,-1.5534,-1.602,-1.6454,-1.6625,-1.6947,-1.7183,-1.7253,-1.835,-1.9165,-1.9211,-2.1352,-2.2831,-2.2897,-2.4079,-2.4892,-2.5118,-2.5061,-2.5174,-2.5647,-2.5647,-2.5853,-2.6233,-2.6433,-2.6592,-2.6779,-2.6779,-2.6779,-2.6779,-2.6779,-2.6779,-2.6779,-2.6779,-2.6832,-2.6899,-2.6899,-2.7246,-2.7973,-2.9265,-3.0228,-3.0975,-3.1973,-3.2698,-3.3182,-3.3182,-3.3182,-3.3145,-3.2841,-3.2437,-3.2007,-3.191,-3.1697,-3.1482,-3.1482,-3.1482,-3.1482,-3.1482,-3.1482,-3.0926,-2.8263,-2.7625,-2.6901,-2.4238,-2.3595,-2.3595,-2.3595,-2.3595,-2.3595,-2.3595,-2.3595,-2.3595,-2.3595,-2.3595,-2.3595,-2.3595,-2.3595,-2.3595,-2.3595,-2.3595,-2.3595,-2.3595,-2.3595,-2.3595,-2.3595,-2.3595,-2.3595,-2.3595,-2.3595,-2.3595,-2.3595,-2.3595,-2.3595,-2.3595,-2.3595,-2.3595,-2.3595,-2.3595,-2.3595,-2.3595,-2.3595,-2.3595,-0.6082,0.0,0.0,0.0,0.0,0.0,-1.4541,-1.5142,-1.5322,-1.57,0.0,-1.5908,-1.6423,-1.6454,-1.6582,-1.7115,-1.735,-1.7444,-1.7549,-1.8684,-1.9501,-1.9607,-2.1629,-2.3058,-2.3245,-2.4215,-2.4892,-2.5061,-2.5061,-2.5286,-2.5893,-2.5948,-2.6165,-2.6727,-2.6779,-2.6779,-2.6779,-2.6779,-2.6779,-2.6779,-2.6779,-2.6779,-2.6832,-2.6779,-2.6899,-2.7003,-2.7055,-2.7473,-2.8122,-2.8432,-2.9206,-3.0253,-3.1118,-3.2154,-3.3208,-3.3103,-3.3135,-3.3145,-3.3077,-3.2367,-3.1582,-3.212,-3.1966,-3.1482,-3.1482,-3.1539,-3.1582,-3.1539,-3.1539,-3.1012,-2.8464,-2.7715,-2.6931,-2.4388,-2.3684,-2.3595,-2.3638,-2.3638,-2.3595,-2.3653,-2.3638,-2.3595,-2.3595,-2.3595,-2.3595,-2.3595,-2.3595,-2.3595,-2.3595,-2.3595,-2.3595,-2.3595,-2.3595,-2.3595,-2.3595,-2.3595,-2.3595,-2.3595,-2.3595,-2.3595,-2.3595,-2.3595,-2.3595,-2.3595,-2.3595,-2.3595,-2.3595,-2.3595,-2.3595,-2.3595,-2.3595,-2.3595,0.0,-0.6444,0.0,0.0,0.0,-1.4539,-1.5966,-1.6238,-1.6107,-1.5732,-1.6355,-1.6905,-1.6565,-1.6863,-1.7225,-1.7363,-1.7419,-1.7807,-1.8751,-2.0047,-2.1229,-2.2156,-2.3636,-2.4569,-2.4569,-2.4799,-2.5174,-2.5674,-2.5536,-2.5633,-2.619,-2.619,-2.6297,-2.6404,-2.6659,-2.6779,-2.6779,-2.6779,-2.6779,-2.6779,-2.6779,-2.6846,-2.6951,-2.6846,-2.6899,-2.7003,-2.7393,-2.7765,-2.8171,-2.9159,-3.0004,-3.0782,-3.155,-3.2369,-3.298,-3.251,-3.2441,-3.2477,-3.2048,-3.1682,-3.1524,-3.164,-3.1582,-3.1482,-3.1482,-3.1853,-3.212,-3.164,-3.1853,-3.1753,-2.9726,-2.8368,-2.7171,-2.5555,-2.4373,-2.3681,-2.4078,-2.3867,-2.3696,-2.4078,-2.3867,-2.3595,-2.3595,-2.3595,-2.3595,-2.3595,-2.3595,-2.3595,-2.3595,-2.3595,-2.3595,-2.3595,-2.3595,-2.3595,-2.3595,-2.3595,-2.3595,-2.3595,-2.3595,-2.3595,-2.3595,-2.3595,-2.3595,-2.3595,-2.3595,-2.3595,-2.3595,-2.3595,-2.3595,-2.3595,-2.3595,-2.3595,0.0,0.0,0.0,0.0,0.0,0.0,-1.6539,-1.682,-1.682,-1.6539,-1.6892,-1.7212,-1.696,-1.7183,-1.7404,-1.7419,-1.7543,-1.804,-1.9231,-2.0503,-2.1799,-2.2987,-2.4231,-2.5005,-2.5005,-2.5131,-2.5369,-2.5688,-2.5702,-2.5839,-2.6297,-2.6283,-2.6351,-2.6525,-2.6712,-2.6779,-2.6779,-2.6779,-2.6779,-2.6779,-2.6989,-2.7144,-2.7284,-2.7306,-2.7408,-2.756,-2.778,-2.8143,-2.8574,-2.8722,-2.9306,-3.0196,-3.0608,-3.1163,-3.1779,-3.1768,-3.1812,-3.1897,-3.1577,-3.1482,-3.1539,-3.1853,-3.1754,-3.1582,-3.216,-3.216,-3.1966,-3.1966,-3.1966,-3.1647,-3.0312,-2.8961,-2.761,-2.6581,-2.4923,-2.3681,-2.3909,-2.3767,-2.3681,-2.3909,-2.3782,-2.3595,-2.3595,-2.3595,-2.3595,-2.3595,-2.3595,-2.3595,-2.3595,-2.3595,-2.3595,-2.3595,-2.3595,-2.3595,-2.3595,-2.3595,-2.3595,-2.3595,-2.3595,-2.3595,-2.3595,-2.3595,-2.3595,-2.3595,-2.3595,-2.3595,-2.3595,-2.3595,-2.3595,-2.3595,-2.3595,-2.3595,0.0,0.0,0.0,0.0,0.0,0.0,-1.6727,-1.7115,-1.7363,-1.7391,-1.7295,-1.7253,-1.7363,-1.7404,-1.7432,-1.7529,-1.784,-1.8475,-1.966,-2.0928,-2.2183,-2.3457,-2.4477,-2.5118,-2.5174,-2.5425,-2.5605,-2.5647,-2.5839,-2.6096,-2.6351,-2.6404,-2.6525,-2.6779,-2.6779,-2.6779,-2.6779,-2.6779,-2.6779,-2.6779,-2.7144,-2.7386,-2.7524,-2.783,-2.7963,-2.7993,-2.8076,-2.8415,-2.8889,-2.8091,-2.8328,-2.9265,-2.92,-2.9601,-3.0279,-3.0812,-3.1052,-3.109,-3.1291,-3.1417,-3.1588,-3.2201,-3.212,-3.1951,-3.2772,-3.2477,-3.1823,-3.2023,-3.184,-3.1414,-3.076,-2.9385,-2.803,-2.7473,-2.5469,-2.3724,-2.3809,-2.3724,-2.3638,-2.3696,-2.3653,-2.3638,-2.3724,-2.3681,-2.3595,-2.3595,-2.3595,-2.3595,-2.3595,-2.3595,-2.3595,-2.3595,-2.3595,-2.3595,-2.3595,-2.3595,-2.3595,-2.3595,-2.3595,-2.3595,-2.3595,-2.3595,-2.3595,-2.3595,-2.3595,-2.3595,-2.3595,-2.3595,-2.3595,-2.3595,-2.3595,-2.3595,0.0,0.0,0.0,0.0,0.0,-1.5976,0.0,0.0,-1.7282,0.0,-1.7419,-1.7363,-1.7404,-1.7461,-1.7529,-1.7638,-1.8679,-1.9818,-2.0969,-2.2173,-2.3498,-2.4998,-2.5342,-2.5536,-2.5729,-2.5839,-2.5948,-2.619,-2.6244,-2.6365,-2.6727,-2.6712,-2.6727,-2.6779,-2.6779,-2.6779,-2.6779,-2.6779,-2.6779,-2.6779,-2.6951,-2.7144,-2.7269,-2.783,-2.7845,-2.7539,-2.7944,-2.8222,-2.84,-2.8255,-2.8558,-2.9077,-2.862,-2.8873,-2.9438,-2.9546,-2.9703,-2.9898,-3.0432,-3.0976,-3.1505,-3.2198,-3.2641,-3.2933,-3.2586,-3.2749,-3.2647,-3.1167,-3.1382,-3.192,-3.1396,-2.9648,-2.8042,-2.8171,-2.6178,-2.4287,-2.4664,-2.4131,-2.3724,-2.4135,-2.3867,-2.3767,-2.4287,-2.3937,-2.3595,-2.3595,-2.3595,-2.3595,-2.3595,-2.3595,-2.3595,-2.3595,-2.3595,-2.3595,-2.3595,-2.3595,-2.3595,-2.3595,-2.3595,-2.3595,-2.3595,-2.3595,-2.3595,-2.3595,-2.3595,-2.3595,-2.3595,-2.3595,-2.3595,-2.3595,-2.3595,-2.3595,-0.5037,0.0,0.0,0.0,0.0,-1.5802,-1.6837,0.0,-1.7282,-1.7475,-1.7461,-1.7404,-1.7461,-1.7488,-1.7639,-1.8095,-1.844,-1.9394,-2.1456,-2.2179,-2.32,-2.5273,-2.5647,-2.5743,-2.5893,-2.5893,-2.5988,-2.6297,-2.6283,-2.6472,-2.6779,-2.6779,-2.6779,-2.6779,-2.6779,-2.6779,-2.6779,-2.6899,-2.7041,-2.7233,-2.7248,-2.735,-2.7539,-2.771,-2.781,-2.781,-2.8076,-2.8255,-2.8304,-2.8027,-2.8042,-2.8238,-2.7993,-2.8076,-2.8394,-2.8788,-2.9107,-2.9507,-3.016,-3.0792,-3.142,-3.1939,-3.2164,-3.2305,-3.2615,-3.2756,-3.254,-3.1665,-3.1743,-3.1931,-3.1223,-2.9718,-2.8387,-2.8693,-2.6853,-2.502,-2.5082,-2.4542,-2.4078,-2.4385,-2.4245,-2.4063,-2.4021,-2.3767,-2.3595,-2.3595,-2.3595,-2.3595,-2.3595,-2.3595,-2.3595,-2.3595,-2.3595,-2.3595,-2.3595,-2.3595,-2.3595,-2.3595,-2.3595,-2.3595,-2.3595,-2.3595,-2.3595,-2.3595,-2.3595,-2.3595,-2.3595,-2.3595,-2.3595,-2.3595,-2.3595,-2.3595,0.0,0.0,0.0,0.0,-1.3313,-1.5029,0.0,0.0,-1.71,-1.729,-1.7395,-1.7461,-1.7529,-1.7598,-1.7828,-1.8422,-1.8477,-1.9292,-2.1787,-2.2261,-2.3192,-2.5451,-2.5798,-2.5948,-2.6111,-2.6056,-2.6096,-2.6418,-2.6418,-2.6539,-2.6779,-2.6779,-2.6779,-2.6779,-2.6779,-2.6779,-2.6779,-2.6899,-2.7144,-2.7473,-2.7386,-2.7488,-2.769,-2.7625,-2.771,-2.7944,-2.8076,-2.811,-2.811,-2.7745,-2.7625,-2.761,-2.771,-2.776,-2.7871,-2.8485,-2.8955,-2.933,-3.001,-3.067,-3.1248,-3.1598,-3.1864,-3.2176,-3.265,-3.278,-3.2716,-3.2076,-3.1994,-3.1849,-3.0456,-2.9129,-2.823,-2.8664,-2.6987,-2.5313,-2.5198,-2.4799,-2.4492,-2.4679,-2.4639,-2.4517,-2.4297,-2.3879,-2.3595,-2.3595,-2.3595,-2.3595,-2.3595,-2.3595,-2.3595,-2.3595,-2.3595,-2.3595,-2.3595,-2.3595,-2.3595,-2.3595,-2.3595,-2.3595,-2.3595,-2.3595,-2.3595,-2.3595,-2.3595,-2.3595,-2.3595,-2.3595,-2.3595,-2.3595,-2.3595,-2.3595,0.0,0.0,0.0,0.0,0.0,0.0,0.0,0.0,-1.6573,-1.6807,-1.717,-1.7529,-1.7679,-1.7855,-1.8108,-1.8539,-1.9308,-2.052,-2.2326,-2.3196,-2.4277,-2.6034,-2.6042,-2.6111,-2.6674,-2.6486,-2.6418,-2.6727,-2.6779,-2.6779,-2.6779,-2.6779,-2.6779,-2.6779,-2.6779,-2.6779,-2.6779,-2.6779,-2.6937,-2.7233,-2.7218,-2.7284,-2.7401,-2.7524,-2.7524,-2.7437,-2.7575,-2.7625,-2.761,-2.7625,-2.7625,-2.761,-2.8076,-2.824,-2.8352,-2.8873,-2.9091,-2.9186,-2.9785,-3.0402,-3.0951,-3.1102,-3.2305,-3.3479,-3.2524,-3.3086,-3.3639,-3.1836,-3.1823,-3.1678,-2.895,-2.7563,-2.7034,-2.7632,-2.631,-2.4942,-2.4902,-2.4902,-2.4942,-2.5198,-2.5044,-2.5153,-2.5934,-2.4704,-2.3595,-2.3595,-2.3595,-2.3595,-2.3595,-2.3595,-2.3595,-2.3595,-2.3595,-2.3595,-2.3595,-2.3595,-2.3595,-2.3595,-2.3595,-2.3595,-2.3595,-2.3595,-2.3595,-2.3595,-2.3595,-2.3595,-2.3595,-2.3595,-2.3595,-2.3595,-2.3595,-2.3595,0.0,0.0,0.0,-0.8379,-1.0152,-1.1823,-1.3284,-1.4554,-1.5671,-1.6606,-1.6928,-1.7262,-1.8025,-1.8198,-1.8369,-1.8669,-1.8934,-1.9653,-2.1269,-2.2243,-2.3357,-2.4889,-2.5893,-2.6568,-2.6779,-2.6472,-2.6418,-2.6779,-2.6592,-2.6592,-2.6779,-2.6779,-2.6779,-2.6779,-2.6779,-2.6846,-2.6951,-2.7041,-2.7078,-2.7181,-2.7372,-2.7437,-2.7401,-2.7524,-2.7575,-2.7524,-2.7575,-2.7625,-2.7625,-2.7625,-2.776,-2.8027,-2.7894,-2.8271,-2.8795,-2.8638,-2.9012,-2.956,-2.9801,-3.0277,-3.083,-3.0754,-3.1286,-3.1919,-3.1454,-3.208,-3.2674,-3.1388,-3.245,-3.3137,-2.9648,-2.8027,-2.723,-2.6841,-2.622,-2.5717,-2.5717,-2.5497,-2.5275,-2.5313,-2.5535,-2.5476,-2.4664,-2.4006,-2.3595,-2.3595,-2.3595,-2.3595,-2.3595,-2.3595,-2.3595,-2.3595,-2.3595,-2.3595,-2.3595,-2.3595,-2.3595,-2.3595,-2.3595,-2.3595,-2.3595,-2.3595,-2.3595,-2.3595,-2.3595,-2.3595,-2.3595,-2.3595,-2.3595,-2.3595,-2.3595,-2.3595,-0.4053,0.0,0.0,0.0,0.0,-1.0166,-1.1851,-1.3245,-1.4483,-1.5716,-1.6278,-1.6889,-1.7835,-1.8162,-1.846,-1.9006,-1.886,-1.9227,-2.0855,-2.147,-2.2306,-2.3751,-2.5128,-2.6023,-2.6141,-2.6227,-2.6418,-2.6779,-2.6592,-2.6592,-2.6779,-2.6779,-2.6779,-2.6779,-2.6779,-2.6846,-2.7003,-2.7093,-2.7181,-2.7284,-2.7437,-2.7488,-2.7488,-2.7575,-2.766,-2.7845,-2.766,-2.771,-2.7845,-2.7845,-2.8125,-2.8543,-2.8222,-2.8606,-2.9303,-2.895,-2.9332,-3.0027,-3.0027,-3.0337,-3.0647,-3.0363,-3.0693,-3.115,-3.0916,-3.1672,-3.2497,-3.1718,-3.3151,-3.4071,-3.051,-2.8373,-2.6945,-2.6138,-2.6079,-2.622,-2.622,-2.5954,-2.5647,-2.5368,-2.5791,-2.5642,-2.3879,-2.3595,-2.3595,-2.3595,-2.3595,-2.3595,-2.3595,-2.3595,-2.3595,-2.3595,-2.3595,-2.3852,-2.4405,-2.3921,-2.3595,-2.3595,-2.3595,-2.3681,-2.3894,-2.3867,-2.3809,-2.3809,-2.3809,-2.3782,-2.3595,-2.3595,-2.3595,-2.3595,-2.3595,-2.3595,0.0,0.0,0.0,0.0,0.0,0.0,-1.031,-1.1842,-1.309,-1.406,-1.5209,-1.6263,-1.7153,-1.7667,-1.8324,-1.9504,-1.9184,-1.9407,-2.1188,-2.1003,-2.1241,-2.2685,-2.3755,-2.4496,-2.4878,-2.571,-2.6428,-2.6779,-2.6779,-2.6779,-2.6779,-2.6779,-2.6779,-2.6779,-2.6779,-2.6899,-2.7003,-2.7003,-2.7144,-2.7401,-2.7401,-2.7488,-2.7625,-2.761,-2.7894,-2.8304,-2.7845,-2.7894,-2.8336,-2.8304,-2.8591,-2.9074,-2.9074,-2.9393,-2.9793,-2.981,-3.0113,-3.0526,-3.0526,-3.0526,-3.0426,-2.9984,-3.0588,-3.15,-3.1043,-3.2023,-3.3226,-3.2713,-3.3607,-3.4038,-3.1139,-2.8323,-2.6079,-2.5631,-2.5864,-2.622,-2.622,-2.622,-2.6007,-2.5406,-2.5791,-2.5642,-2.3921,-2.3595,-2.3595,-2.3595,-2.3595,-2.3595,-2.3595,-2.3638,-2.3681,-2.3681,-2.3681,-2.4364,-2.6059,-2.4664,-2.3681,-2.3638,-2.3638,-2.3894,-2.4492,-2.4385,-2.4302,-2.4302,-2.4302,-2.4078,-2.3595,-2.3595,-2.3595,-2.3595,-2.3595,-2.3595,-0.3948,0.0,0.0,0.0,0.0,0.0,-0.8647,-0.9687,-1.0992,-1.3209,-1.392,-1.4795,-1.6918,-1.712,-1.744,-1.8832,-1.9059,-1.924,-1.9695,-2.0316,-2.0911,-2.1454,-2.2582,-2.3725,-2.4713,-2.5133,-2.5727,-2.6707,-2.6779,-2.6779,-2.6779,-2.6779,-2.6779,-2.6779,-2.6899,-2.6951,-2.7003,-2.7196,-2.735,-2.7401,-2.7488,-2.7575,-2.761,-2.7929,-2.8158,-2.8288,-2.8543,-2.8966,-2.9287,-2.8207,-2.8319,-2.9074,-2.8685,-2.9225,-3.0258,-2.9941,-3.0113,-3.0526,-3.0526,-3.0526,-3.0468,-3.0342,-3.0516,-3.0782,-3.0639,-3.0912,-3.1139,-3.0328,-3.0145,-2.9748,-2.7893,-2.6816,-2.6168,-2.6043,-2.6132,-2.622,-2.622,-2.622,-2.6043,-2.5556,-2.5329,-2.5114,-2.4623,-2.4006,-2.3595,-2.3595,-2.3595,-2.3595,-2.3595,-2.4704,-2.5476,-2.5476,-2.5476,-2.568,-2.6168,-2.577,-2.5307,-2.4871,-2.4648,-2.4623,-2.4784,-2.4759,-2.4599,-2.4302,-2.4302,-2.4078,-2.3595,-2.3595,-2.3595,-2.3595,-2.3595,-2.3595,0.0,0.0,0.0,0.0,0.0,0.0,-0.7867,-0.8578,-0.9642,-1.1804,-1.2482,-1.3326,-1.5566,-1.5974,-1.6426,-1.7596,-1.818,-1.8643,-1.9029,-1.9637,-2.0059,-2.0204,-2.1336,-2.2425,-2.3165,-2.3746,-2.4384,-2.5125,-2.5676,-2.6213,-2.675,-2.6779,-2.6832,-2.6899,-2.6951,-2.7055,-2.7159,-2.7299,-2.7452,-2.7488,-2.776,-2.7894,-2.7894,-2.84,-2.8732,-2.895,-2.9074,-2.9348,-2.9705,-2.8654,-2.8795,-2.9617,-2.9134,-2.9556,-3.0426,-2.9984,-3.0113,-3.0526,-3.0526,-3.0526,-3.0526,-3.0526,-3.0311,-3.0063,-3.0063,-2.9996,-2.9814,-2.9268,-2.8323,-2.728,-2.6435,-2.622,-2.622,-2.622,-2.622,-2.622,-2.622,-2.622,-2.6132,-2.5864,-2.5589,-2.523,-2.4502,-2.4542,-2.4704,-2.4704,-2.4704,-2.4704,-2.4704,-2.5551,-2.622,-2.622,-2.622,-2.622,-2.622,-2.622,-2.5954,-2.5427,-2.5098,-2.4981,-2.5121,-2.516,-2.5059,-2.4799,-2.4655,-2.423,-2.3595,-2.3595,-2.3595,-2.3595,-2.3595,-2.3595,0.0,0.0,0.0,0.0,0.0,0.0,-0.7574,-0.8127,-0.8874,-1.0214,-1.0935,-1.1799,-1.3459,-1.4357,-1.5093,-1.5946,-1.6728,-1.7621,-1.8746,-1.8883,-1.8883,-1.8883,-1.9943,-2.0741,-2.0886,-2.2004,-2.2743,-2.2888,-2.3945,-2.5125,-2.63,-2.6489,-2.6628,-2.6747,-2.693,-2.7107,-2.735,-2.7401,-2.7437,-2.7575,-2.8027,-2.8255,-2.8304,-2.8842,-2.9348,-2.9705,-2.9348,-2.9393,-2.9766,-2.9348,-2.9661,-3.0384,-2.9984,-3.007,-3.0426,-3.0027,-3.0156,-3.0493,-3.0328,-3.0278,-3.0261,-3.0096,-2.9648,-2.9168,-2.9168,-2.9102,-2.9019,-2.892,-2.7611,-2.622,-2.622,-2.622,-2.622,-2.622,-2.622,-2.622,-2.622,-2.622,-2.622,-2.622,-2.622,-2.5717,-2.4173,-2.5192,-2.622,-2.622,-2.622,-2.622,-2.622,-2.622,-2.622,-2.622,-2.622,-2.622,-2.622,-2.622,-2.6026,-2.5594,-2.5253,-2.5214,-2.554,-2.5594,-2.554,-2.5503,-2.5098,-2.4461,-2.3595,-2.3595,-2.3595,-2.3595,-2.3595,-2.3595,0.0,0.0,0.0,0.0,-0.7298,0.0,-0.6825,-0.7548,-0.8636,-0.9156,-0.9333,-0.9911,-1.148,-1.2164,-1.2823,-1.3899,-1.4906,-1.6048,-1.7388,-1.7577,-1.7577,-1.7577,-1.8274,-1.9159,-2.0175,-2.0944,-2.1815,-2.2815,-2.312,-2.3366,-2.3627,-2.4689,-2.5255,-2.5305,-2.6411,-2.7003,-2.7107,-2.7299,-2.7401,-2.7437,-2.761,-2.7929,-2.8304,-2.8842,-2.9166,-2.9257,-2.9528,-2.9705,-2.9793,-2.9705,-2.975,-2.9941,-2.9853,-3.007,-3.0485,-3.0384,-3.0426,-3.0361,-2.9201,-2.8787,-2.8605,-2.7429,-2.7346,-2.7732,-2.7732,-2.8075,-2.839,-2.7831,-2.6949,-2.622,-2.622,-2.622,-2.622,-2.622,-2.622,-2.622,-2.622,-2.622,-2.622,-2.622,-2.622,-2.6096,-2.577,-2.597,-2.622,-2.622,-2.622,-2.622,-2.622,-2.622,-2.622,-2.622,-2.622,-2.622,-2.622,-2.622,-2.6168,-2.6079,-2.6007,-2.597,-2.6079,-2.6079,-2.5901,-2.5503,-2.4902,-2.4271,-2.3595,-2.3595,-2.3595,-2.3595,-2.3595,-2.3595,0.0,0.0,0.0,-0.6966,-0.7798,0.0,0.0,-0.767,-0.845,-0.9324,-0.8854,-0.8867,-1.0708,-1.1238,-1.1619,-1.2289,-1.3469,-1.4399,-1.4615,-1.6134,-1.72,-1.72,-1.7505,-1.7954,-1.8593,-1.8927,-1.9638,-2.0889,-2.1294,-2.1801,-2.2439,-2.3383,-2.3905,-2.3999,-2.535,-2.6138,-2.6238,-2.7024,-2.7437,-2.7488,-2.781,-2.8222,-2.8732,-2.9212,-2.9572,-2.9793,-3.0027,-3.0156,-3.0156,-3.0156,-2.9747,-2.9173,-2.9878,-3.03,-3.0427,-2.9715,-2.945,-2.9251,-2.7793,-2.7296,-2.7181,-2.6452,-2.6203,-2.6187,-2.6187,-2.6452,-2.675,-2.675,-2.6501,-2.622,-2.622,-2.622,-2.622,-2.622,-2.622,-2.622,-2.622,-2.622,-2.622,-2.622,-2.622,-2.622,-2.622,-2.622,-2.622,-2.622,-2.622,-2.622,-2.622,-2.622,-2.622,-2.622,-2.622,-2.622,-2.622,-2.622,-2.622,-2.622,-2.622,-2.622,-2.622,-2.622,-2.5954,-2.5427,-2.4942,-2.4354,-2.3595,-2.3595,-2.3595,-2.3595,-2.3595,-2.3595,0.0,0.0,0.0,-0.8039,-0.859,-0.8919,0.0,0.0,0.0,-0.9665,-0.8775,-0.8359,-1.0166,-1.051,-1.0565,-1.0804,-1.2024,-1.2643,-1.1756,-1.4227,-1.6157,-1.6253,-1.6488,-1.6692,-1.6822,-1.6837,-1.7374,-1.8637,-1.9014,-1.9783,-2.1191,-2.1946,-2.2483,-2.2703,-2.399,-2.4772,-2.5038,-2.606,-2.6812,-2.7186,-2.7598,-2.82,-2.8982,-2.9438,-2.9708,-2.9789,-2.9914,-2.9766,-2.9502,-2.9502,-2.8907,-2.8108,-2.9549,-2.993,-2.9549,-2.839,-2.7959,-2.776,-2.6303,-2.5789,-2.574,-2.5458,-2.506,-2.4729,-2.5027,-2.511,-2.5259,-2.6005,-2.622,-2.622,-2.622,-2.622,-2.622,-2.622,-2.622,-2.622,-2.622,-2.622,-2.622,-2.622,-2.622,-2.622,-2.622,-2.622,-2.622,-2.622,-2.622,-2.622,-2.622,-2.622,-2.622,-2.622,-2.622,-2.622,-2.622,-2.622,-2.622,-2.622,-2.622,-2.622,-2.622,-2.622,-2.5881,-2.5237,-2.5176,-2.4664,-2.3595,-2.3595,-2.3595,-2.3595,-2.3595,-2.3681,0.0,-0.9784,-1.0331,-0.8865,-1.0112,-1.1064,-0.8701,0.0,-0.9967,-0.913,0.0,-0.8417,-0.9008,0.0,0.0,-0.9111,-1.0199,-1.0774,-1.0067,-1.1282,-1.2399,-1.2808,-1.3908,-1.4848,-1.5472,-1.5531,-1.6053,-1.733,-1.6445,-1.6663,-1.8535,-1.9769,-2.0669,-2.1233,-2.2468,-2.3211,-2.3346,-2.3613,-2.4384,-2.5634,-2.5824,-2.679,-2.8384,-2.8919,-2.85,-2.7327,-2.7734,-2.717,-2.5966,-2.5966,-2.6183,-2.6601,-2.8058,-2.7843,-2.6684,-2.6518,-2.6452,-2.6253,-2.4762,-2.4249,-2.4033,-2.2725,-2.2675,-2.3388,-2.4713,-2.511,-2.5259,-2.6005,-2.622,-2.622,-2.622,-2.622,-2.622,-2.622,-2.622,-2.622,-2.622,-2.622,-2.622,-2.622,-2.622,-2.622,-2.622,-2.622,-2.622,-2.622,-2.622,-2.622,-2.622,-2.622,-2.622,-2.622,-2.622,-2.622,-2.622,-2.622,-2.622,-2.622,-2.622,-2.622,-2.622,-2.622,-2.5791,-2.4942,-2.568,-2.523,-2.3595,-2.3595,-2.3595,-2.3595,-2.3595,-2.3894,-1.0157,-1.0387,-1.0679,-0.9886,-1.0463,-1.0883,-0.9552,-0.9628,-0.9975,-1.0003,0.0,0.0,0.0,0.0,0.0,0.0,-0.9194,-0.9379,-0.8603,-0.9333,-1.0331,-1.1256,-1.19,-1.2581,-1.3369,-1.344,-1.3854,-1.4906,-1.4702,-1.5134,-1.6459,-1.81,-1.9116,-1.9362,-2.0959,-2.1858,-2.2001,-2.2848,-2.3644,-2.4282,-2.4403,-2.4986,-2.6053,-2.6486,-2.6465,-2.615,-2.6613,-2.6438,-2.5864,-2.5864,-2.5497,-2.4978,-2.5607,-2.5988,-2.6104,-2.5243,-2.4928,-2.4713,-2.3238,-2.2725,-2.2609,-2.1996,-2.1996,-2.2526,-2.4017,-2.4464,-2.4713,-2.5889,-2.622,-2.622,-2.622,-2.622,-2.622,-2.622,-2.622,-2.622,-2.622,-2.622,-2.622,-2.622,-2.622,-2.622,-2.622,-2.622,-2.622,-2.622,-2.622,-2.622,-2.622,-2.622,-2.622,-2.622,-2.622,-2.622,-2.622,-2.622,-2.622,-2.622,-2.622,-2.622,-2.622,-2.622,-2.6023,-2.568,-2.6007,-2.5844,-2.5114,-2.5114,-2.4942,-2.4608,-2.4256,-2.4063,-1.1275,-1.1363,-1.1451,-1.0912,-1.0887,-1.0847,-1.0241,-1.025,-1.0449,-1.0768,-1.0144,0.0,0.0,0.0,0.0,0.0,0.0,-0.8392,-0.737,-0.7855,-0.8722,-0.9792,-1.0299,-1.08,-1.144,-1.1314,-1.1745,-1.2943,-1.2984,-1.3641,-1.521,-1.6648,-1.7664,-1.8187,-1.9522,-2.04,-2.068,-2.1701,-2.2448,-2.2931,-2.3113,-2.3588,-2.4354,-2.4839,-2.5006,-2.4989,-2.5398,-2.5375,-2.4994,-2.4994,-2.4365,-2.3404,-2.3404,-2.405,-2.4862,-2.3785,-2.3404,-2.3238,-2.2162,-2.1797,-2.1797,-2.1797,-2.193,-2.2327,-2.3603,-2.4149,-2.458,-2.5855,-2.622,-2.622,-2.622,-2.622,-2.622,-2.622,-2.622,-2.622,-2.6274,-2.6274,-2.6291,-2.6203,-2.6274,-2.6293,-2.622,-2.6274,-2.631,-2.6203,-2.622,-2.622,-2.622,-2.622,-2.622,-2.622,-2.622,-2.622,-2.622,-2.622,-2.622,-2.622,-2.622,-2.622,-2.622,-2.622,-2.622,-2.622,-2.622,-2.622,-2.622,-2.6043,-2.5738,-2.5275,-2.4839,-2.4395,-1.3031,-1.3339,-1.3493,-1.1875,-1.1716,-1.1681,-1.0625,-1.1389,-1.2006,-1.0838,-1.1295,-1.1564,-1.0418,0.0,0.0,0.0,0.0,0.0,0.0,-0.6768,-0.734,-0.7827,-0.909,-0.9952,-0.9966,-0.9377,-0.9867,-1.1975,-1.1005,-1.1789,-1.5109,-1.5371,-1.6271,-1.8143,-1.8259,-1.8615,-1.9346,-1.9405,-2.0127,-2.1579,-2.1946,-2.2867,-2.4245,-2.502,-2.4643,-2.3391,-2.3851,-2.3255,-2.193,-2.193,-2.1897,-2.1864,-2.1864,-2.1897,-2.193,-2.188,-2.1864,-2.1847,-2.1814,-2.1797,-2.1797,-2.1797,-2.2278,-2.3007,-2.3768,-2.4497,-2.5226,-2.6005,-2.622,-2.622,-2.622,-2.622,-2.622,-2.622,-2.622,-2.6239,-2.645,-2.6485,-2.6415,-2.6256,-2.6452,-2.6572,-2.6239,-2.6486,-2.6572,-2.6239,-2.622,-2.622,-2.622,-2.622,-2.622,-2.622,-2.622,-2.622,-2.622,-2.622,-2.622,-2.622,-2.622,-2.622,-2.622,-2.622,-2.622,-2.622,-2.622,-2.622,-2.622,-2.561,-2.5313,-2.5275,-2.502,-2.4863,-1.4164,-1.4672,-1.4934,-1.3548,-1.3316,-1.3053,-1.1765,-1.2072,-1.2279,-1.0888,-1.1509,-1.1922,-1.0571,0.0,0.0,0.0,0.0,0.0,0.0,-0.6754,-0.6577,-0.6602,-0.7656,-0.8372,-0.8372,-0.8305,-0.896,-1.07,-1.0433,-1.1125,-1.3269,-1.4616,-1.5792,-1.6851,-1.7737,-1.8491,-1.9176,-1.9302,-1.9634,-2.0114,-2.0591,-2.1075,-2.1593,-2.2343,-2.2408,-2.2005,-2.2388,-2.2245,-2.1797,-2.1797,-2.1797,-2.1797,-2.1797,-2.1797,-2.1797,-2.1797,-2.1797,-2.1797,-2.1797,-2.1797,-2.1797,-2.1797,-2.2294,-2.304,-2.3785,-2.453,-2.5259,-2.6005,-2.622,-2.622,-2.622,-2.622,-2.6203,-2.6258,-2.6293,-2.6364,-2.6434,-2.6485,-2.6485,-2.6415,-2.638,-2.6329,-2.6203,-2.6293,-2.6329,-2.622,-2.622,-2.622,-2.622,-2.622,-2.622,-2.622,-2.622,-2.622,-2.622,-2.622,-2.622,-2.622,-2.622,-2.622,-2.622,-2.622,-2.622,-2.622,-2.622,-2.622,-2.622,-2.6007,-2.5917,-2.5881,-2.5791,-2.5323,-1.5077,-1.5659,-1.5954,-1.4834,-1.4761,-1.4544,-1.2931,-1.3197,-1.3345,-1.1857,-1.222,-1.2637,-1.1953,-1.0811,0.0,0.0,0.0,0.0,0.0,-0.6596,-0.6242,-0.6117,-0.6724,0.0,0.0,-0.7405,-0.804,-0.9421,-0.9708,-1.0513,-1.1994,-1.3702,-1.511,-1.6169,-1.7272,-1.8259,-1.9087,-1.9302,-1.945,-1.9603,-2.0104,-2.0413,-2.063,-2.1198,-2.1464,-2.1495,-2.1708,-2.1797,-2.1797,-2.1797,-2.1797,-2.1797,-2.1797,-2.1797,-2.1797,-2.1797,-2.1797,-2.1797,-2.1797,-2.1797,-2.1797,-2.1797,-2.2477,-2.3388,-2.3868,-2.4696,-2.5607,-2.6071,-2.622,-2.622,-2.622,-2.6203,-2.6222,-2.6241,-2.6347,-2.6434,-2.6382,-2.6434,-2.6485,-2.6434,-2.6329,-2.6239,-2.6203,-2.622,-2.622,-2.622,-2.622,-2.622,-2.622,-2.622,-2.622,-2.622,-2.622,-2.622,-2.622,-2.622,-2.622,-2.622,-2.622,-2.622,-2.622,-2.622,-2.622,-2.622,-2.622,-2.622,-2.622,-2.622,-2.622,-2.622,-2.622,-2.568]},{"header":{"parameterUnit":"m.s-1","parameterCategory":1,"la1":30.6,"la2":29.2853,"lo1":-89.7004,"lo2":-87.6739,"dy":0.0162,"dx":0.0183,"nx":112,"ny":82,"refTime":"2025-07-04T00:00:00:Z","depth":0,"parameterNumber":3,"parameterNumberName":"V-component_of_WINDS"},"data":[0.0,0.0,0.0,0.0,0.0,0.0,0.0,0.0,0.0,0.0,0.0,0.0,0.0,0.0,0.0,0.0,0.0,0.0,0.0,0.0,0.0,0.0,0.0,0.0,0.0,0.0,0.0,0.0,0.0,0.0,0.0,0.0,0.0,0.0,0.0,0.0,0.0,0.0,0.0,0.0,0.0,0.0,0.0,0.0,0.0,0.0,0.0,0.0,0.0,0.0,0.0,0.0,0.0,0.0,0.0,0.0,0.0,0.0,0.0,0.0,0.0,0.0,0.0,0.0,0.0,0.0,0.0,0.0,0.0,0.0,0.0,0.0,0.0,0.0,0.0,0.0,0.0,0.0,0.0,0.0,0.0,0.0,0.0,0.0,0.0,0.0,0.0,0.0,0.0,0.0,-0.9614,-1.1496,-1.317,-1.4154,-1.4093,-1.3903,-1.3147,-1.1686,0.0,0.0,0.0,0.0,0.0,0.0,0.0,0.0,0.0,0.0,0.0,0.0,0.0,0.0,0.0,0.0,0.0,0.0,0.0,0.0,0.0,0.0,0.0,0.0,0.0,0.0,0.0,0.0,0.0,0.0,0.0,0.0,0.0,0.0,0.0,0.0,0.0,0.0,0.0,0.0,0.0,0.0,0.0,0.0,0.0,0.0,0.0,0.0,0.0,0.0,0.0,0.0,0.0,0.0,0.0,0.0,0.0,0.0,0.0,0.0,0.0,0.0,0.0,0.0,0.0,0.0,0.0,0.0,0.0,0.0,0.0,0.0,0.0,0.0,0.0,0.0,0.0,0.0,0.0,0.0,0.0,0.0,0.0,0.0,0.0,0.0,0.0,0.0,0.0,0.0,0.0,0.0,0.0,0.0,0.0,0.0,0.0,0.0,0.0,0.0,0.0,0.0,0.0,0.0,-0.9835,-1.2262,-1.3978,-1.4942,-1.5004,-1.3596,-1.264,-1.2425,0.0,0.0,0.0,0.0,0.0,0.0,0.0,0.0,0.0,0.0,0.0,0.0,0.0,0.0,0.0,0.0,0.0,0.0,0.0,0.0,0.0,0.0,0.0,0.0,0.0,0.0,0.0,0.0,0.0,0.0,0.0,0.0,0.0,0.0,0.0,0.0,0.0,0.0,0.0,0.0,0.0,0.0,0.0,0.0,0.0,0.0,0.0,0.0,0.0,0.0,0.0,0.0,0.0,0.0,0.0,0.0,0.0,0.0,0.0,0.0,0.0,0.0,0.0,0.0,0.0,0.0,0.0,0.0,0.0,0.0,0.0,0.0,0.0,0.0,0.0,0.0,0.0,0.0,0.0,0.0,0.0,0.0,0.0,0.0,0.0,0.0,0.0,0.0,0.0,0.0,0.0,0.0,0.0,0.0,0.0,0.0,0.0,0.0,0.0,0.0,0.0,0.0,0.0,-1.0161,-1.1405,-1.2578,-1.4167,-1.5158,-1.5146,-1.3595,-1.2615,-1.2608,-1.0163,0.0,0.0,0.0,0.0,0.0,0.0,0.0,0.0,0.0,0.0,0.0,0.0,0.0,0.0,0.0,0.0,0.0,0.0,0.0,0.0,0.0,0.0,0.0,0.0,0.0,0.0,0.0,0.0,0.0,0.0,0.0,0.0,0.0,0.0,0.0,0.0,0.0,0.0,0.0,0.0,0.0,0.0,0.0,0.0,0.0,0.0,0.0,0.0,0.0,0.0,0.0,0.0,0.0,0.0,0.0,0.0,0.0,0.0,0.0,0.0,0.0,0.0,0.0,0.0,0.0,0.0,0.0,0.0,0.0,0.0,0.0,0.0,0.0,0.0,0.0,0.0,0.0,0.0,0.0,0.0,0.0,0.0,0.0,0.0,0.0,0.0,0.0,0.0,0.0,0.0,0.0,0.0,0.0,0.0,0.0,0.0,0.0,0.0,0.0,0.0,0.0,0.0,-1.1663,-1.2704,-1.2699,-1.4183,-1.5157,-1.5101,-1.3593,-1.2641,-1.2594,-0.9448,0.0,0.0,0.0,0.0,0.0,0.0,0.0,0.0,0.0,0.0,0.0,0.0,0.0,0.0,0.0,0.0,0.0,0.0,0.0,0.0,0.0,0.0,0.0,0.0,0.0,0.0,0.0,0.0,0.0,0.0,0.0,0.0,0.0,0.0,0.0,0.0,0.0,0.0,0.0,0.0,0.0,0.0,0.0,0.0,0.0,0.0,0.0,0.0,0.0,0.0,0.0,0.0,0.0,0.0,0.0,0.0,0.0,0.0,0.0,0.0,0.0,0.0,0.0,0.0,0.0,0.0,0.0,0.0,0.0,0.0,0.0,0.0,0.0,0.0,0.0,0.0,0.0,0.0,0.0,0.0,0.0,0.0,0.0,0.0,0.0,0.0,0.0,0.0,0.0,0.0,0.0,0.0,0.0,0.0,0.0,0.0,0.0,0.0,0.0,0.0,0.0,0.0,-1.1663,-1.2708,-1.2699,-1.4146,-1.5108,-1.5101,-1.3501,-1.2538,-1.2607,-0.9445,0.0,0.0,0.0,0.0,0.0,0.0,0.0,0.0,0.0,0.0,0.0,0.0,0.0,0.0,0.0,0.0,0.0,0.0,0.0,0.0,0.0,0.0,0.0,0.0,0.0,0.0,0.0,0.0,0.0,0.0,0.0,0.0,0.0,0.0,0.0,0.0,0.0,0.0,0.0,0.0,0.0,0.0,0.0,0.0,0.0,0.0,0.0,0.0,0.0,0.0,0.0,0.0,0.0,0.0,0.0,0.0,0.0,0.0,0.0,0.0,0.0,0.0,0.0,0.0,0.0,0.0,0.0,0.0,0.0,0.0,0.0,0.0,0.0,0.0,0.0,0.0,0.0,0.0,0.0,0.0,0.0,0.0,0.0,0.0,0.0,0.0,0.0,0.0,0.0,0.0,0.0,0.0,0.0,0.0,0.0,0.0,0.0,0.0,0.0,0.0,0.0,0.0,-1.1652,-1.2685,-1.2637,-1.4157,-1.517,-1.5153,-1.3556,-1.2591,-1.2666,0.0,0.0,0.0,0.0,0.0,0.0,0.0,0.0,0.0,0.0,0.0,0.0,0.0,0.0,0.0,0.0,0.0,0.0,0.0,0.0,0.0,0.0,0.0,0.0,0.0,0.0,0.0,0.0,0.0,0.0,0.0,0.0,0.0,0.0,0.0,0.0,0.0,0.0,0.0,0.0,0.0,0.0,0.0,0.0,0.0,0.0,0.0,0.0,0.0,0.0,0.0,0.0,0.0,0.0,0.0,0.0,0.0,0.0,0.0,0.0,0.0,0.0,0.0,0.0,0.0,0.0,0.0,0.0,0.0,0.0,0.0,0.0,0.0,0.0,0.0,0.0,0.0,0.0,0.0,0.0,0.0,0.0,0.0,0.0,0.0,0.0,0.0,0.0,0.0,0.0,0.0,0.0,0.0,0.0,0.0,0.0,0.0,0.0,0.0,0.0,0.0,0.0,-1.0335,-1.1808,-1.275,-1.2982,-1.431,-1.5189,-1.5133,-1.357,-1.2585,-1.2632,0.0,0.0,0.0,0.0,0.0,0.0,0.0,0.0,0.0,0.0,0.0,0.0,0.0,0.0,0.0,0.0,0.0,0.0,0.0,0.0,0.0,0.0,0.0,0.0,0.0,0.0,0.0,0.0,0.0,0.0,0.0,0.0,0.0,0.0,0.0,0.0,0.0,0.0,0.0,0.0,0.0,0.0,0.0,0.0,0.0,0.0,0.0,0.0,0.0,0.0,0.0,0.0,0.0,0.0,0.0,0.0,0.0,0.0,0.0,0.0,0.0,0.0,0.0,0.0,0.0,0.0,0.0,0.0,0.0,0.0,0.0,0.0,0.0,0.0,0.0,0.0,0.0,0.0,0.0,0.0,0.0,0.0,0.0,0.0,0.0,0.0,0.0,0.0,0.0,0.0,0.0,0.0,0.0,0.0,0.0,0.0,0.0,0.0,0.0,0.0,0.0,0.0,-1.1066,-1.2093,-1.2941,-1.3802,-1.4672,-1.5159,-1.5015,-1.3461,-1.2503,0.0,0.0,0.0,0.0,0.0,0.0,0.0,0.0,0.0,0.0,0.0,0.0,0.0,0.0,0.0,0.0,0.0,0.0,0.0,0.0,0.0,0.0,0.0,0.0,0.0,0.0,0.0,0.0,0.0,0.0,0.0,0.0,0.0,0.0,0.0,0.0,0.0,0.0,0.0,0.0,0.0,0.0,0.0,0.0,0.0,0.0,0.0,0.0,0.0,0.0,0.0,0.0,0.0,0.0,0.0,0.0,0.0,0.0,0.0,0.0,0.0,0.0,0.0,0.0,0.0,0.0,0.0,0.0,0.0,0.0,0.0,0.0,0.0,0.0,0.0,0.0,0.0,0.0,0.0,0.0,0.0,0.0,0.0,0.0,0.0,0.0,0.0,0.0,0.0,0.0,0.0,0.0,0.0,0.0,0.0,0.0,0.0,0.0,0.0,0.0,0.0,0.0,0.0,-1.1076,-1.2108,-1.2936,-1.381,-1.4685,-1.5171,-1.5133,-1.3519,-1.2544,-1.2642,0.0,0.0,0.0,0.0,0.0,0.0,0.0,0.0,0.0,0.0,0.0,0.0,0.0,0.0,0.0,0.0,0.0,0.0,0.0,0.0,0.0,0.0,0.0,0.0,0.0,0.0,0.0,0.0,0.0,0.0,0.0,0.0,0.0,0.0,0.0,0.0,0.0,0.0,0.0,0.0,0.0,0.0,0.0,0.0,0.0,0.0,0.0,0.0,0.0,0.0,0.0,0.0,0.0,0.0,0.0,0.0,0.0,0.0,0.0,0.0,0.0,0.0,0.0,0.0,0.0,0.0,0.0,0.0,0.0,0.0,0.0,0.0,0.0,0.0,0.0,0.0,0.0,0.0,0.0,0.0,0.0,0.0,0.0,0.0,0.0,0.0,0.0,0.0,0.0,0.0,0.0,0.0,0.0,0.0,0.0,0.0,0.0,0.0,0.0,0.0,0.0,0.0,-1.1554,-1.2329,-1.3059,-1.4245,-1.4827,-1.5107,-1.5076,-1.374,-1.28,-1.255,0.0,0.0,0.0,0.0,0.0,0.0,0.0,0.0,0.0,0.0,0.0,0.0,0.0,0.0,0.0,0.0,0.0,0.0,0.0,0.0,0.0,0.0,0.0,0.0,0.0,0.0,0.0,0.0,0.0,0.0,0.0,0.0,0.0,0.0,0.0,0.0,0.0,0.0,0.0,0.0,0.0,0.0,0.0,0.0,0.0,0.0,0.0,0.0,0.0,0.0,0.0,0.0,0.0,0.0,0.0,0.0,0.0,0.0,0.0,0.0,0.0,0.0,0.0,0.0,0.0,0.0,0.0,0.0,0.0,0.0,0.0,0.0,0.0,0.0,0.0,0.0,0.0,0.0,0.0,0.0,0.0,0.0,0.0,0.0,0.0,0.0,0.0,0.0,0.0,0.0,0.0,0.0,0.0,0.0,0.0,0.0,0.0,0.0,0.0,0.0,0.0,0.0,-1.2278,-1.2718,-1.3328,-1.4935,-1.5047,-1.4989,-1.4912,-1.4057,-1.3171,-1.235,0.0,0.0,0.0,0.0,0.0,0.0,0.0,0.0,0.0,0.0,0.0,0.0,0.0,0.0,0.0,0.0,0.0,0.0,0.0,0.0,0.0,0.0,0.0,0.0,0.0,0.0,0.0,0.0,0.0,0.0,0.0,0.0,0.0,0.0,0.0,0.0,0.0,0.0,0.0,0.0,0.0,0.0,0.0,0.0,0.0,0.0,0.0,0.0,0.0,0.0,0.0,0.0,0.0,0.0,0.0,0.0,0.0,0.0,0.0,0.0,-1.1968,-1.0774,0.0,0.0,0.0,0.0,0.0,0.0,0.0,0.0,0.0,0.0,0.0,0.0,0.0,0.0,0.0,0.0,0.0,0.0,0.0,0.0,0.0,0.0,0.0,0.0,0.0,0.0,0.0,0.0,0.0,0.0,0.0,0.0,0.0,0.0,0.0,0.0,0.0,0.0,0.0,0.0,-1.2425,-1.3193,-1.394,-1.4986,-1.5088,-1.5075,-1.5052,-1.421,-1.3278,-1.2423,-1.0763,0.0,0.0,0.0,0.0,0.0,0.0,0.0,0.0,0.0,0.0,0.0,0.0,0.0,0.0,0.0,0.0,0.0,0.0,0.0,0.0,0.0,0.0,0.0,0.0,0.0,0.0,0.0,0.0,0.0,0.0,0.0,0.0,0.0,0.0,0.0,0.0,0.0,0.0,0.0,0.0,0.0,0.0,0.0,0.0,0.0,0.0,0.0,0.0,0.0,0.0,0.0,0.0,0.0,0.0,0.0,0.0,0.0,0.0,0.0,-1.4335,-1.3188,0.0,0.0,0.0,0.0,0.0,0.0,0.0,0.0,0.0,0.0,0.0,0.0,0.0,0.0,0.0,0.0,0.0,0.0,0.0,0.0,0.0,0.0,0.0,0.0,0.0,0.0,0.0,0.0,0.0,0.0,0.0,0.0,0.0,0.0,0.0,0.0,0.0,0.0,0.0,0.0,-1.2382,-1.3189,-1.3944,-1.4812,-1.4871,-1.4873,-1.4919,-1.4382,-1.3682,-1.2888,-1.1618,0.0,0.0,0.0,0.0,0.0,0.0,0.0,0.0,0.0,0.0,0.0,0.0,0.0,0.0,0.0,0.0,0.0,0.0,0.0,0.0,0.0,0.0,0.0,0.0,0.0,0.0,0.0,0.0,0.0,0.0,0.0,0.0,0.0,0.0,0.0,0.0,0.0,0.0,0.0,0.0,0.0,0.0,0.0,0.0,0.0,0.0,0.0,0.0,0.0,0.0,0.0,0.0,0.0,-1.9333,-1.9056,-1.8629,-1.8576,-1.8998,-1.9647,-1.7396,-1.6521,-1.6626,-1.5168,0.0,0.0,0.0,0.0,0.0,0.0,0.0,0.0,0.0,0.0,0.0,0.0,0.0,0.0,0.0,0.0,0.0,0.0,0.0,0.0,0.0,0.0,-1.3623,-1.401,-1.527,-1.5838,-1.3908,0.0,0.0,0.0,0.0,0.0,0.0,0.0,0.0,0.0,0.0,0.0,-1.2666,-1.3322,-1.3962,-1.4821,-1.4724,-1.4637,-1.4678,-1.4541,-1.4121,-1.3325,-1.2648,-1.1599,0.0,0.0,0.0,0.0,0.0,0.0,0.0,0.0,0.0,0.0,0.0,0.0,0.0,0.0,0.0,0.0,0.0,0.0,0.0,0.0,0.0,0.0,0.0,0.0,0.0,0.0,0.0,0.0,0.0,0.0,0.0,0.0,-0.933,-0.9441,0.0,0.0,0.0,0.0,0.0,0.0,0.0,0.0,0.0,0.0,0.0,0.0,0.0,-1.422,-1.7761,-1.796,-1.9779,-2.3181,-2.2659,-2.2367,-2.2306,-2.2286,-2.2352,-2.2474,-2.215,0.0,-1.761,-1.7379,0.0,0.0,0.0,0.0,0.0,0.0,0.0,0.0,0.0,0.0,0.0,0.0,0.0,0.0,0.0,0.0,0.0,0.0,0.0,0.0,0.0,0.0,-1.6602,-1.5941,-1.6431,-1.6991,-1.6661,-1.5014,-1.3497,-1.3275,-1.2058,-1.0775,0.0,0.0,0.0,0.0,0.0,0.0,-1.423,-1.4485,-1.4839,-1.5639,-1.51,-1.4661,-1.4619,-1.4595,-1.418,-1.3282,-1.3056,-1.261,-1.1811,-1.1073,0.0,0.0,0.0,0.0,0.0,0.0,0.0,0.0,0.0,0.0,0.0,0.0,0.0,0.0,0.0,0.0,0.0,0.0,0.0,0.0,0.0,0.0,0.0,0.0,0.0,0.0,0.0,0.0,0.0,-0.8471,-0.9894,-1.031,-1.0809,-1.1086,0.0,0.0,0.0,0.0,0.0,0.0,0.0,0.0,0.0,-1.775,-1.7379,-1.8172,-2.0336,-2.1188,-2.2469,-2.4173,-2.3911,-2.4042,-2.451,-2.4523,-2.4525,-2.4524,-2.451,-2.334,-2.1386,-2.0431,-1.9075,-1.7482,0.0,0.0,0.0,0.0,-1.488,-1.5714,-1.668,-1.7313,-1.7672,-1.7581,0.0,0.0,0.0,0.0,0.0,0.0,0.0,-1.3725,-1.5472,-1.7359,-1.8785,-1.8709,-1.8931,-1.9008,-1.8439,-1.7182,-1.593,-1.5101,-1.4809,-1.3975,-1.1777,-1.1716,0.0,0.0,0.0,-1.3803,-1.4439,-1.5251,-1.5892,-1.6259,-1.5606,-1.5153,-1.516,-1.4709,-1.4259,-1.3847,-1.3328,-1.2907,-1.2626,-1.188,-1.1148,0.0,0.0,0.0,0.0,0.0,0.0,0.0,0.0,0.0,0.0,0.0,0.0,0.0,0.0,0.0,0.0,0.0,0.0,0.0,0.0,0.0,0.0,0.0,0.0,0.0,0.0,0.0,0.0,-0.9493,-1.0904,-1.137,-1.2516,-1.3109,0.0,0.0,0.0,0.0,0.0,0.0,-1.7234,-1.7523,-1.8474,-2.0301,-2.0866,-2.1672,-2.2781,-2.3886,-2.4531,-2.4738,-2.5175,-2.5742,-2.6385,-2.6835,-2.7022,-2.7008,-2.6942,-2.6542,-2.5759,-2.3437,-2.1803,-2.0678,-1.9375,-1.8476,-1.789,-1.7896,-1.8406,-1.928,-2.0526,-2.1377,-2.1822,-2.139,-2.0546,-1.9329,-1.7202,0.0,0.0,0.0,0.0,-1.5975,-1.8502,-1.9805,-2.0552,-2.0901,-2.0976,-2.0747,-1.9948,-1.9355,-1.8509,-1.6797,-1.6913,-1.6422,-1.3705,-1.3687,0.0,-1.2482,-1.3662,-1.4824,-1.5214,-1.6045,-1.6661,-1.6859,-1.6222,-1.5727,-1.5551,-1.4936,-1.449,-1.4299,-1.3628,-1.3254,-1.326,-1.2566,-1.1817,-1.1058,0.0,0.0,0.0,0.0,0.0,0.0,0.0,0.0,0.0,0.0,0.0,0.0,0.0,0.0,0.0,0.0,0.0,0.0,0.0,0.0,0.0,0.0,0.0,0.0,0.0,0.0,0.0,0.0,0.0,-1.3194,-1.4904,0.0,0.0,0.0,0.0,-1.6086,-1.6888,-1.8139,-1.9996,-2.0822,-2.2105,-2.3979,-2.3838,-2.4291,-2.5481,-2.5583,-2.5616,-2.5642,-2.7304,-2.8125,-2.8223,-2.9883,-3.0591,-3.0545,-3.0539,-3.0477,-3.0053,-2.5961,-2.3234,-2.1624,-2.1539,-2.1438,-2.1362,-2.1422,-2.1959,-2.2658,-2.2745,-2.2763,-2.2855,-2.3581,-2.2707,-2.1199,-2.023,-1.8655,0.0,0.0,-1.892,-1.9613,-2.0471,-2.133,-2.195,-2.1787,-2.1688,-2.1585,-2.1334,-2.1406,-2.0809,-1.8452,-1.7403,-1.6638,-1.569,0.0,-1.5446,-1.5304,-1.5382,-1.595,-1.7349,-1.6992,-1.6866,-1.7568,-1.6992,-1.6238,-1.5465,-1.5375,-1.5016,-1.4252,-1.4038,-1.3952,-1.3952,-1.3125,-1.2338,-1.1657,-1.0923,0.0,0.0,0.0,0.0,0.0,0.0,0.0,0.0,0.0,0.0,0.0,0.0,0.0,0.0,0.0,0.0,0.0,0.0,0.0,0.0,0.0,0.0,0.0,0.0,0.0,0.0,0.0,0.0,-1.5894,-1.7652,0.0,-1.8127,-1.8283,-1.8744,-1.9585,-2.0036,-2.1048,-2.2837,-2.3203,-2.4424,-2.6737,-2.6757,-2.7457,-2.896,-2.9012,-2.9049,-2.9051,-2.9593,-2.984,-2.9853,-3.0438,-3.0665,-3.0608,-3.0657,-3.0634,-3.0458,-2.8987,-2.8046,-2.7498,-2.7438,-2.673,-2.5719,-2.5696,-2.5178,-2.452,-2.4508,-2.4464,-2.4341,-2.3943,-2.34,-2.2734,-2.1725,-2.0582,-1.9888,-2.1215,-2.1405,-2.1469,-2.2741,-2.328,-2.3322,-2.252,-2.2299,-2.2096,-2.1473,-2.1384,-2.1188,-2.0336,-1.962,-1.8544,-1.6671,-1.6686,-1.6598,-1.5592,-1.6276,-1.7098,-1.7572,-1.7893,-1.8162,-1.8324,-1.7681,-1.7093,-1.6724,-1.5784,-1.5092,-1.4808,-1.4253,-1.3944,-1.3944,-1.3127,-1.2362,-1.1642,-1.0905,-1.0105,0.0,0.0,0.0,0.0,0.0,0.0,0.0,0.0,0.0,0.0,0.0,0.0,0.0,0.0,0.0,0.0,0.0,0.0,0.0,0.0,0.0,0.0,0.0,0.0,0.0,-1.5057,-1.7514,-1.8163,-1.995,-2.0954,-2.0487,-2.1442,-2.2424,-2.3261,-2.3995,-2.5022,-2.648,-2.6562,-2.7323,-2.902,-2.9129,-2.9665,-3.0765,-3.0804,-3.0817,-3.0802,-3.1294,-3.1538,-3.1554,-3.2085,-3.2285,-3.2216,-3.2269,-3.225,-3.2216,-3.2196,-3.2222,-3.2143,-3.1012,-3.0083,-2.9331,-2.8926,-2.7701,-2.614,-2.5475,-2.513,-2.4903,-2.4195,-2.3963,-2.3832,-2.3124,-2.2461,-2.2182,-2.324,-2.308,-2.2847,-2.3878,-2.4134,-2.3947,-2.3161,-2.2973,-2.2826,-2.2219,-2.209,-2.198,-2.1693,-2.1132,-2.0097,-1.8147,-1.8175,-1.8035,-1.6738,-1.7375,-1.7986,-1.795,-1.8431,-1.8732,-1.8641,-1.8179,-1.7718,-1.7364,-1.6167,-1.5306,-1.5027,-1.4261,-1.3811,-1.3811,-1.3057,-1.2314,-1.1556,-1.0829,-1.0247,-0.9762,0.0,0.0,0.0,0.0,0.0,0.0,0.0,0.0,0.0,0.0,0.0,0.0,0.0,0.0,0.0,0.0,0.0,0.0,0.0,0.0,0.0,0.0,0.0,-1.6154,-1.7949,-1.9427,-2.0041,-2.1953,-2.2863,-2.1874,-2.4195,-2.6107,-2.6968,-2.8598,-2.99,-3.0741,-3.08,-3.0816,-3.0877,-3.0877,-3.0859,-3.0867,-3.0867,-3.0814,-3.0789,-3.2467,-3.3281,-3.3326,-3.4937,-3.5649,-3.5605,-3.5586,-3.5586,-3.5579,-3.536,-3.5281,-3.4975,-3.1845,-3.1245,-3.1985,-3.0929,-2.9424,-2.7596,-2.5641,-2.4752,-2.4498,-2.4498,-2.4484,-2.4489,-2.4489,-2.4337,-2.4192,-2.4192,-2.3999,-2.3813,-2.3786,-2.3804,-2.3783,-2.37,-2.37,-2.3678,-2.3607,-2.3585,-2.333,-2.2504,-2.1795,-2.1085,-2.0186,-2.0043,-1.9773,-1.8966,-1.873,0.0,-1.862,-1.8544,-1.8485,-1.8485,-1.8426,-1.8071,-1.7285,-1.6535,-1.5749,-1.4881,-1.4135,-1.3688,-1.3589,-1.2939,-1.2217,-1.1403,-1.0743,-1.0341,-1.0144,0.0,0.0,0.0,0.0,0.0,0.0,0.0,0.0,0.0,0.0,0.0,0.0,0.0,0.0,0.0,0.0,0.0,0.0,0.0,0.0,0.0,-1.5765,-1.7153,-1.7318,-2.1023,-2.401,-2.4807,-2.7077,-2.8471,-2.8193,-2.8902,-2.9462,-2.9705,-3.0175,-3.0546,-3.079,-3.0808,-3.1362,-3.2576,-3.261,-3.317,-3.4307,-3.4326,-3.4311,-3.4307,-3.4729,-3.4943,-3.4949,-3.5367,-3.5547,-3.552,-3.5427,-3.533,-3.5219,-3.5013,-3.4851,-3.466,-3.3899,-3.3054,-3.22,-3.1811,-2.9861,-2.7294,-2.6578,-2.5574,-2.4551,-2.4407,-2.4284,-2.4192,-2.404,-2.3919,-2.3831,-2.3831,-2.3789,-2.3725,-2.3721,-2.3721,-2.37,-2.3652,-2.3629,-2.3607,-2.3539,-2.3448,-2.3312,-2.3076,-2.2817,-2.221,-2.093,-2.072,-2.0607,-2.0308,-1.9679,-1.9251,-1.9251,-1.872,-1.8348,-1.8287,-1.8266,-1.8118,-1.7803,-1.7099,-1.6304,-1.5439,-1.4654,-1.3956,-1.3396,-1.265,-1.1887,-1.1127,-1.1024,-1.0968,0.0,0.0,0.0,0.0,0.0,0.0,0.0,0.0,0.0,0.0,0.0,0.0,0.0,0.0,0.0,0.0,0.0,0.0,0.0,0.0,0.0,0.0,-1.8525,-2.0106,-2.0474,-2.3702,-2.6385,-2.729,-2.9343,-3.072,-3.0739,-3.1436,-3.1894,-3.1894,-3.2574,-3.2975,-3.2947,-3.29,-3.3327,-3.4276,-3.4282,-3.4711,-3.5611,-3.5631,-3.5581,-3.5538,-3.5488,-3.547,-3.547,-3.5424,-3.5422,-3.5412,-3.533,-3.5203,-3.5034,-3.4813,-3.4574,-3.4401,0.0,0.0,0.0,0.0,-3.0752,-2.8801,-2.7307,-2.6116,-2.5153,-2.4335,-2.4036,-2.3937,-2.3792,-2.3703,-2.3674,-2.3674,-2.3652,-2.3589,-2.3544,-2.3544,-2.3522,-2.3407,-2.3383,-2.3383,-2.3336,-2.3241,-2.3168,-2.3168,-2.3095,0.0,-2.1855,-2.1504,-2.1193,-2.0748,-2.0222,-1.9859,-1.9836,-1.9112,-1.8564,-1.8498,-1.8185,-1.7954,-1.7878,-1.7156,0.0,0.0,0.0,-1.4316,-1.3295,-1.2537,0.0,0.0,0.0,0.0,0.0,-1.2968,0.0,0.0,-1.1781,-1.2002,0.0,0.0,0.0,0.0,0.0,0.0,0.0,0.0,0.0,0.0,0.0,0.0,0.0,0.0,0.0,0.0,-2.1527,-2.3456,-2.4313,-2.5906,-2.7334,-2.8368,-2.9963,-3.1097,-3.136,-3.2773,-3.3688,-3.3688,-3.5101,-3.5951,-3.5889,-3.5827,0.0,0.0,0.0,-3.553,-3.547,-3.547,-3.5424,-3.53,-3.53,-3.53,-3.53,-3.53,-3.5285,-3.5251,-3.5235,-3.5083,-3.487,-3.4614,-3.4357,-3.4171,-3.4464,-3.4464,-3.4139,-3.2705,-3.1861,-3.1038,-2.8107,0.0,0.0,-2.4508,-2.3927,-2.3761,-2.3678,-2.3611,-2.3562,-2.3539,-2.3494,-2.3424,-2.3313,-2.3265,-2.3241,-2.3119,-2.3077,-2.3095,-2.3095,-2.302,-2.2952,-2.297,-2.2876,-2.2816,-2.2659,-2.2227,-2.1638,-2.0841,-2.0591,-2.046,-2.0387,-1.9624,-1.9053,-1.8896,-1.8249,0.0,-1.7704,-1.7032,-1.6559,-1.6392,-1.569,-1.4715,-1.346,-1.2807,-1.2791,-1.3389,-1.3406,-1.3944,-1.5103,-1.5103,-1.5135,-1.5168,-1.3564,-1.3539,0.0,0.0,0.0,0.0,0.0,0.0,0.0,0.0,0.0,0.0,0.0,0.0,0.0,0.0,0.0,-2.1666,-2.3173,-2.4344,-2.523,-2.6846,-2.851,-3.0029,-3.1797,-3.3416,-3.4785,-3.5268,-3.5508,-3.5503,-3.57,-3.5839,-3.5814,-3.571,-3.5573,-3.5449,-3.5437,-3.538,-3.527,-3.527,-3.5239,-3.5207,-3.5207,0.0,-3.5207,-3.5293,-3.5155,-3.4887,-3.4794,-3.4532,-3.4176,-3.3961,-3.3797,-3.3734,-3.3868,-3.3842,-3.3698,-3.3332,-3.2346,-3.1063,-3.0331,-2.8327,-2.6051,-2.5697,-2.4698,-2.3607,-2.3476,-2.3407,0.0,-2.3217,-2.3193,-2.3168,-2.3144,-2.3095,-2.3045,-2.3045,-2.2995,-2.2944,-2.2944,-2.2825,-2.2738,-2.2685,-2.2579,-2.2443,-2.2304,-2.2415,-2.241,-2.2088,-2.1479,-2.0993,-2.088,-2.0152,-1.9412,-1.8882,-1.868,-1.832,-1.7669,-1.7478,-1.7092,-1.6347,-1.5528,-1.4945,-1.4672,-1.4484,-1.4446,-1.4651,-1.4651,-1.4803,-1.5103,-1.5103,-1.5392,-1.588,-1.5069,-1.4919,0.0,0.0,0.0,0.0,0.0,0.0,0.0,0.0,0.0,0.0,0.0,-1.7246,-1.8565,0.0,-2.152,-2.3282,-2.4339,-2.5109,-2.5539,-2.637,-2.7579,-2.9242,-3.1012,-3.2773,-3.4485,-3.4688,-3.5038,-3.5846,-3.5807,-3.5706,-3.5602,-3.5499,-3.54,-3.5239,-3.5262,-3.5219,-3.5143,-3.5143,-3.5143,-3.5143,-3.5143,-3.5072,-3.4944,-3.4982,-3.4832,-3.4534,-3.4445,-3.42,-3.3899,-3.3597,-3.3433,-3.3357,-3.3386,-3.3444,-3.3491,-3.3422,-3.2857,-3.1986,-3.1153,-2.9287,-2.7119,-2.6236,-2.4837,-2.3494,-2.3383,-2.3289,-2.3193,-2.3095,-2.3045,-2.3045,-2.2944,-2.285,-2.2842,-2.2764,-2.2712,-2.2659,-2.2659,-2.2552,-2.2415,-2.2326,-2.226,-2.2175,-2.2061,-2.2215,-2.2326,-2.2231,-2.1855,-2.1547,-2.1446,-2.0788,-2.0134,-1.9751,-1.9358,-1.8967,-1.8551,-1.8137,-1.7552,-1.6742,-1.5868,-1.5411,-1.5411,-1.495,-1.4888,-1.5279,-1.5365,-1.5549,-1.5847,-1.5918,-1.6088,-1.6344,-1.6072,-1.6098,0.0,0.0,0.0,0.0,0.0,0.0,0.0,0.0,-1.6365,-1.7985,-1.918,-2.0346,-2.1707,-2.2713,-2.3617,-2.4416,-2.5148,-2.5605,-2.5623,-2.5676,-2.6191,-2.7536,-2.9257,-3.0992,-3.2723,-3.2888,-3.3546,-3.5145,-3.5185,-3.5204,-3.5374,-3.5297,-3.5216,-3.5088,-3.519,-3.523,-3.523,-3.5192,-3.5154,-3.5154,-3.5003,-3.4868,-3.4795,-3.4816,-3.4738,-3.4612,-3.4346,-3.4002,-3.3607,-3.3327,-3.3152,-3.2993,-3.2993,-3.3073,-3.3214,-3.3232,-3.3122,-3.2813,-3.1578,-2.9866,-2.8058,-2.6693,-2.4917,-2.3313,-2.3217,-2.3119,-2.3003,-2.2919,-2.2825,-2.273,-2.2544,-2.2508,-2.248,-2.2343,-2.2332,-2.2304,-2.2321,-2.2163,-2.2032,-2.1969,-2.1836,-2.1731,-2.1748,-2.1777,-2.1836,-2.1953,-2.1969,-2.194,-2.1869,-2.1342,-2.087,-2.0607,-2.0024,-1.9547,-1.9328,-1.8708,-1.806,-1.7484,-1.6751,-1.6292,-1.6173,-1.5478,-1.5334,-1.5792,-1.5892,-1.6187,-1.6596,-1.6828,-1.6892,-1.6817,-1.6966,-1.7193,-0.9355,-1.1363,-1.3636,-1.5923,-1.5816,-1.6262,0.0,0.0,-2.0527,-2.1684,-2.3236,-2.4282,-2.3953,-2.4645,-2.5323,-2.5449,-2.5539,-2.5626,-2.5683,-2.5703,-2.5758,-2.5886,-2.7488,-2.9233,-3.0934,-3.1047,-3.1676,-3.3281,-3.3216,-3.3763,-3.5215,-3.519,-3.5091,-3.5001,-3.5471,-3.5681,-3.5638,-3.5469,-3.5367,-3.5349,-3.4628,-3.4599,-3.515,-3.52,-3.5428,-3.567,-3.4697,-3.3795,-3.2993,-3.2979,-3.2834,-3.2672,-3.259,-3.259,-3.2623,-3.2852,-3.2787,-3.2539,-3.2362,-3.0335,-2.7754,-2.7549,-2.5472,-2.302,-2.2876,-2.2816,-2.2712,-2.2515,-2.226,-2.1998,-2.1849,-2.1761,-2.1718,-2.1718,-2.1866,-2.2027,-2.1957,-2.1705,-2.1568,-2.1781,-2.1244,-2.0846,-2.1134,-2.115,-2.1275,-2.1823,-2.1869,-2.1797,-2.1738,-2.1598,-2.1242,-2.0586,-2.0293,-1.9809,-1.9023,-1.8837,-1.8683,-1.862,-1.8469,-1.8095,-1.7508,-1.7397,-1.707,-1.6486,-1.6512,-1.6544,-1.6596,-1.7145,-1.7487,-1.7574,-1.8084,-1.8279,-1.3824,-1.5098,-1.6202,0.0,-1.8861,-2.0027,-2.1939,-2.2368,-2.2679,-2.3824,-2.4692,-2.5149,-2.4989,-2.5317,-2.5595,0.0,-2.562,-2.5661,-2.5702,-2.5668,-2.5619,-2.5547,-2.6173,-2.7296,-2.8993,-2.9156,-2.978,-3.135,-3.2256,-3.2958,-3.3425,-3.4414,-3.5058,-3.5237,-3.5556,-3.5857,-3.6105,-3.5558,-3.5266,-3.5214,-3.4407,-3.4341,-3.4899,-3.4824,-3.4715,-3.4539,-3.4102,-3.3381,-3.2555,-3.2555,-3.2472,-3.237,-3.2318,-3.2214,-3.2144,-3.2438,-3.2472,-3.244,-3.2915,-3.1547,-2.9484,-2.8623,-2.6708,-2.4503,-2.3108,-2.248,-2.2186,-2.1969,-2.1688,-2.143,-2.1507,-2.1538,-2.1568,-2.1675,-2.1794,-2.1794,-2.1491,-2.1275,-2.1118,-2.0943,-2.0715,-2.0565,-2.055,-2.0747,-2.0942,-2.1118,-2.1432,-2.1664,-2.165,-2.1511,-2.1305,-2.0951,-2.0686,-2.0272,-1.9601,-1.9416,-1.9151,-1.8772,-1.8636,-1.8451,-1.8169,-1.8019,-1.7804,-1.7494,-1.7523,-1.7523,-1.7465,-1.7803,-1.7988,-1.7989,-1.8176,-1.853,-1.6794,0.0,0.0,-1.9363,-2.117,-2.2722,-2.271,-2.3299,-2.4104,-2.5011,-2.5253,-2.5359,-2.5505,-2.5576,-2.5613,-2.5618,-2.5662,-2.5699,-2.5646,-2.5605,-2.5521,-2.5421,-2.5383,-2.5846,-2.7073,-2.7224,-2.7875,-2.9442,-3.0983,-3.202,-3.2408,-3.4105,-3.5237,-3.5669,-3.595,-3.6289,-3.6583,-3.5956,-3.5559,-3.5444,-3.4649,-3.4513,-3.5038,-3.486,-3.4456,-3.3882,-3.3653,-3.302,-3.2179,-3.2179,-3.2091,-3.2036,-3.2227,-3.2204,-3.2053,-3.2485,-3.2525,-3.2509,-3.3293,-3.2489,-3.0802,-2.9211,-2.748,-2.5535,-2.3177,-2.2195,-2.1814,-2.1587,-2.1181,-2.0878,-2.1071,-2.1103,-2.1118,-2.1244,-2.1354,-2.1323,-2.0943,-2.0715,-2.055,-2.0265,-2.0108,-2.0054,-2.0089,-2.0345,-2.053,-2.0483,-2.0991,-2.1388,-2.1402,-2.1246,-2.1119,-2.1006,-2.0827,-2.0556,-2.0115,-1.994,-1.9672,-1.9171,-1.9014,-1.8873,-1.8672,-1.8452,-1.8265,-1.8082,-1.8113,-1.8113,-1.8082,-1.8313,-1.8436,-1.8435,-1.8507,-1.8956,0.0,0.0,-2.0354,-2.1367,-2.2449,-2.3497,-2.4329,-2.4738,-2.4991,-2.5165,-2.5255,-2.5368,-2.5561,-2.5593,-2.5626,-2.5683,-2.5702,-2.5648,-2.5512,-2.5496,-2.5428,-2.5236,-2.5255,-2.5274,0.0,-2.5252,-2.5945,-2.7554,-2.8915,-3.0753,-3.313,-3.4609,-3.5688,-3.6361,-3.6872,-3.715,-3.7093,-3.6823,-3.6554,-3.6345,-3.5525,-3.5421,-3.5857,-3.5782,-3.5357,-3.4618,-3.3773,-3.2859,-3.1894,-3.1856,-3.1688,-3.1585,-3.2303,-3.2576,-3.2662,-3.324,-3.3093,-3.2679,-3.3413,-3.2616,-3.0963,-2.9017,-2.7288,-2.5428,-2.2878,-2.1983,-2.1738,-2.1392,-2.0745,-2.0204,-2.0447,-2.0261,-1.9954,-1.9969,-2.0261,-2.0481,-2.0277,-1.9914,-1.9722,-1.9958,-1.9398,-1.9072,-1.9793,-1.9879,-1.9929,-2.0174,-2.0563,-2.086,-2.0893,-2.0844,-2.0728,-2.0561,-2.0527,-2.046,-2.0308,-2.0273,-2.0258,-2.0243,-2.0124,-1.9749,-1.9107,-1.8992,-1.867,-1.8017,-1.8017,-1.8017,-1.8017,-1.854,-1.8857,-1.8988,-1.9521,-1.9823,-1.9604,0.0,-2.1492,-2.2456,-2.3368,-2.4182,-2.4733,-2.4943,-2.5077,-2.5339,-2.5379,-2.5413,-2.5574,-2.5639,-2.5657,-2.5643,-2.5605,-2.5556,-2.5517,-2.5395,-2.5264,-2.5154,-2.5107,0.0,0.0,0.0,-2.5285,-2.5649,-2.8538,-3.049,-3.1033,-3.4175,-3.6176,-3.6585,-3.6953,-3.7174,-3.7291,-3.6666,-3.6238,-3.6,-3.5643,-3.5472,-3.5518,-3.5925,-3.5394,-3.4024,-3.3727,-3.2861,-3.1651,-3.1504,-3.1696,-3.2049,-3.2205,-3.2286,-3.2409,-3.3032,-3.2869,-3.2471,-3.3345,-3.3234,-3.226,-2.9303,-2.7906,-2.6711,-2.3359,-2.1842,-2.1255,-2.1089,-2.0365,-1.969,-1.9965,-1.9949,-1.9859,-2.0015,-2.0124,-2.0058,-1.9752,-1.9573,-1.9427,-1.9229,-1.8997,-1.886,-1.9087,-1.9221,-1.942,-1.9654,-2.0308,-2.0761,-2.0646,-2.0613,-2.0595,-2.0527,-2.0426,-2.0407,-2.0426,-2.0373,-2.027,-2.0185,-2.0115,-1.9974,-1.9706,-1.9587,-1.9411,-1.9185,-1.9135,-1.9135,-1.917,-1.9361,-1.9552,-1.9671,-1.9778,-1.9884,-2.1971,-2.2522,-2.269,-2.3652,-2.4308,-2.4799,-2.5041,-2.5133,-2.5139,-2.5066,-2.5013,-2.4949,-2.4734,-2.4715,-2.4823,-2.5116,-2.5106,-2.5156,-2.5381,-2.533,-2.5182,-2.508,-2.5226,-2.5324,0.0,0.0,0.0,-2.4692,-2.8199,-3.0323,-3.0316,-3.4199,-3.6585,-3.6951,-3.7106,-3.7236,-3.7279,-3.6748,-3.635,-3.6038,-3.5901,-3.574,-3.557,-3.5734,-3.5025,-3.3639,-3.3349,-3.2508,-3.1325,-3.1251,-3.1474,-3.1909,-3.2073,-3.2174,-3.2288,-3.2836,-3.2777,-3.2542,-3.3193,-3.3372,-3.2805,-2.9895,-2.8543,-2.7422,-2.4122,-2.2303,-2.1362,-2.0971,-2.0236,-1.9618,-1.9683,-1.9588,-1.9479,-1.9588,-1.9594,-1.9492,-1.9221,-1.9161,-1.9049,-1.8644,-1.8644,-1.8697,-1.8659,-1.8965,-1.9265,-1.9376,-1.9889,-2.0239,-2.0115,-2.0204,-2.0239,-2.0239,-2.0289,-2.0339,-2.0426,-2.0339,-2.027,-2.0185,-2.0115,-2.0045,-2.0005,-1.9848,-1.9762,-1.9762,-1.9726,-1.9726,-1.9762,-1.9762,-1.9797,-1.9884,-1.9797,-1.9797,-2.3664,-2.3745,-2.3983,-2.4878,-2.5194,-2.5303,-2.5293,-2.5365,-2.5185,-2.4321,-2.4161,-2.3927,0.0,0.0,-2.328,-2.4186,-2.4341,-2.4568,-2.5202,-2.5322,-2.5267,0.0,0.0,0.0,0.0,0.0,0.0,-2.4823,-2.797,-3.0293,-3.1066,-3.4686,-3.6916,-3.7374,-3.7392,-3.7241,-3.6987,-3.6987,-3.6788,-3.6461,-3.6251,-3.6122,-3.5958,-3.5258,-3.444,-3.3566,-3.2696,-3.1847,-3.1005,-3.1063,-3.1136,-3.1209,-3.1917,-3.2193,-3.2254,-3.2672,-3.2817,-3.2817,-3.2924,-3.2924,-3.2545,-3.0668,-2.9093,-2.75,-2.4993,-2.3289,-2.1997,-2.1057,-2.0347,-1.9807,-1.9546,-1.9109,-1.8784,-1.8784,-1.8784,-1.876,-1.8673,-1.8673,-1.8595,-1.8282,-1.8361,-1.8503,-1.8553,-1.8988,-1.9339,-1.9339,-1.9339,-1.9339,-1.9413,-1.9639,-1.9788,-1.9823,-2.0115,-2.027,-2.0304,-2.027,-2.027,-2.027,-2.0111,-2.0005,-1.997,-1.9797,-1.969,-1.969,-1.969,-1.969,-1.969,-1.969,-1.969,-1.969,-1.969,-1.969,-2.3755,-2.4347,-2.4881,-2.5113,-2.5243,-2.5303,-2.5359,-2.4935,-2.4309,-2.3476,-2.2838,-2.2181,0.0,0.0,0.0,-2.3244,-2.4184,0.0,-2.5064,-2.5539,0.0,-2.5471,0.0,-2.6581,-2.641,-2.6169,0.0,-2.7211,-2.9214,-3.0704,-3.135,-3.4889,-3.697,-3.7087,-3.7087,-3.6987,-3.6766,-3.6502,-3.6335,-3.6105,-3.5993,-3.5817,-3.5694,-3.5453,-3.4616,-3.335,-3.3152,-3.2384,-3.1255,-3.1118,-3.1356,-3.1815,-3.1844,-3.1865,-3.1949,-3.1982,-3.1736,-3.1349,-3.1276,-3.1649,-3.1814,-2.9854,-2.8305,-2.6923,-2.5101,-2.3337,-2.1729,-2.0961,-2.0246,-1.9609,-1.9094,-1.8836,-1.875,-1.875,-1.8673,-1.8542,-1.8361,-1.8439,-1.8478,-1.8242,-1.8242,-1.8268,-1.8307,-1.8307,-1.8268,-1.8268,-1.8268,-1.8606,-1.9508,-1.9675,-1.9818,-1.9995,-2.0061,-2.0096,-2.015,-2.0096,-2.0025,-1.994,-1.9884,-1.9848,-1.9762,-1.9726,-1.969,-1.969,-1.969,-1.969,-1.969,-1.969,-1.969,-1.969,-1.969,-1.969,-2.4491,-2.4964,-2.534,-2.5359,-2.541,-2.5236,-2.4503,-2.4025,-2.3151,-2.1177,-2.0735,0.0,-1.857,-2.0188,0.0,0.0,0.0,0.0,-2.4953,-2.5636,-2.5976,0.0,-2.6617,0.0,-2.6881,-2.7254,-2.7942,-2.8916,-3.019,-3.1355,-3.2278,-3.5232,-3.6891,-3.6771,-3.6731,-3.6609,-3.6377,-3.6122,-3.5949,-3.5844,-3.5711,-3.5577,-3.5458,-3.5429,-3.4562,-3.3144,-3.3208,-3.2418,-3.1045,-3.099,-3.1207,-3.1526,-3.1348,-3.1362,-3.1407,-3.1248,-3.097,-3.0568,-3.0507,-3.0718,-3.094,-2.9871,-2.8623,-2.7238,-2.5825,-2.4253,-2.2646,-2.1098,-2.0385,-1.9859,-1.9002,-1.862,-1.8478,-1.8478,-1.8361,-1.8202,-1.8083,-1.8163,-1.8202,-1.8083,-1.7989,-1.7949,-1.8043,-1.7963,-1.7882,-1.7882,-1.7882,-1.8254,-1.9199,-1.9332,-1.9515,-1.9889,-1.9955,-2.0041,-2.0045,-2.0025,-1.997,-1.9884,-1.9848,-1.9762,-1.9762,-1.9726,-1.969,-1.969,-1.969,-1.969,-1.969,-1.969,-1.969,-1.969,-1.969,-1.969,-2.5441,-2.5476,-2.5536,-2.5596,-2.5599,-2.5158,-2.3412,-2.2887,-2.1798,-1.8434,0.0,-1.7917,-1.5644,-1.7733,-1.9915,-2.0308,0.0,-2.3938,-2.4828,-2.5575,-2.5944,-2.5708,-2.688,-2.7583,-2.7302,-2.85,-2.9559,-3.0232,-3.1175,-3.2264,-3.3456,-3.5549,-3.6632,-3.6461,-3.6318,-3.6174,-3.5932,-3.5844,-3.5711,-3.5577,-3.5441,-3.535,-3.5245,-3.5182,-3.4312,-3.2884,-3.2982,-3.2117,-3.068,-3.0906,-3.0875,-3.0799,-3.0764,-3.0762,-3.0702,-3.0568,-3.0447,-3.0266,-3.0266,-3.0144,-3.0036,-3.0205,-2.9344,-2.7969,-2.6671,-2.5388,-2.3863,-2.131,-2.0529,-2.0147,-1.892,-1.84,-1.8163,-1.8163,-1.8043,-1.7882,-1.7828,-1.7842,-1.7882,-1.7882,-1.7693,-1.7557,-1.7788,-1.7828,-1.7801,-1.7801,-1.7801,-1.8016,-1.8707,-1.8831,-1.9095,-1.9566,-1.9848,-1.9919,-1.9884,-1.9919,-1.9955,-1.9955,-1.9848,-1.9797,-1.9797,-1.9726,-1.969,-1.969,-1.969,-1.969,-1.969,-1.969,-1.969,-1.969,-1.969,-1.969,-2.5564,-2.5564,-2.5595,-2.559,-2.5605,-2.5158,-2.348,-2.1978,0.0,0.0,-1.5889,-1.4853,-1.4413,-1.5873,-1.7821,-1.9898,0.0,0.0,0.0,0.0,-2.5763,0.0,0.0,0.0,-2.7593,-2.8974,0.0,-3.1568,-3.2869,-3.3772,-3.4144,-3.5503,-3.6251,-3.6105,-3.6062,-3.5932,-3.5667,-3.5667,-3.5549,-3.5337,-3.5337,-3.5198,-3.4947,-3.4431,-3.3738,-3.2761,-3.2315,-3.1718,-3.1008,-3.0881,-3.0822,-3.0778,-3.0658,-3.0507,-3.0387,-3.0387,-3.028,-3.0111,-3.0111,-2.9837,-2.9512,-2.9974,-2.9254,-2.7969,-2.6548,-2.5232,-2.3653,-2.0899,-2.0085,-1.9765,-1.8398,-1.8003,-1.7963,-1.7963,-1.7922,-1.7842,-1.7611,-1.757,-1.7652,-1.7882,-1.7693,-1.7516,-1.7557,-1.7447,-1.7323,-1.7323,-1.7323,-1.7639,-1.85,-1.8745,-1.8921,-1.9244,-1.9566,-1.9639,-1.9369,-1.9603,-1.9762,-1.9762,-1.9726,-1.9726,-1.9726,-1.9632,-1.9611,-1.9611,-1.9611,-1.9611,-1.9611,-1.9654,-1.969,-1.969,-1.969,-1.969,-2.5604,-2.5604,-2.5595,-2.56,-2.5288,-2.4404,-2.2232,0.0,0.0,0.0,-1.4059,-1.3183,-1.2247,0.0,0.0,0.0,0.0,0.0,0.0,0.0,0.0,0.0,0.0,0.0,0.0,-2.9617,-3.1202,-3.1694,-3.3825,-3.5132,-3.5272,-3.5728,-3.5949,-3.58,-3.5773,-3.5701,-3.5566,-3.5085,-3.4833,-3.4706,-3.4399,-3.4086,-3.3885,-3.3598,-3.3024,-3.2241,-3.2003,-3.1522,-3.0821,-3.0821,-3.0762,-3.0702,-3.0507,-3.0387,-3.0312,-3.0219,-2.996,-2.9699,-2.9699,-2.9449,-2.9212,-2.9289,-2.901,-2.8418,-2.7055,-2.5813,-2.4319,-2.1499,-2.0257,-1.9492,-1.8221,-1.7788,-1.7693,-1.7693,-1.7625,-1.7502,-1.7365,-1.7365,-1.7365,-1.7502,-1.7447,-1.7365,-1.7365,-1.7282,-1.7199,-1.7199,-1.7199,-1.7434,-1.8108,-1.8226,-1.8539,-1.9132,-1.9147,-1.8997,-1.8831,-1.9161,-1.9398,-1.9398,-1.9581,-1.969,-1.969,-1.9654,-1.9632,-1.9632,-1.9632,-1.9632,-1.9632,-1.969,-1.969,-1.969,-1.969,-1.969,-2.5595,-2.5595,-2.5595,-2.5621,-2.5005,-2.3712,-2.1107,-1.9066,0.0,0.0,-1.2597,-1.1944,-1.0719,0.0,0.0,0.0,0.0,0.0,0.0,0.0,0.0,0.0,0.0,0.0,-2.7269,-3.0041,0.0,-3.1517,-3.4284,-3.5993,-3.6096,-3.5756,-3.5577,-3.5594,-3.5475,-3.5383,-3.5228,-3.4545,-3.4119,-3.3919,-3.3407,-3.3077,-3.2879,-3.2772,-3.2336,-3.1637,-3.1622,-3.1233,-3.0628,-3.0702,-3.0702,-3.0507,-3.0387,-3.0251,-3.019,-2.9974,-2.9651,-2.9247,-2.9184,-2.9008,-2.8844,-2.8651,-2.8844,-2.8864,-2.7501,-2.629,-2.4833,-2.2079,-2.0475,-1.926,-1.8057,-1.757,-1.7434,-1.7434,-1.7323,-1.7199,-1.7199,-1.7199,-1.7199,-1.7199,-1.7199,-1.7199,-1.7199,-1.7199,-1.7199,-1.7199,-1.7199,-1.7352,-1.776,-1.772,-1.7988,-1.8817,-1.8655,-1.8461,-1.8344,-1.8822,-1.9064,-1.8988,-1.942,-1.9654,-1.9581,-1.9654,-1.969,-1.969,-1.9654,-1.9617,-1.9617,-1.9617,-1.9617,-1.9617,-1.9654,-1.969,-2.5598,-2.5609,-2.5604,-2.5671,-2.504,-2.3731,-2.1165,0.0,0.0,-1.3435,-1.1588,-1.0635,-1.1274,-1.1704,0.0,0.0,0.0,-1.8682,0.0,0.0,0.0,0.0,0.0,0.0,-2.698,-2.9795,-3.1517,-3.1517,-3.4176,-3.5817,-3.5817,-3.5224,-3.5085,-3.5492,-3.54,-3.4977,-3.4333,-3.4235,-3.3818,-3.3093,-3.3039,-3.2864,-3.254,-3.2059,-3.1694,-3.148,-3.097,-3.0687,-3.0568,-3.0628,-3.0507,-3.0312,-3.0312,-3.0129,-2.9808,-2.9498,-2.9261,-2.9099,-2.878,-2.8471,-2.821,-2.8522,-2.8844,-2.8801,-2.7196,-2.5941,-2.4517,-2.18,-2.0193,-1.9021,-1.7626,-1.724,-1.724,-1.724,-1.7199,-1.7199,-1.7199,-1.7199,-1.7199,-1.7199,-1.7199,-1.7199,-1.7199,-1.7199,-1.7199,-1.7199,-1.7199,-1.7352,-1.776,-1.7475,-1.7434,-1.7868,-1.8266,-1.8344,-1.7908,-1.863,-1.8936,-1.8592,-1.9273,-1.9545,-1.9176,-1.945,-1.9611,-1.9611,-1.9487,-1.9413,-1.9413,-1.9413,-1.9413,-1.9413,-1.9538,-1.9611,-2.5525,-2.5652,-2.5671,-2.5693,-2.4656,-2.3081,-2.1016,0.0,-1.534,-1.326,-1.1436,-1.0302,-1.0659,-1.1118,-1.2208,0.0,0.0,0.0,0.0,0.0,0.0,0.0,-2.4497,0.0,0.0,0.0,-3.182,-3.3156,-3.3712,-3.4153,-3.4447,-3.4944,-3.4961,-3.4382,-3.4545,-3.4284,-3.3598,-3.3182,-3.2756,-3.2321,-3.2033,-3.1694,-3.1465,-3.1263,-3.1087,-3.0925,-3.0568,-3.0447,-3.0387,-3.0341,-3.0219,-3.0158,-2.9822,-2.9623,-2.9435,-2.9008,-2.8716,-2.8471,-2.8341,-2.821,-2.8079,-2.8,-2.8197,-2.8376,-2.7763,-2.672,-2.5306,-2.2959,-2.1272,-1.9772,-1.817,-1.7473,-1.7199,-1.7199,-1.7199,-1.7199,-1.7199,-1.7199,-1.7199,-1.7199,-1.7199,-1.7199,-1.7199,-1.7199,-1.7199,-1.7199,-1.7199,-1.7282,-1.7434,-1.7323,-1.7282,-1.7434,-1.7598,-1.7639,-1.7434,-1.7988,-1.8383,-1.85,-1.8945,-1.9258,-1.9413,-1.9465,-1.9501,-1.9501,-1.9413,-1.9465,-1.9538,-1.9538,-1.9523,-1.9581,-1.9611,-1.9611,-2.5078,-2.5503,-2.5698,-2.5705,-2.4389,-2.2636,0.0,-1.7838,-1.4882,-1.315,-1.1402,-1.02,-1.0202,-1.0856,-1.1883,0.0,0.0,-1.5304,0.0,0.0,0.0,0.0,0.0,-2.5114,-2.5774,-2.8831,-3.1729,-3.4007,-3.3443,-3.3039,-3.3093,-3.4235,-3.4545,-3.3802,-3.3869,-3.3665,-3.3145,-3.2446,-3.1905,-3.1564,-3.1161,-3.0895,-3.0762,-3.0762,-3.0702,-3.0568,-3.0387,-3.0312,-3.0266,-3.0172,-2.9988,-2.9851,-2.9435,-2.9247,-2.9071,-2.8587,-2.8276,-2.8079,-2.7947,-2.7947,-2.7881,-2.759,-2.7669,-2.7947,-2.7947,-2.7112,-2.5752,-2.3764,-2.1616,-1.9625,-1.8192,-1.7512,-1.7199,-1.7199,-1.7157,-1.7157,-1.7157,-1.7157,-1.7157,-1.7157,-1.7157,-1.7199,-1.7199,-1.7199,-1.7199,-1.7199,-1.7199,-1.7199,-1.7199,-1.7199,-1.7199,-1.7199,-1.7199,-1.7199,-1.7199,-1.7557,-1.7948,-1.8266,-1.8717,-1.9109,-1.9362,-1.945,-1.9465,-1.9413,-1.9413,-1.9465,-1.9501,-1.9501,-1.9523,-1.9508,-1.9523,-1.9538,-2.4176,-2.5036,-2.57,-2.5691,-2.4391,-2.2633,0.0,-1.7806,-1.483,-1.314,-1.1405,-1.0199,-1.0196,-1.0861,-1.1699,-1.2565,0.0,0.0,-1.933,0.0,0.0,0.0,0.0,-2.4624,-2.5949,-2.8481,-3.1018,-3.3425,-3.3582,-3.3093,-3.1898,-3.2841,-3.3649,-3.4185,-3.3547,-3.3145,-3.2986,-3.2407,-3.1637,-3.0821,-3.0821,-3.0702,-3.0568,-3.0568,-3.0568,-3.0568,-3.0387,-3.0312,-3.0266,-3.0172,-2.9775,-2.931,-2.931,-2.9008,-2.8587,-2.821,-2.8079,-2.8013,-2.7669,-2.7523,-2.7536,-2.7523,-2.7523,-2.7523,-2.7523,-2.6739,-2.5458,-2.3707,-2.0753,-1.7983,-1.7369,-1.7199,-1.7199,-1.7199,-1.7115,-1.7002,-1.7002,-1.7002,-1.7002,-1.7002,-1.7115,-1.7199,-1.7199,-1.7199,-1.7199,-1.7199,-1.7199,-1.7199,-1.7199,-1.7199,-1.7199,-1.7199,-1.7199,-1.7199,-1.7199,-1.7557,-1.7787,-1.7787,-1.863,-1.9049,-1.8893,-1.9362,-1.9538,-1.9413,-1.9413,-1.9376,-1.9302,-1.9302,-1.9228,-1.9101,-1.9228,-1.9339,-2.0682,-2.1112,-2.1171,-2.0586,-1.9985,-1.9094,-1.7345,-1.5631,-1.3931,-1.2204,-1.0934,-1.0136,-1.0136,-1.0337,-1.1363,-1.3981,-1.4814,0.0,0.0,0.0,0.0,-2.2823,-2.4133,-2.5899,-2.8367,-2.9038,-3.0307,-3.2585,-3.2296,-3.1879,-3.1467,-3.1667,-3.1921,-3.2185,-3.2391,-3.213,-3.1522,-3.1306,-3.1043,-3.0642,-3.0642,-3.0642,-3.0568,-3.0447,-3.0387,-3.0387,-3.0068,-2.9931,-2.9946,-2.9602,-2.9352,-2.9149,-2.8638,-2.8392,-2.821,-2.7802,-2.7669,-2.7669,-2.7523,-2.7523,-2.7523,-2.7523,-2.7523,-2.7523,-2.7523,-2.7275,-2.64,-2.3813,-2.0875,-1.8455,-1.7857,-1.7372,-1.7086,-1.7086,-1.7115,-1.7115,-1.7002,-1.7086,-1.7157,-1.7157,-1.7157,-1.7199,-1.7199,-1.7199,-1.7199,-1.7199,-1.7199,-1.7199,-1.7199,-1.7199,-1.7199,-1.7199,-1.7199,-1.7199,-1.7199,-1.7323,-1.7516,-1.7787,-1.8266,-1.8655,-1.8808,-1.9213,-1.9339,-1.9176,-1.9302,-1.9139,-1.8822,-1.9302,-1.9302,-1.8898,-1.8936,-1.8898,0.0,-1.8555,-1.8672,-1.8139,-1.7706,-1.7041,-1.5614,-1.4368,-1.3105,-1.1689,-1.0714,-1.0094,-1.0109,-1.0624,-1.1734,-1.3867,-1.4979,0.0,0.0,0.0,0.0,-2.2297,0.0,0.0,-2.8931,-2.8839,-2.9627,-3.2112,-3.161,-3.1234,-3.1234,-3.1132,-3.1073,-3.1117,-3.1495,-3.1537,-3.1146,-3.0925,-3.0702,-3.0568,-3.0568,-3.0568,-3.0507,-3.0387,-3.0266,-3.0205,-2.9808,-2.9623,0.0,-2.9085,-2.8844,-2.8651,-2.8276,-2.8013,-2.7868,-2.759,-2.7523,-2.7523,-2.7523,-2.7523,-2.7523,-2.7523,-2.7469,-2.7403,-2.7403,-2.709,-2.6232,-2.3683,-2.1276,-1.918,-1.8157,-1.7458,-1.7002,-1.7002,-1.7044,-1.7086,-1.696,-1.7044,-1.7115,-1.7115,-1.7115,-1.7115,-1.7115,-1.7115,-1.7073,-1.7073,-1.7073,-1.7073,-1.7073,-1.7073,-1.7073,-1.7073,-1.7073,-1.7073,-1.7073,-1.7157,-1.7365,-1.7679,-1.7908,-1.8187,-1.85,-1.8707,-1.8745,-1.863,-1.8745,-1.863,-1.8305,-1.8898,-1.9101,-1.8898,-1.8898,-1.886,0.0,-1.6871,-1.7537,-1.7456,-1.6841,-1.6006,-1.5128,-1.3736,0.0,-1.1487,-1.0656,-1.0167,-1.0347,-1.1547,-1.2635,-1.3064,-1.4958,-1.713,0.0,-2.0072,0.0,0.0,-2.4229,-2.5852,-2.8024,-2.8093,-2.9124,-3.182,-3.1452,-3.1087,-3.1087,-3.1087,-3.0955,-3.0762,-3.0955,-3.1219,-3.1637,-3.1102,-3.0702,-3.0568,-3.0568,-3.0447,-3.0266,-3.0251,-3.0205,-2.9974,-2.9512,-2.9247,-2.9184,-2.8766,-2.8406,-2.8079,-2.8079,-2.7815,-2.7523,-2.7523,-2.7523,-2.7523,-2.7523,-2.7456,-2.7469,-2.7469,-2.7403,-2.7268,-2.7268,-2.6466,-2.5135,-2.347,-2.1753,-2.0036,-1.8332,-1.7454,-1.7002,-1.696,-1.6918,-1.6918,-1.6876,-1.696,-1.7002,-1.7002,-1.7002,-1.7002,-1.7002,-1.6918,-1.6876,-1.6876,-1.6876,-1.6876,-1.6876,-1.6876,-1.6876,-1.6918,-1.6876,-1.6876,-1.6876,-1.7086,-1.7282,-1.7434,-1.7598,-1.7747,-1.7948,-1.7988,-1.7948,-1.7787,-1.7908,-1.7948,-1.7868,-1.8266,-1.8669,-1.9064,-1.9026,-1.9026,-1.1594,0.0,-1.2939,-1.2216,-1.2362,-1.2465,0.0,-1.1524,-1.1464,0.0,0.0,0.0,-1.2659,-1.2194,-1.3024,-1.7611,-1.8127,-1.8914,-2.1618,0.0,0.0,-2.3794,-2.4424,-2.5798,-2.8415,-2.8163,-2.8809,-3.1142,-3.1058,-3.0895,-3.0895,-3.0762,-3.0702,-3.0642,-3.0702,-3.0747,-3.0851,-3.0687,-3.0568,-3.0387,-3.0387,-3.0266,-3.0158,-3.0021,-2.9747,-2.9512,-2.9275,-2.9022,-2.8702,-2.8392,-2.8145,-2.8079,-2.7736,-2.7603,-2.7523,-2.7523,-2.7523,-2.7523,-2.7523,-2.7403,-2.7335,-2.7146,-2.7214,-2.7268,-2.7146,-2.627,-2.5025,-2.3697,-2.1818,-1.9951,-1.8648,-1.7632,-1.6876,-1.6803,-1.6876,-1.696,-1.6918,-1.7044,-1.7115,-1.7002,-1.7002,-1.696,-1.6918,-1.6918,-1.6876,-1.6876,-1.6876,-1.6876,-1.6876,-1.6876,-1.6918,-1.696,-1.6918,-1.6876,-1.6876,-1.6918,-1.7002,-1.7044,-1.7352,-1.7503,-1.7476,-1.7814,-1.7948,-1.7787,-1.7828,-1.8068,-1.8553,-1.8266,-1.8305,-1.8707,-1.8383,-1.8187,-1.0305,-1.1214,-1.2039,-1.1512,-1.1715,-1.1914,-1.1412,0.0,0.0,0.0,0.0,0.0,0.0,0.0,0.0,0.0,-1.884,0.0,0.0,0.0,-2.4126,-2.3518,-2.426,-2.5644,-2.785,-2.763,-2.8388,-3.0749,-3.0821,-3.0702,-3.0702,-3.0642,-3.0568,-3.0568,-3.0568,-3.0568,-3.0568,-3.0568,-3.0507,-3.0312,-3.0312,-3.0205,-2.996,-2.9699,-2.9435,-2.9198,-2.8844,-2.8522,-2.8341,-2.8,-2.7802,-2.7802,-2.7603,-2.7523,-2.7523,-2.7523,-2.7469,-2.7403,-2.7403,-2.7268,-2.7146,-2.7146,-2.7066,-2.6998,-2.6875,-2.6375,-2.5535,-2.3834,-2.2382,-2.0805,-1.8923,-1.7778,-1.7097,-1.6782,-1.6761,-1.6846,-1.6803,-1.6918,-1.7044,-1.696,-1.6876,-1.6846,-1.6803,-1.6748,-1.6705,-1.6705,-1.6748,-1.6791,-1.6735,-1.6748,-1.6791,-1.6778,-1.6748,-1.6705,-1.6705,-1.6705,-1.6705,-1.6705,-1.6989,-1.706,-1.6951,-1.7173,-1.7297,-1.7214,-1.7214,-1.7503,-1.8068,-1.7747,-1.7828,-1.8226,-1.7988,-1.7868,-1.0593,-1.1895,-1.3072,-1.267,-1.2749,-1.2852,-1.2723,0.0,0.0,0.0,0.0,0.0,0.0,0.0,0.0,0.0,0.0,0.0,-2.1352,-2.3185,-2.4048,-2.2964,-2.392,-2.5318,-2.7104,-2.7063,-2.7973,-3.0572,-3.0642,-3.0539,-3.0437,-3.0524,-3.0524,-3.0437,-3.0524,-3.0568,-3.0568,-3.0568,-3.0447,-3.0266,-3.019,-3.0007,-2.9685,-2.9373,-2.9071,-2.8908,-2.8341,-2.8079,-2.8013,-2.7669,-2.7523,-2.7523,-2.7523,-2.7456,-2.7469,-2.7469,-2.7403,-2.7268,-2.7268,-2.7146,-2.7024,-2.7146,-2.693,-2.6714,-2.6658,-2.6589,-2.6105,-2.4178,-2.3077,-2.1888,-1.9168,-1.8075,-1.753,-1.7042,-1.6865,-1.6845,-1.6845,-1.6854,-1.6876,-1.6876,-1.6761,-1.6675,-1.6675,-1.6577,-1.6522,-1.6522,-1.662,-1.6633,-1.6522,-1.6696,-1.6802,-1.669,-1.669,-1.6647,-1.6635,-1.6647,-1.6647,-1.6647,-1.667,-1.662,-1.6522,-1.6522,-1.6522,-1.6522,-1.6565,-1.682,-1.7199,-1.7282,-1.7475,-1.7787,-1.776,-1.772,-1.1968,-1.357,-1.4299,-1.2145,-1.2668,-1.3517,-1.278,0.0,0.0,0.0,0.0,0.0,0.0,0.0,-1.7601,0.0,0.0,-2.1663,0.0,0.0,-2.2933,-2.3403,-2.3409,-2.4506,-2.7345,-2.7152,-2.7893,-3.0453,-3.0628,-3.0335,-2.9798,-3.0277,-3.0321,-2.9784,-3.0292,-3.0507,-3.0326,-3.0326,-3.0266,-3.0111,-2.9699,-2.9387,-2.9226,-2.883,-2.8522,-2.8276,-2.8145,-2.7881,-2.7603,-2.7536,-2.7523,-2.7523,-2.7523,-2.7403,-2.7335,-2.7335,-2.7335,-2.7268,-2.7079,-2.7024,-2.6943,-2.6739,-2.6658,-2.6658,-2.6589,-2.6521,-2.6269,-2.4921,-2.355,-2.192,-1.9548,-1.8684,-1.8346,-1.8012,-1.7758,-1.7505,-1.739,-1.7122,-1.6876,-1.6761,-1.6718,-1.6675,-1.6565,-1.6522,-1.6522,-1.6522,-1.6522,-1.6565,-1.6675,-1.7124,-1.746,-1.7505,-1.746,-1.7403,-1.7333,-1.7269,-1.725,-1.725,-1.6785,-1.6522,-1.6522,-1.6522,-1.6522,-1.6522,-1.6905,-1.7115,-1.7199,-1.7557,-1.776,-1.7787,-1.7434,-1.7282,-1.1166,-1.2571,-1.3648,-1.2796,-1.4194,-1.576,-1.5659,0.0,0.0,0.0,0.0,0.0,0.0,0.0,-1.9385,-2.1166,0.0,-2.2068,-2.2392,-2.283,-2.312,-2.3219,-2.3413,-2.4491,-2.6973,-2.6638,-2.7302,-2.9871,-2.974,-2.9421,-2.9131,-2.9334,-2.9291,-2.9001,-2.9218,-2.9418,-2.9703,-2.9448,-2.9421,-2.9637,-2.9435,-2.9135,-2.8844,-2.8471,-2.8276,-2.8079,-2.7868,-2.7669,-2.7523,-2.7523,-2.7469,-2.7403,-2.7403,-2.7335,-2.7268,-2.7214,-2.7146,-2.7079,-2.6943,-2.6807,-2.6739,-2.6658,-2.6589,-2.6589,-2.6521,-2.6533,-2.6226,-2.5134,-2.3828,-2.2392,-2.0413,-1.9384,-1.8725,-1.8327,-1.8096,-1.7953,-1.7895,-1.7738,-1.7485,-1.715,-1.7327,-1.7339,-1.6721,-1.7081,-1.737,-1.72,-1.7359,-1.7561,-1.7696,-1.7925,-1.8045,-1.8078,-1.7999,-1.7907,-1.7895,-1.7861,-1.7827,-1.7827,-1.7576,-1.7426,-1.7426,-1.7426,-1.7287,-1.6986,-1.7206,-1.714,-1.6808,-1.7342,-1.7414,-1.7102,-1.7226,-1.7114,-1.0688,-1.1705,-1.2921,-1.3929,0.0,-1.7043,-1.7892,0.0,0.0,0.0,0.0,0.0,0.0,-1.9899,0.0,-2.1574,-2.1836,-2.1965,-2.2034,-2.2778,-2.3175,-2.2733,-2.3288,-2.4417,-2.6366,-2.6083,-2.6794,-2.9218,-2.8956,-2.8608,-2.8407,-2.8424,-2.8368,-2.8224,-2.8183,-2.8382,-2.8822,-2.8376,-2.8488,-2.9101,-2.8913,-2.8529,-2.8039,-2.7878,-2.7735,-2.7749,-2.7604,-2.7523,-2.7523,-2.7523,-2.7469,-2.7335,-2.7335,-2.7268,-2.7214,-2.7079,-2.6956,-2.6875,-2.6726,-2.6589,-2.6521,-2.6589,-2.6589,-2.6533,-2.6533,-2.6533,-2.6289,-2.5435,-2.4205,-2.2786,-2.1255,-2.0037,-1.9108,-1.8681,-1.848,-1.844,-1.8392,-1.8292,-1.8078,-1.7652,-1.7915,-1.794,-1.7175,-1.7685,-1.81,-1.7854,-1.8113,-1.838,-1.8554,-1.8576,-1.857,-1.857,-1.8488,-1.844,-1.8392,-1.8392,-1.8442,-1.8581,-1.8342,-1.8204,-1.8204,-1.8204,-1.8003,-1.7589,-1.7576,-1.735,-1.6911,-1.735,-1.735,-1.6923,-1.7375,-1.7338,-1.2096,-1.2555,-1.3137,-1.5382,0.0,0.0,-1.7333,-1.7115,0.0,-1.9094,0.0,0.0,0.0,-2.0783,-2.1301,-2.2348,-2.191,-2.1406,-2.129,-2.1809,-2.22,-2.2074,-2.2585,-2.3749,-2.5662,-2.5821,-2.6605,-2.8594,-2.8582,-2.8237,-2.7605,-2.7996,-2.794,-2.741,-2.7897,-2.7981,-2.7614,-2.7555,-2.7875,-2.8563,-2.7732,-2.701,-2.6441,-2.6683,-2.6804,-2.683,-2.7301,-2.7523,-2.7523,-2.7523,-2.7456,-2.7456,-2.7456,-2.7268,-2.7024,-2.7024,-2.6807,-2.6521,-2.6658,-2.6589,-2.6533,-2.6533,-2.6533,-2.6533,-2.6533,-2.6533,-2.6508,-2.6433,-2.4795,-2.2874,-2.1732,-2.0709,-1.9863,-1.9698,-1.9409,-1.9105,-1.897,-1.8568,-1.8191,-1.8154,-1.8179,-1.8179,-1.8103,-1.8154,-1.8191,-1.8154,-1.8179,-1.8251,-1.838,-1.8836,-1.9154,-1.9154,-1.9154,-1.9056,-1.897,-1.892,-1.9171,-1.966,-1.8756,-1.8204,-1.8204,-1.8204,-1.8191,-1.8141,-1.8141,-1.8129,-1.8091,-1.8129,-1.8129,-1.8091,-1.8129,-1.8129,-1.0976,-1.1957,-1.3177,-1.4823,0.0,0.0,0.0,0.0,0.0,-2.1366,-2.1546,0.0,0.0,0.0,-2.0732,-2.1439,-2.0895,-2.0531,-2.0907,-2.1137,-2.1338,-2.1515,-2.2353,-2.3496,-2.5081,-2.5474,-2.6341,-2.7859,-2.7434,-2.6995,-2.6766,-2.6857,-2.6706,-2.63,-2.6428,-2.6509,-2.6521,-2.6285,-2.6348,-2.6639,-2.6639,-2.6396,-2.6011,-2.6109,-2.6138,-2.6151,-2.6373,-2.6674,-2.7,-2.6869,-2.7024,-2.7335,-2.7214,-2.7011,-2.6794,-2.6289,-2.607,-2.5931,-2.5873,-2.5804,-2.5816,-2.6314,-2.6533,-2.6533,-2.6533,-2.6533,-2.6533,-2.6533,-2.536,-2.3929,-2.2799,-2.1167,-1.9862,-1.9798,-1.9699,-1.956,-1.951,-1.9346,-1.9108,-1.8781,-1.8982,-1.9032,-1.8412,-1.8805,-1.9132,-1.8986,-1.9081,-1.9246,-1.9506,-1.9535,-1.9611,-1.9674,-1.9611,-1.9548,-1.951,-1.951,-1.9597,-1.9798,-1.9422,-1.9196,-1.9196,-1.9196,-1.9045,-1.8719,-1.8719,-1.8543,-1.8204,-1.8543,-1.8543,-1.8216,-1.8555,-1.853,-1.0413,-1.1476,-1.2945,0.0,0.0,0.0,0.0,0.0,0.0,-2.2254,-2.2493,0.0,-2.1931,0.0,0.0,-2.0846,-2.0261,-1.9933,-2.0414,-2.0618,-2.0765,-2.083,-2.2076,-2.3322,-2.4423,-2.5178,-2.6012,-2.7061,-2.6583,-2.6233,-2.6111,-2.5962,-2.5798,-2.5508,-2.5411,-2.5379,-2.5486,-2.5253,-2.509,-2.5044,-2.5442,-2.5458,-2.5288,-2.5471,-2.555,-2.5563,-2.5683,-2.5983,-2.6399,-2.622,-2.6492,-2.7022,-2.7015,-2.6726,-2.6289,-2.5779,-2.5569,-2.5429,-2.5075,-2.5229,-2.5746,-2.6025,-2.6314,-2.6533,-2.6533,-2.6533,-2.6533,-2.6533,-2.5674,-2.4556,-2.3366,-2.1744,-2.0238,-1.9886,-1.9798,-1.9798,-1.9798,-1.9798,-1.9698,-1.9334,-1.956,-1.9623,-1.8965,-1.9359,-1.9724,-1.9559,-1.9661,-1.9862,-2.0067,-1.9901,-1.9862,-1.9926,-1.9862,-1.9798,-1.9798,-1.9798,-1.9798,-1.9798,-1.9798,-1.9798,-1.9798,-1.9798,-1.9635,-1.9284,-1.9271,-1.9083,-1.8706,-1.9083,-1.9083,-1.8719,-1.9095,-1.907,-1.0906,-1.1404,0.0,0.0,0.0,0.0,0.0,0.0,0.0,-2.1411,0.0,-2.2034,-2.15,-2.1162,-2.0958,-2.0911,-2.023,-1.969,-1.969,-2.0221,-2.0487,-2.0142,-2.1758,-2.3103,-2.3645,-2.4869,-2.5787,-2.6244,-2.6179,-2.6002,-2.5729,-2.5592,-2.5369,-2.5005,-2.5005,-2.4821,-2.4509,-2.4509,-2.4363,-2.4112,-2.4112,-2.4112,-2.4138,-2.47,-2.5022,-2.4988,-2.5439,-2.5686,-2.5749,-2.5649,-2.5922,-2.6413,-2.6793,-2.6427,-2.5557,-2.5557,-2.5429,-2.5158,-2.4409,-2.5134,-2.6383,-2.5594,-2.5886,-2.6533,-2.6533,-2.6533,-2.6533,-2.6533,-2.5674,-2.4582,-2.3366,-2.2322,-2.1217,-2.0075,-1.9798,-1.9798,-1.9798,-1.9798,-1.9798,-1.9798,-1.9798,-1.9798,-1.9798,-1.9798,-1.9798,-1.9798,-1.9798,-1.9798,-1.9798,-1.9798,-1.9798,-1.9798,-1.9798,-1.9798,-1.9798,-1.9798,-1.9798,-1.9798,-1.9798,-1.9798,-1.9798,-1.9798,-1.9798,-1.9798,-1.9798,-1.9798,-1.9798,-1.9798,-1.9798,-1.9798,-1.9798,-1.9798,-1.0971,0.0,0.0,0.0,0.0,0.0,0.0,0.0,0.0,0.0,-2.1276,-2.1007,-2.1039,-2.0516,-2.0108,-2.0128,-1.9717,-1.9398,-1.9288,-2.0201,-2.0823,-2.0633,-2.256,-2.4003,-2.4175,-2.526,-2.5912,-2.5879,-2.5948,-2.5853,-2.5592,-2.5494,-2.5369,-2.5005,-2.4765,-2.4536,-2.4216,-2.4216,-2.4157,-2.4112,-2.4112,-2.4112,-2.4125,-2.4295,-2.4374,-2.4374,-2.4497,-2.4797,-2.5214,-2.528,-2.5236,-2.5044,-2.5153,-2.4909,-2.4541,-2.4541,-2.448,-2.448,-2.4862,-2.5229,-2.5734,-2.6025,-2.6314,-2.6533,-2.6533,-2.6533,-2.6533,-2.6533,-2.6226,-2.5536,-2.3627,-2.2887,-2.2171,-2.025,-1.9798,-1.9798,-1.9798,-1.9798,-1.9798,-1.9798,-1.9798,-1.9798,-1.9798,-1.9798,-1.9798,-1.9798,-1.9798,-1.9798,-1.9798,-1.9798,-1.9798,-1.9798,-1.9798,-1.9798,-1.9798,-1.9798,-1.9798,-1.9798,-1.9798,-1.9798,-1.9798,-1.9798,-1.9798,-1.9798,-1.9798,-1.9798,-1.9798,-1.9798,-1.9798,-1.9798,-1.9798,-1.9798,-1.1495,0.0,0.0,0.0,0.0,0.0,-2.0872,0.0,0.0,0.0,-2.0714,-2.0431,-2.0429,-2.005,-1.9696,-1.9551,-1.9325,-1.9168,-1.9078,-2.0114,-2.0824,-2.0782,-2.2898,-2.4376,-2.4341,-2.5374,-2.6002,-2.5784,-2.5839,-2.5729,-2.5313,-2.5313,-2.5075,-2.4677,-2.4434,-2.4261,-2.4112,-2.4112,-2.4112,-2.4112,-2.4112,-2.4112,-2.4112,-2.4112,-2.4054,-2.4008,-2.4008,-2.3999,-2.3997,-2.4556,-2.4587,-2.4309,-2.4423,-2.4306,-2.4108,-2.4108,-2.4108,-2.4192,-2.4636,-2.5229,-2.5804,-2.5955,-2.6245,-2.6533,-2.6533,-2.6533,-2.6533,-2.6533,-2.6533,-2.595,-2.3715,-2.3078,-2.2573,-2.0338,-1.9798,-1.9798,-1.9798,-1.9798,-1.9798,-1.9798,-1.9798,-1.9798,-1.9798,-1.9798,-1.9798,-1.9798,-1.9798,-1.9798,-1.9798,-1.9798,-1.9798,-1.9798,-1.9798,-1.9798,-1.9798,-1.9798,-1.9798,-1.9798,-1.9798,-1.9798,-1.9798,-1.9798,-1.9798,-1.9798,-1.9798,-1.9798,-1.9798,-1.9798,-1.9798,-1.9798,-1.9798,-1.9798,-1.2266,0.0,0.0,0.0,0.0,0.0,-2.048,-2.0745,-2.0613,-2.0277,0.0,-2.0089,-1.9747,-1.9696,-1.9588,-1.9176,-1.9017,-1.9037,-1.9152,-2.0124,-2.0912,-2.1026,-2.3093,-2.4511,-2.4388,-2.5406,-2.6002,-2.5839,-2.5839,-2.5619,-2.5005,-2.4948,-2.4721,-2.4171,-2.4112,-2.4112,-2.4112,-2.4112,-2.4112,-2.4112,-2.4112,-2.4112,-2.4054,-2.4112,-2.4008,-2.3891,-2.3832,-2.3258,-2.2469,-2.3542,-2.3862,-2.3743,-2.4094,-2.412,-2.3906,-2.4051,-2.4074,-2.4192,-2.4253,-2.5288,-2.6383,-2.5664,-2.5886,-2.6533,-2.6533,-2.6465,-2.6383,-2.6465,-2.6465,-2.5907,-2.3779,-2.3153,-2.2598,-2.0464,-1.9874,-1.9798,-1.9747,-1.9747,-1.9798,-1.9759,-1.9747,-1.9798,-1.9798,-1.9798,-1.9798,-1.9798,-1.9798,-1.9798,-1.9798,-1.9798,-1.9798,-1.9798,-1.9798,-1.9798,-1.9798,-1.9798,-1.9798,-1.9798,-1.9798,-1.9798,-1.9798,-1.9798,-1.9798,-1.9798,-1.9798,-1.9798,-1.9798,-1.9798,-1.9798,-1.9798,-1.9798,-1.9798,0.0,-1.3285,0.0,0.0,0.0,-2.0289,-1.9893,-1.9874,-1.998,-2.0227,-1.9752,-1.9362,-1.9654,-1.9398,-1.913,-1.9031,-1.8927,-1.918,-2.0196,-2.131,-2.237,-2.3348,-2.469,-2.5554,-2.5554,-2.5793,-2.5729,-2.523,-2.5425,-2.53,-2.4637,-2.4637,-2.4523,-2.4408,-2.4216,-2.4112,-2.4112,-2.4112,-2.4112,-2.4112,-2.4112,-2.4067,-2.3949,-2.4067,-2.4008,-2.3891,-2.3292,-2.2786,-2.2408,-2.2476,-2.2101,-2.1554,-2.1989,-2.2351,-2.2772,-2.3404,-2.4225,-2.5146,-2.5721,-2.6233,-2.6452,-2.6314,-2.6383,-2.6533,-2.6533,-2.6025,-2.5664,-2.6314,-2.6025,-2.5371,-2.4613,-2.3803,-2.2799,-2.1443,-2.0451,-1.9695,-1.9239,-1.95,-1.9708,-1.9239,-1.95,-1.9798,-1.9798,-1.9798,-1.9798,-1.9798,-1.9798,-1.9798,-1.9798,-1.9798,-1.9798,-1.9798,-1.9798,-1.9798,-1.9798,-1.9798,-1.9798,-1.9798,-1.9798,-1.9798,-1.9798,-1.9798,-1.9798,-1.9798,-1.9798,-1.9798,-1.9798,-1.9798,-1.9798,-1.9798,-1.9798,-1.9798,0.0,0.0,0.0,0.0,0.0,0.0,-1.9624,-1.9435,-1.9435,-1.9624,-1.9347,-1.9116,-1.9339,-1.9168,-1.8993,-1.8927,-1.8812,-1.9177,-2.0443,-2.1605,-2.2771,-2.4013,-2.5202,-2.5893,-2.5893,-2.5798,-2.5592,-2.5244,-2.5257,-2.5061,-2.4523,-2.4509,-2.4465,-2.4305,-2.4157,-2.4112,-2.4112,-2.4112,-2.4112,-2.4112,-2.3878,-2.37,-2.3509,-2.3424,-2.3305,-2.3125,-2.2798,-2.2286,-2.1827,-2.2339,-2.2285,-2.1838,-2.2035,-2.2434,-2.2983,-2.3723,-2.441,-2.5033,-2.6146,-2.6533,-2.6465,-2.6025,-2.6176,-2.6383,-2.5581,-2.5581,-2.5886,-2.5886,-2.5886,-2.5628,-2.4546,-2.3452,-2.2358,-2.0861,-2.0182,-1.9695,-1.9448,-1.9592,-1.9695,-1.9448,-1.9604,-1.9798,-1.9798,-1.9798,-1.9798,-1.9798,-1.9798,-1.9798,-1.9798,-1.9798,-1.9798,-1.9798,-1.9798,-1.9798,-1.9798,-1.9798,-1.9798,-1.9798,-1.9798,-1.9798,-1.9798,-1.9798,-1.9798,-1.9798,-1.9798,-1.9798,-1.9798,-1.9798,-1.9798,-1.9798,-1.9798,-1.9798,0.0,0.0,0.0,0.0,0.0,0.0,-1.9413,-1.9176,-1.9031,-1.8979,-1.904,-1.9078,-1.9031,-1.8993,-1.8941,-1.8798,-1.8882,-1.9383,-2.0627,-2.1766,-2.2971,-2.4184,-2.5236,-2.5784,-2.5729,-2.5536,-2.5383,-2.5313,-2.5061,-2.4765,-2.4465,-2.4408,-2.4305,-2.4112,-2.4112,-2.4112,-2.4112,-2.4112,-2.4112,-2.4112,-2.37,-2.339,-2.3198,-2.2738,-2.2543,-2.2567,-2.2433,-2.2002,-2.1376,-2.2445,-2.2837,-2.2659,-2.2711,-2.3023,-2.355,-2.4073,-2.437,-2.473,-2.5909,-2.6246,-2.6039,-2.5499,-2.5664,-2.5873,-2.4696,-2.5146,-2.6,-2.5472,-2.5669,-2.5667,-2.414,-2.2855,-2.1606,-2.0236,-1.9809,-1.9643,-1.954,-1.9643,-1.9747,-1.9708,-1.9759,-1.9747,-1.9643,-1.9695,-1.9798,-1.9798,-1.9798,-1.9798,-1.9798,-1.9798,-1.9798,-1.9798,-1.9798,-1.9798,-1.9798,-1.9798,-1.9798,-1.9798,-1.9798,-1.9798,-1.9798,-1.9798,-1.9798,-1.9798,-1.9798,-1.9798,-1.9798,-1.9798,-1.9798,-1.9798,-1.9798,-1.9798,0.0,0.0,0.0,0.0,0.0,-1.8872,0.0,0.0,-1.9026,0.0,-1.8927,-1.9031,-1.8993,-1.8889,-1.8798,-1.875,-1.9512,-2.0612,-2.1809,-2.3062,-2.4226,-2.5217,-2.5453,-2.5425,-2.5174,-2.5061,-2.4948,-2.4637,-2.458,-2.4478,-2.4171,-2.4157,-2.4171,-2.4112,-2.4112,-2.4112,-2.4112,-2.4112,-2.4112,-2.4112,-2.3949,-2.37,-2.3497,-2.2738,-2.275,-2.321,-2.2628,-2.2249,-2.199,-2.2175,-2.1913,-2.1418,-2.1961,-2.2558,-2.3103,-2.3188,-2.3839,-2.4866,-2.5536,-2.5308,-2.4836,-2.5155,-2.4933,-2.448,-2.5004,-2.4791,-2.4601,-2.5351,-2.474,-2.3944,-2.4309,-2.2545,-2.0845,-2.1519,-2.0361,-1.8975,-1.8417,-1.9109,-1.9643,-1.9198,-1.95,-1.9592,-1.8975,-1.9384,-1.9798,-1.9798,-1.9798,-1.9798,-1.9798,-1.9798,-1.9798,-1.9798,-1.9798,-1.9798,-1.9798,-1.9798,-1.9798,-1.9798,-1.9798,-1.9798,-1.9798,-1.9798,-1.9798,-1.9798,-1.9798,-1.9798,-1.9798,-1.9798,-1.9798,-1.9798,-1.9798,-1.9798,-1.0926,0.0,0.0,0.0,0.0,-1.7939,-1.8215,0.0,-1.9026,-1.8822,-1.8889,-1.8993,-1.8889,-1.8836,-1.8669,-1.8254,-1.8847,-1.9908,-2.155,-2.2374,-2.3506,-2.5273,-2.5313,-2.5188,-2.5005,-2.5005,-2.4878,-2.4523,-2.4509,-2.4363,-2.4112,-2.4112,-2.4112,-2.4112,-2.4112,-2.4112,-2.4112,-2.4008,-2.3819,-2.3569,-2.3582,-2.3463,-2.321,-2.2944,-2.2823,-2.2823,-2.2433,-2.2175,-2.2113,-2.2494,-2.2506,-2.2261,-2.2567,-2.2837,-2.3096,-2.3416,-2.3675,-2.3894,-2.4423,-2.4603,-2.4438,-2.3526,-2.4237,-2.524,-2.4024,-2.4128,-2.4744,-2.4408,-2.392,-2.3306,-2.2685,-2.1198,-1.9969,-1.9905,-1.889,-1.7929,-1.7809,-1.8578,-1.9239,-1.8881,-1.9028,-1.9226,-1.9279,-1.9592,-1.9798,-1.9798,-1.9798,-1.9798,-1.9798,-1.9798,-1.9798,-1.9798,-1.9798,-1.9798,-1.9798,-1.9798,-1.9798,-1.9798,-1.9798,-1.9798,-1.9798,-1.9798,-1.9798,-1.9798,-1.9798,-1.9798,-1.9798,-1.9798,-1.9798,-1.9798,-1.9798,-1.9798,0.0,0.0,0.0,0.0,-1.6007,-1.6692,0.0,0.0,-1.8743,-1.8541,-1.8736,-1.8889,-1.8798,-1.8707,-1.8461,-1.7868,-1.8397,-1.9461,-2.1131,-2.1876,-2.299,-2.5011,-2.5131,-2.4948,-2.4778,-2.4835,-2.4765,-2.4421,-2.4421,-2.4319,-2.4112,-2.4112,-2.4112,-2.4112,-2.4112,-2.4112,-2.4112,-2.4008,-2.37,-2.3258,-2.339,-2.3271,-2.303,-2.3078,-2.2944,-2.2628,-2.2433,-2.2359,-2.2359,-2.2871,-2.3078,-2.3065,-2.2944,-2.2884,-2.2873,-2.317,-2.2929,-2.2607,-2.3132,-2.3427,-2.344,-2.2228,-2.3364,-2.4801,-2.3074,-2.3598,-2.4542,-2.3735,-2.3352,-2.2718,-2.103,-1.9927,-1.9131,-1.8437,-1.7862,-1.7479,-1.7644,-1.8267,-1.8709,-1.8429,-1.8483,-1.8643,-1.8898,-1.9423,-1.9798,-1.9798,-1.9798,-1.9798,-1.9798,-1.9798,-1.9798,-1.9798,-1.9798,-1.9798,-1.9798,-1.9798,-1.9798,-1.9798,-1.9798,-1.9798,-1.9798,-1.9798,-1.9798,-1.9798,-1.9798,-1.9798,-1.9798,-1.9798,-1.9798,-1.9798,-1.9798,-1.9798,0.0,0.0,0.0,0.0,0.0,0.0,0.0,0.0,-1.8007,-1.7789,-1.8332,-1.8798,-1.8711,-1.8489,-1.8187,-1.7747,-1.8974,-2.0165,-2.082,-2.24,-2.3753,-2.449,-2.4821,-2.4778,-2.4229,-2.4376,-2.4421,-2.4171,-2.4112,-2.4112,-2.4112,-2.4112,-2.4112,-2.4112,-2.4112,-2.4112,-2.4112,-2.4112,-2.3936,-2.3569,-2.3556,-2.3509,-2.3403,-2.3198,-2.3198,-2.333,-2.3138,-2.3078,-2.3065,-2.3078,-2.3078,-2.3065,-2.2433,-2.2163,-2.2051,-2.1463,-2.1233,-2.1302,-2.1839,-2.1585,-2.1173,-2.2185,-2.1996,-2.1638,-2.288,-2.3167,-2.3227,-2.3665,-2.3121,-2.1976,-2.0083,-1.9033,-1.8493,-1.855,-1.8337,-1.8038,-1.8093,-1.8093,-1.8038,-1.7644,-1.7863,-1.7776,-1.6761,-1.8363,-1.9798,-1.9798,-1.9798,-1.9798,-1.9798,-1.9798,-1.9798,-1.9798,-1.9798,-1.9798,-1.9798,-1.9798,-1.9798,-1.9798,-1.9798,-1.9798,-1.9798,-1.9798,-1.9798,-1.9798,-1.9798,-1.9798,-1.9798,-1.9798,-1.9798,-1.9798,-1.9798,-1.9798,0.0,0.0,0.0,-1.1801,-1.2763,-1.3661,-1.4689,-1.5883,-1.6952,-1.7576,-1.7916,-1.8111,-1.8104,-1.804,-1.7894,-1.7639,-1.8125,-1.8814,-1.9575,-2.1108,-2.2458,-2.3312,-2.404,-2.4345,-2.4112,-2.4363,-2.4421,-2.4112,-2.4261,-2.4261,-2.4112,-2.4112,-2.4112,-2.4112,-2.4112,-2.4067,-2.3949,-2.3819,-2.3747,-2.3628,-2.3378,-2.333,-2.3403,-2.3198,-2.3138,-2.3198,-2.3138,-2.3078,-2.3078,-2.3078,-2.2884,-2.2494,-2.2689,-2.2187,-2.1502,-2.1678,-2.1175,-2.0506,-2.0673,-2.0809,-2.0795,-2.0452,-2.1202,-2.2143,-2.182,-2.2151,-2.2562,-2.2389,-2.2198,-2.152,-1.9254,-1.8201,-1.7599,-1.7265,-1.7109,-1.7022,-1.7022,-1.7279,-1.7534,-1.7479,-1.7224,-1.7346,-1.8417,-1.9267,-1.9798,-1.9798,-1.9798,-1.9798,-1.9798,-1.9798,-1.9798,-1.9798,-1.9798,-1.9798,-1.9798,-1.9798,-1.9798,-1.9798,-1.9798,-1.9798,-1.9798,-1.9798,-1.9798,-1.9798,-1.9798,-1.9798,-1.9798,-1.9798,-1.9798,-1.9798,-1.9798,-1.9798,-0.8497,0.0,0.0,0.0,0.0,-1.2223,-1.3454,-1.4645,-1.5736,-1.6562,-1.7079,-1.7413,-1.7603,-1.7463,-1.729,-1.7188,-1.7434,-1.7929,-1.8695,-1.9847,-2.0984,-2.1955,-2.3025,-2.3638,-2.3537,-2.4138,-2.4421,-2.4112,-2.4261,-2.4261,-2.4112,-2.4112,-2.4112,-2.4112,-2.4112,-2.4067,-2.3891,-2.376,-2.3628,-2.3509,-2.333,-2.3271,-2.3271,-2.3138,-2.3005,-2.275,-2.3005,-2.2944,-2.275,-2.275,-2.2372,-2.1803,-2.2249,-2.1753,-2.0805,-2.1227,-2.073,-1.9781,-1.9781,-1.9985,-2.0189,-1.9624,-2.0508,-2.171,-2.105,-2.1363,-2.1816,-2.1294,-2.1426,-2.129,-1.9065,-1.7729,-1.6919,-1.6732,-1.6534,-1.6384,-1.6384,-1.6694,-1.7056,-1.7435,-1.6909,-1.7134,-1.9423,-1.9798,-1.9798,-1.9798,-1.9798,-1.9798,-1.9798,-1.9798,-1.9798,-1.9798,-1.9798,-1.9488,-1.8727,-1.9371,-1.9798,-1.9798,-1.9798,-1.9695,-1.9436,-1.95,-1.954,-1.954,-1.954,-1.9604,-1.9798,-1.9798,-1.9798,-1.9798,-1.9798,-1.9798,0.0,0.0,0.0,0.0,0.0,0.0,-1.2179,-1.3385,-1.4285,-1.4687,-1.575,-1.6768,-1.7153,-1.6765,-1.6427,-1.6439,-1.7047,-1.7705,-1.8257,-1.8911,-1.9635,-2.0515,-2.1863,-2.2644,-2.24,-2.3662,-2.4323,-2.4112,-2.4112,-2.4112,-2.4112,-2.4112,-2.4112,-2.4112,-2.4112,-2.4008,-2.3891,-2.3891,-2.37,-2.3403,-2.3403,-2.3271,-2.3078,-2.3065,-2.2689,-2.2113,-2.275,-2.2689,-2.2039,-2.2113,-2.1741,-2.1123,-2.1123,-2.0677,-2.0096,-2.0107,-1.9649,-1.9075,-1.9075,-1.9075,-1.9198,-1.9846,-1.9959,-1.9875,-2.0547,-2.0796,-2.0762,-2.0441,-2.1,-2.1269,-1.9458,-1.7698,-1.6534,-1.7045,-1.6797,-1.6384,-1.6384,-1.6384,-1.6648,-1.7379,-1.6909,-1.7134,-1.9371,-1.9798,-1.9798,-1.9798,-1.9798,-1.9798,-1.9798,-1.9747,-1.9695,-1.9695,-1.9695,-1.878,-1.6602,-1.8417,-1.9695,-1.9747,-1.9747,-1.9436,-1.8709,-1.8881,-1.8987,-1.8987,-1.8987,-1.9239,-1.9798,-1.9798,-1.9798,-1.9798,-1.9798,-1.9798,-0.7962,0.0,0.0,0.0,0.0,0.0,-1.0489,-1.1144,-1.2101,-1.3798,-1.4415,-1.4925,-1.5708,-1.6035,-1.6121,-1.5872,-1.6568,-1.7248,-1.7501,-1.8534,-1.933,-1.9402,-2.0512,-2.155,-2.235,-2.2729,-2.3267,-2.4047,-2.4112,-2.4112,-2.4112,-2.4112,-2.4112,-2.4112,-2.4008,-2.3949,-2.3891,-2.3641,-2.3463,-2.3403,-2.3271,-2.3138,-2.3065,-2.2616,-2.2298,-2.2101,-2.1803,-2.1239,-2.0794,-2.2237,-2.2125,-2.1123,-2.1616,-2.0846,-1.9462,-1.9911,-1.9649,-1.9075,-1.9075,-1.9075,-1.9131,-1.933,-1.9348,-1.9328,-1.9519,-1.9599,-1.9458,-1.8951,-1.8837,-1.8589,-1.7429,-1.6757,-1.6431,-1.6591,-1.6488,-1.6384,-1.6384,-1.6384,-1.6591,-1.7157,-1.749,-1.7831,-1.8471,-1.9267,-1.9798,-1.9798,-1.9798,-1.9798,-1.9798,-1.8363,-1.7346,-1.7346,-1.7346,-1.7078,-1.6431,-1.6976,-1.7556,-1.807,-1.8405,-1.8471,-1.8255,-1.8321,-1.8536,-1.8987,-1.8987,-1.9239,-1.9798,-1.9798,-1.9798,-1.9798,-1.9798,-1.9798,0.0,0.0,0.0,0.0,0.0,0.0,-0.989,-1.0088,-1.0662,-1.2385,-1.2926,-1.3384,-1.4264,-1.4831,-1.5118,-1.5095,-1.5734,-1.6421,-1.7133,-1.7916,-1.8381,-1.8192,-1.9211,-2.0191,-2.0858,-2.1381,-2.1956,-2.2622,-2.3119,-2.3602,-2.4086,-2.4112,-2.4054,-2.4008,-2.3949,-2.3832,-2.3713,-2.3522,-2.3343,-2.3271,-2.2884,-2.2689,-2.2689,-2.199,-2.1553,-2.1227,-2.1123,-2.0741,-2.0226,-2.169,-2.1502,-2.0355,-2.0974,-2.0409,-1.9198,-1.9846,-1.9649,-1.9075,-1.9075,-1.9075,-1.9075,-1.9075,-1.894,-1.8785,-1.8785,-1.8744,-1.863,-1.8288,-1.7698,-1.7046,-1.6519,-1.6384,-1.6384,-1.6384,-1.6384,-1.6384,-1.6384,-1.6384,-1.6488,-1.6797,-1.7179,-1.7667,-1.8632,-1.8578,-1.8363,-1.8363,-1.8363,-1.8363,-1.8363,-1.7234,-1.6384,-1.6384,-1.6384,-1.6384,-1.6384,-1.6384,-1.6694,-1.7313,-1.782,-1.7984,-1.7754,-1.7699,-1.7875,-1.8267,-1.8494,-1.9016,-1.9798,-1.9798,-1.9798,-1.9798,-1.9798,-1.9798,0.0,0.0,0.0,0.0,0.0,0.0,-0.987,-0.9728,-0.9855,-1.0717,-1.1324,-1.1955,-1.2772,-1.3271,-1.371,-1.4046,-1.4606,-1.5453,-1.6805,-1.7003,-1.7003,-1.7003,-1.7957,-1.8675,-1.8806,-1.9812,-2.0568,-2.0699,-2.1655,-2.2622,-2.3681,-2.3851,-2.3871,-2.3768,-2.3826,-2.3772,-2.3463,-2.3403,-2.333,-2.3138,-2.2494,-2.2175,-2.2113,-2.1439,-2.0741,-2.0226,-2.0741,-2.0677,-2.0172,-2.0741,-2.0291,-1.9264,-1.9846,-1.9715,-1.9198,-1.9781,-1.9584,-1.9054,-1.8951,-1.892,-1.8909,-1.8806,-1.8526,-1.8226,-1.8226,-1.8185,-1.8133,-1.8071,-1.7253,-1.6384,-1.6384,-1.6384,-1.6384,-1.6384,-1.6384,-1.6384,-1.6384,-1.6384,-1.6384,-1.6384,-1.6384,-1.7022,-1.9056,-1.7722,-1.6384,-1.6384,-1.6384,-1.6384,-1.6384,-1.6384,-1.6384,-1.6384,-1.6384,-1.6384,-1.6384,-1.6384,-1.6581,-1.7101,-1.76,-1.7655,-1.7146,-1.7101,-1.7146,-1.7202,-1.782,-1.8685,-1.9798,-1.9798,-1.9798,-1.9798,-1.9798,-1.9798,0.0,0.0,0.0,0.0,-1.1026,0.0,-0.9017,-0.9116,-0.9675,-0.9648,-0.9749,-1.0086,-1.0942,-1.1696,-1.2222,-1.2351,-1.3422,-1.4577,-1.5657,-1.5826,-1.5826,-1.5826,-1.6454,-1.7251,-1.8166,-1.8858,-1.9643,-2.0633,-2.0908,-2.1131,-2.1367,-2.223,-2.274,-2.2685,-2.3469,-2.3891,-2.3772,-2.3522,-2.3403,-2.333,-2.3065,-2.2616,-2.2113,-2.1439,-2.0996,-2.0869,-2.0484,-2.0226,-2.0096,-2.0226,-2.0161,-1.9911,-2.0042,-1.9715,-1.9142,-1.9264,-1.9198,-1.8971,-1.8247,-1.7988,-1.7874,-1.714,-1.7088,-1.7245,-1.7245,-1.7543,-1.774,-1.7307,-1.6839,-1.6384,-1.6384,-1.6384,-1.6384,-1.6384,-1.6384,-1.6384,-1.6384,-1.6384,-1.6384,-1.6384,-1.6384,-1.6545,-1.6976,-1.6705,-1.6384,-1.6384,-1.6384,-1.6384,-1.6384,-1.6384,-1.6384,-1.6384,-1.6384,-1.6384,-1.6384,-1.6384,-1.6431,-1.6534,-1.6648,-1.6705,-1.6534,-1.6534,-1.674,-1.7202,-1.8093,-1.8963,-1.9798,-1.9798,-1.9798,-1.9798,-1.9798,-1.9798,0.0,0.0,0.0,-1.1651,-1.1726,0.0,0.0,-0.9471,-0.9343,-1.0265,-0.9662,-0.9303,-1.0477,-1.0996,-1.122,-1.1162,-1.2128,-1.3022,-1.3451,-1.4655,-1.5487,-1.5487,-1.5761,-1.6166,-1.6741,-1.7042,-1.7682,-1.8891,-1.9258,-1.963,-2.0205,-2.1054,-2.1525,-2.142,-2.2428,-2.2923,-2.2808,-2.3183,-2.333,-2.3271,-2.2823,-2.2249,-2.1553,-2.0933,-2.042,-2.0096,-1.9781,-1.9584,-1.9584,-1.9584,-1.9318,-1.8945,-1.9403,-1.9396,-1.9013,-1.8568,-1.8402,-1.8278,-1.7367,-1.7057,-1.6984,-1.6529,-1.6374,-1.6363,-1.6363,-1.6529,-1.6715,-1.6715,-1.656,-1.6384,-1.6384,-1.6384,-1.6384,-1.6384,-1.6384,-1.6384,-1.6384,-1.6384,-1.6384,-1.6384,-1.6384,-1.6384,-1.6384,-1.6384,-1.6384,-1.6384,-1.6384,-1.6384,-1.6384,-1.6384,-1.6384,-1.6384,-1.6384,-1.6384,-1.6384,-1.6384,-1.6384,-1.6384,-1.6384,-1.6384,-1.6384,-1.6384,-1.6694,-1.7313,-1.8038,-1.8857,-1.9798,-1.9798,-1.9798,-1.9798,-1.9798,-1.9798,0.0,0.0,0.0,-1.3055,-1.2558,-1.189,0.0,0.0,0.0,-1.0877,-0.9918,-0.9162,-1.03,-1.051,-1.0427,-1.0208,-1.1018,-1.1585,-1.1303,-1.3325,-1.4805,-1.4699,-1.4846,-1.5029,-1.5147,-1.516,-1.5644,-1.6781,-1.712,-1.7813,-1.9081,-1.9847,-2.0156,-2.0086,-2.1225,-2.1725,-2.1479,-2.2356,-2.2799,-2.2811,-2.2249,-2.1737,-2.125,-2.0613,-1.9944,-1.9253,-1.9057,-1.8963,-1.8795,-1.8795,-1.8239,-1.7564,-1.8464,-1.8702,-1.8464,-1.774,-1.7471,-1.7347,-1.6436,-1.6115,-1.6084,-1.5908,-1.5659,-1.5452,-1.5639,-1.5691,-1.5784,-1.6249,-1.6384,-1.6384,-1.6384,-1.6384,-1.6384,-1.6384,-1.6384,-1.6384,-1.6384,-1.6384,-1.6384,-1.6384,-1.6384,-1.6384,-1.6384,-1.6384,-1.6384,-1.6384,-1.6384,-1.6384,-1.6384,-1.6384,-1.6384,-1.6384,-1.6384,-1.6384,-1.6384,-1.6384,-1.6384,-1.6384,-1.6384,-1.6384,-1.6384,-1.6384,-1.6807,-1.7589,-1.771,-1.8417,-1.9798,-1.9798,-1.9798,-1.9798,-1.9798,-1.9695,0.0,-1.5211,-1.4892,-1.3268,-1.3728,-1.3785,-1.0697,0.0,-1.0735,-0.9833,0.0,-0.9556,-0.9492,0.0,0.0,-0.9393,-1.0378,-1.0963,-1.0425,-1.1531,-1.2238,-1.1839,-1.2633,-1.3428,-1.3931,-1.3984,-1.4454,-1.5604,-1.4807,-1.5003,-1.6689,-1.78,-1.861,-1.9034,-2.0231,-2.0807,-2.0655,-2.0617,-2.1011,-2.1893,-2.1669,-2.1694,-2.1978,-2.1302,-2.0517,-1.9673,-1.9061,-1.8327,-1.7597,-1.7597,-1.7166,-1.6622,-1.7533,-1.7398,-1.6674,-1.657,-1.6529,-1.6405,-1.5473,-1.5152,-1.5018,-1.42,-1.4169,-1.4614,-1.5442,-1.5691,-1.5784,-1.6249,-1.6384,-1.6384,-1.6384,-1.6384,-1.6384,-1.6384,-1.6384,-1.6384,-1.6384,-1.6384,-1.6384,-1.6384,-1.6384,-1.6384,-1.6384,-1.6384,-1.6384,-1.6384,-1.6384,-1.6384,-1.6384,-1.6384,-1.6384,-1.6384,-1.6384,-1.6384,-1.6384,-1.6384,-1.6384,-1.6384,-1.6384,-1.6384,-1.6384,-1.6384,-1.6909,-1.8038,-1.7078,-1.7667,-1.9798,-1.9798,-1.9798,-1.9798,-1.9798,-1.9436,-1.5129,-1.4973,-1.4766,-1.3988,-1.3759,-1.3379,-1.2117,-1.1272,-1.0886,-1.1256,0.0,0.0,0.0,0.0,0.0,0.0,-0.9773,-0.984,-0.9389,-0.9964,-1.0605,-1.1061,-1.1492,-1.1939,-1.2412,-1.2478,-1.275,-1.3422,-1.3472,-1.3868,-1.482,-1.6297,-1.7212,-1.7434,-1.8872,-1.9595,-1.9464,-1.9949,-2.0373,-2.0739,-2.0567,-2.0415,-2.0172,-1.9599,-1.8965,-1.8226,-1.7615,-1.7169,-1.6797,-1.6797,-1.6322,-1.5608,-1.6001,-1.6239,-1.6312,-1.5773,-1.5577,-1.5442,-1.4521,-1.42,-1.4128,-1.3745,-1.3745,-1.4076,-1.5007,-1.5287,-1.5442,-1.6177,-1.6384,-1.6384,-1.6384,-1.6384,-1.6384,-1.6384,-1.6384,-1.6384,-1.6384,-1.6384,-1.6384,-1.6384,-1.6384,-1.6384,-1.6384,-1.6384,-1.6384,-1.6384,-1.6384,-1.6384,-1.6384,-1.6384,-1.6384,-1.6384,-1.6384,-1.6384,-1.6384,-1.6384,-1.6384,-1.6384,-1.6384,-1.6384,-1.6384,-1.6384,-1.6658,-1.7078,-1.6648,-1.6864,-1.7831,-1.7831,-1.8038,-1.8459,-1.8951,-1.9226,-1.503,-1.4742,-1.4525,-1.435,-1.3626,-1.2927,-1.2817,-1.1896,-1.1353,-1.2118,-1.1366,0.0,0.0,0.0,0.0,0.0,0.0,-0.9158,-0.8629,-0.8957,-0.9518,-1.0229,-1.0526,-1.08,-1.1096,-1.0974,-1.1145,-1.1808,-1.2108,-1.2721,-1.3756,-1.499,-1.5905,-1.6375,-1.7578,-1.8208,-1.8216,-1.8947,-1.9428,-1.9585,-1.9309,-1.9101,-1.8857,-1.8213,-1.751,-1.6776,-1.6258,-1.5856,-1.5618,-1.5618,-1.5225,-1.4624,-1.4624,-1.5028,-1.5535,-1.4863,-1.4624,-1.4521,-1.3848,-1.3621,-1.3621,-1.3621,-1.3703,-1.3952,-1.4749,-1.509,-1.5359,-1.6156,-1.6384,-1.6384,-1.6384,-1.6384,-1.6384,-1.6384,-1.6384,-1.6384,-1.6259,-1.6259,-1.6269,-1.6374,-1.6259,-1.6192,-1.6384,-1.6259,-1.6202,-1.6374,-1.6384,-1.6384,-1.6384,-1.6384,-1.6384,-1.6384,-1.6384,-1.6384,-1.6384,-1.6384,-1.6384,-1.6384,-1.6384,-1.6384,-1.6384,-1.6384,-1.6384,-1.6384,-1.6384,-1.6384,-1.6384,-1.6591,-1.6955,-1.7534,-1.8213,-1.8804,-1.553,-1.5345,-1.4789,-1.4027,-1.3598,-1.3031,-1.1748,-1.2213,-1.2597,-1.1471,-1.2326,-1.29,-1.1724,0.0,0.0,0.0,0.0,0.0,0.0,-0.8741,-0.8984,-0.8617,-0.9495,-1.0128,-1.0142,-0.9625,-0.991,-1.1414,-1.0535,-1.1042,-1.3664,-1.384,-1.465,-1.6336,-1.6441,-1.6688,-1.7041,-1.7093,-1.7573,-1.8431,-1.7931,-1.8189,-1.9028,-1.7929,-1.6937,-1.6001,-1.5342,-1.4531,-1.3703,-1.3703,-1.3683,-1.3662,-1.3662,-1.3683,-1.3703,-1.3672,-1.3662,-1.3652,-1.3631,-1.3621,-1.3621,-1.3621,-1.3921,-1.4376,-1.4852,-1.5308,-1.5763,-1.6249,-1.6384,-1.6384,-1.6384,-1.6384,-1.6384,-1.6384,-1.6384,-1.6316,-1.5972,-1.5914,-1.6029,-1.6327,-1.5894,-1.5652,-1.6316,-1.5836,-1.5652,-1.6316,-1.6384,-1.6384,-1.6384,-1.6384,-1.6384,-1.6384,-1.6384,-1.6384,-1.6384,-1.6384,-1.6384,-1.6384,-1.6384,-1.6384,-1.6384,-1.6384,-1.6384,-1.6384,-1.6384,-1.6384,-1.6384,-1.7112,-1.7479,-1.7534,-1.7929,-1.8147,-1.4668,-1.48,-1.4675,-1.3548,-1.32,-1.2827,-1.1713,-1.2124,-1.2441,-1.1424,-1.2234,-1.2784,-1.1638,0.0,0.0,0.0,0.0,0.0,0.0,-0.8529,-0.8419,-0.8375,-0.8846,-0.9177,-0.9177,-0.8867,-0.9158,-1.0288,-1.0031,-1.0465,-1.2,-1.316,-1.4219,-1.5173,-1.597,-1.665,-1.7115,-1.7002,-1.7068,-1.7408,-1.6749,-1.6614,-1.6871,-1.5864,-1.5257,-1.4912,-1.4331,-1.39,-1.3621,-1.3621,-1.3621,-1.3621,-1.3621,-1.3621,-1.3621,-1.3621,-1.3621,-1.3621,-1.3621,-1.3621,-1.3621,-1.3621,-1.3931,-1.4397,-1.4863,-1.5328,-1.5784,-1.6249,-1.6384,-1.6384,-1.6384,-1.6384,-1.6374,-1.6249,-1.6192,-1.6077,-1.5961,-1.5914,-1.5914,-1.6029,-1.6087,-1.6134,-1.6374,-1.6192,-1.6134,-1.6384,-1.6384,-1.6384,-1.6384,-1.6384,-1.6384,-1.6384,-1.6384,-1.6384,-1.6384,-1.6384,-1.6384,-1.6384,-1.6384,-1.6384,-1.6384,-1.6384,-1.6384,-1.6384,-1.6384,-1.6384,-1.6384,-1.6648,-1.6751,-1.6807,-1.6909,-1.7567,-1.3815,-1.4162,-1.4302,-1.3415,-1.3291,-1.3095,-1.1849,-1.2253,-1.2609,-1.1703,-1.2114,-1.2582,-1.254,-1.1146,0.0,0.0,0.0,0.0,0.0,-0.833,-0.8135,-0.8229,-0.8378,0.0,0.0,-0.826,-0.8472,-0.9138,-0.9375,-0.989,-1.0847,-1.2337,-1.3605,-1.4559,-1.5552,-1.6441,-1.7186,-1.7002,-1.6833,-1.6595,-1.592,-1.5522,-1.5266,-1.4501,-1.414,-1.4093,-1.3763,-1.3621,-1.3621,-1.3621,-1.3621,-1.3621,-1.3621,-1.3621,-1.3621,-1.3621,-1.3621,-1.3621,-1.3621,-1.3621,-1.3621,-1.3621,-1.4045,-1.4614,-1.4914,-1.5432,-1.6001,-1.6291,-1.6384,-1.6384,-1.6384,-1.6374,-1.6306,-1.6239,-1.6066,-1.5961,-1.6009,-1.5961,-1.5914,-1.5961,-1.6134,-1.6316,-1.6374,-1.6384,-1.6384,-1.6384,-1.6384,-1.6384,-1.6384,-1.6384,-1.6384,-1.6384,-1.6384,-1.6384,-1.6384,-1.6384,-1.6384,-1.6384,-1.6384,-1.6384,-1.6384,-1.6384,-1.6384,-1.6384,-1.6384,-1.6384,-1.6384,-1.6384,-1.6384,-1.6384,-1.6384,-1.7078]}]]